<?xml version="1.0" encoding="UTF-8" standalone="no" ?>
<gpx xmlns="http://www.topografix.com/GPX/1/1" xmlns:xsi="http://www.w3.org/2001/XMLSchema-instance" xsi:schemaLocation="http://www.topografix.com/GPX/1/1 http://www.topografix.com/GPX/1/1/gpx.xsd" version="1.1" creator="VisuGPX - https://www.visugpx.com">
  <metadata>
    <name>A l\'arrach du côté de Ciadoux</name>
    <desc><![CDATA[Balade à moto MT du 19/05/2013

A l\'arrach du côté de Ciadoux]]></desc>
  </metadata>
  <trk>
    <name><![CDATA[19-MAI-13 20:03:45]]></name>
    <trkseg>
      <trkpt lat="43.51213" lon="1.36845">
        <ele>137.13</ele>
        <time>2013-05-19T11:09:22Z</time>
      </trkpt>
      <trkpt lat="43.51223" lon="1.36783">
        <ele>186.15</ele>
        <time>2013-05-19T11:32:09Z</time>
      </trkpt>
      <trkpt lat="43.51251" lon="1.36675">
        <ele>189.04</ele>
        <time>2013-05-19T11:32:33Z</time>
      </trkpt>
      <trkpt lat="43.51194" lon="1.36578">
        <ele>186.63</ele>
        <time>2013-05-19T11:32:42Z</time>
      </trkpt>
      <trkpt lat="43.51125" lon="1.36533">
        <ele>185.67</ele>
        <time>2013-05-19T11:32:56Z</time>
      </trkpt>
      <trkpt lat="43.51047" lon="1.36608">
        <ele>185.19</ele>
        <time>2013-05-19T11:33:05Z</time>
      </trkpt>
      <trkpt lat="43.50971" lon="1.36673">
        <ele>184.71</ele>
        <time>2013-05-19T11:33:25Z</time>
      </trkpt>
      <trkpt lat="43.50899" lon="1.36604">
        <ele>188.08</ele>
        <time>2013-05-19T11:33:33Z</time>
      </trkpt>
      <trkpt lat="43.50826" lon="1.36509">
        <ele>187.59</ele>
        <time>2013-05-19T11:33:38Z</time>
      </trkpt>
      <trkpt lat="43.50753" lon="1.36401">
        <ele>189.04</ele>
        <time>2013-05-19T11:33:42Z</time>
      </trkpt>
      <trkpt lat="43.50687" lon="1.36301">
        <ele>184.71</ele>
        <time>2013-05-19T11:33:47Z</time>
      </trkpt>
      <trkpt lat="43.5062" lon="1.36203">
        <ele>185.19</ele>
        <time>2013-05-19T11:33:55Z</time>
      </trkpt>
      <trkpt lat="43.50567" lon="1.36119">
        <ele>185.19</ele>
        <time>2013-05-19T11:34:06Z</time>
      </trkpt>
      <trkpt lat="43.50504" lon="1.36032">
        <ele>186.15</ele>
        <time>2013-05-19T11:34:12Z</time>
      </trkpt>
      <trkpt lat="43.5043" lon="1.35926">
        <ele>185.67</ele>
        <time>2013-05-19T11:34:16Z</time>
      </trkpt>
      <trkpt lat="43.5036" lon="1.35822">
        <ele>184.71</ele>
        <time>2013-05-19T11:34:21Z</time>
      </trkpt>
      <trkpt lat="43.50287" lon="1.35714">
        <ele>183.27</ele>
        <time>2013-05-19T11:34:26Z</time>
      </trkpt>
      <trkpt lat="43.50216" lon="1.3561">
        <ele>182.79</ele>
        <time>2013-05-19T11:34:31Z</time>
      </trkpt>
      <trkpt lat="43.50146" lon="1.35509">
        <ele>183.27</ele>
        <time>2013-05-19T11:34:36Z</time>
      </trkpt>
      <trkpt lat="43.50072" lon="1.35399">
        <ele>183.75</ele>
        <time>2013-05-19T11:34:41Z</time>
      </trkpt>
      <trkpt lat="43.50005" lon="1.35302">
        <ele>184.23</ele>
        <time>2013-05-19T11:34:45Z</time>
      </trkpt>
      <trkpt lat="43.4994" lon="1.35207">
        <ele>186.63</ele>
        <time>2013-05-19T11:34:49Z</time>
      </trkpt>
      <trkpt lat="43.49876" lon="1.35113">
        <ele>187.11</ele>
        <time>2013-05-19T11:34:53Z</time>
      </trkpt>
      <trkpt lat="43.49812" lon="1.35021">
        <ele>188.08</ele>
        <time>2013-05-19T11:34:57Z</time>
      </trkpt>
      <trkpt lat="43.49747" lon="1.34926">
        <ele>184.71</ele>
        <time>2013-05-19T11:35:01Z</time>
      </trkpt>
      <trkpt lat="43.49686" lon="1.34836">
        <ele>187.59</ele>
        <time>2013-05-19T11:35:05Z</time>
      </trkpt>
      <trkpt lat="43.49607" lon="1.34721">
        <ele>187.11</ele>
        <time>2013-05-19T11:35:10Z</time>
      </trkpt>
      <trkpt lat="43.49545" lon="1.34631">
        <ele>188.08</ele>
        <time>2013-05-19T11:35:14Z</time>
      </trkpt>
      <trkpt lat="43.49479" lon="1.3454">
        <ele>189.04</ele>
        <time>2013-05-19T11:35:18Z</time>
      </trkpt>
      <trkpt lat="43.49394" lon="1.34454">
        <ele>189.04</ele>
        <time>2013-05-19T11:35:23Z</time>
      </trkpt>
      <trkpt lat="43.49309" lon="1.3439">
        <ele>187.59</ele>
        <time>2013-05-19T11:35:29Z</time>
      </trkpt>
      <trkpt lat="43.49222" lon="1.34333">
        <ele>187.59</ele>
        <time>2013-05-19T11:35:36Z</time>
      </trkpt>
      <trkpt lat="43.4915" lon="1.34261">
        <ele>189.04</ele>
        <time>2013-05-19T11:35:50Z</time>
      </trkpt>
      <trkpt lat="43.49064" lon="1.34231">
        <ele>190</ele>
        <time>2013-05-19T11:35:57Z</time>
      </trkpt>
      <trkpt lat="43.48972" lon="1.34177">
        <ele>191.92</ele>
        <time>2013-05-19T11:36:02Z</time>
      </trkpt>
      <trkpt lat="43.48889" lon="1.34126">
        <ele>191.44</ele>
        <time>2013-05-19T11:36:07Z</time>
      </trkpt>
      <trkpt lat="43.488" lon="1.3407">
        <ele>192.88</ele>
        <time>2013-05-19T11:36:12Z</time>
      </trkpt>
      <trkpt lat="43.48712" lon="1.34015">
        <ele>190</ele>
        <time>2013-05-19T11:36:17Z</time>
      </trkpt>
      <trkpt lat="43.48626" lon="1.3396">
        <ele>193.84</ele>
        <time>2013-05-19T11:36:22Z</time>
      </trkpt>
      <trkpt lat="43.48538" lon="1.33905">
        <ele>192.4</ele>
        <time>2013-05-19T11:36:27Z</time>
      </trkpt>
      <trkpt lat="43.48451" lon="1.33853">
        <ele>191.92</ele>
        <time>2013-05-19T11:36:32Z</time>
      </trkpt>
      <trkpt lat="43.4835" lon="1.33792">
        <ele>193.84</ele>
        <time>2013-05-19T11:36:37Z</time>
      </trkpt>
      <trkpt lat="43.48265" lon="1.3374">
        <ele>190.48</ele>
        <time>2013-05-19T11:36:41Z</time>
      </trkpt>
      <trkpt lat="43.48164" lon="1.33676">
        <ele>192.4</ele>
        <time>2013-05-19T11:36:46Z</time>
      </trkpt>
      <trkpt lat="43.48074" lon="1.3362">
        <ele>193.84</ele>
        <time>2013-05-19T11:36:51Z</time>
      </trkpt>
      <trkpt lat="43.47989" lon="1.33562">
        <ele>192.88</ele>
        <time>2013-05-19T11:36:56Z</time>
      </trkpt>
      <trkpt lat="43.47917" lon="1.33488">
        <ele>192.4</ele>
        <time>2013-05-19T11:37:06Z</time>
      </trkpt>
      <trkpt lat="43.47839" lon="1.3347">
        <ele>194.32</ele>
        <time>2013-05-19T11:37:16Z</time>
      </trkpt>
      <trkpt lat="43.47748" lon="1.33413">
        <ele>195.77</ele>
        <time>2013-05-19T11:37:21Z</time>
      </trkpt>
      <trkpt lat="43.47656" lon="1.33339">
        <ele>192.88</ele>
        <time>2013-05-19T11:37:27Z</time>
      </trkpt>
      <trkpt lat="43.47585" lon="1.33253">
        <ele>198.65</ele>
        <time>2013-05-19T11:37:32Z</time>
      </trkpt>
      <trkpt lat="43.47526" lon="1.33134">
        <ele>201.53</ele>
        <time>2013-05-19T11:37:37Z</time>
      </trkpt>
      <trkpt lat="43.47493" lon="1.32998">
        <ele>202.01</ele>
        <time>2013-05-19T11:37:42Z</time>
      </trkpt>
      <trkpt lat="43.47482" lon="1.32846">
        <ele>203.94</ele>
        <time>2013-05-19T11:37:47Z</time>
      </trkpt>
      <trkpt lat="43.47486" lon="1.3272">
        <ele>197.69</ele>
        <time>2013-05-19T11:37:51Z</time>
      </trkpt>
      <trkpt lat="43.47495" lon="1.3257">
        <ele>199.13</ele>
        <time>2013-05-19T11:37:56Z</time>
      </trkpt>
      <trkpt lat="43.47502" lon="1.32438">
        <ele>195.28</ele>
        <time>2013-05-19T11:38:01Z</time>
      </trkpt>
      <trkpt lat="43.47504" lon="1.32312">
        <ele>193.84</ele>
        <time>2013-05-19T11:38:13Z</time>
      </trkpt>
      <trkpt lat="43.47527" lon="1.32197">
        <ele>199.13</ele>
        <time>2013-05-19T11:38:25Z</time>
      </trkpt>
      <trkpt lat="43.47585" lon="1.32065">
        <ele>203.46</ele>
        <time>2013-05-19T11:38:30Z</time>
      </trkpt>
      <trkpt lat="43.47634" lon="1.31953">
        <ele>199.13</ele>
        <time>2013-05-19T11:38:38Z</time>
      </trkpt>
      <trkpt lat="43.47682" lon="1.3186">
        <ele>194.32</ele>
        <time>2013-05-19T11:38:50Z</time>
      </trkpt>
      <trkpt lat="43.47591" lon="1.31842">
        <ele>197.69</ele>
        <time>2013-05-19T11:38:59Z</time>
      </trkpt>
      <trkpt lat="43.47508" lon="1.31877">
        <ele>193.84</ele>
        <time>2013-05-19T11:39:05Z</time>
      </trkpt>
      <trkpt lat="43.47416" lon="1.31894">
        <ele>197.69</ele>
        <time>2013-05-19T11:39:10Z</time>
      </trkpt>
      <trkpt lat="43.47327" lon="1.3185">
        <ele>195.28</ele>
        <time>2013-05-19T11:39:14Z</time>
      </trkpt>
      <trkpt lat="43.47243" lon="1.318">
        <ele>193.36</ele>
        <time>2013-05-19T11:39:18Z</time>
      </trkpt>
      <trkpt lat="43.47148" lon="1.31745">
        <ele>197.69</ele>
        <time>2013-05-19T11:39:23Z</time>
      </trkpt>
      <trkpt lat="43.47047" lon="1.31685">
        <ele>197.69</ele>
        <time>2013-05-19T11:39:28Z</time>
      </trkpt>
      <trkpt lat="43.46945" lon="1.31625">
        <ele>197.69</ele>
        <time>2013-05-19T11:39:33Z</time>
      </trkpt>
      <trkpt lat="43.46845" lon="1.31567">
        <ele>199.61</ele>
        <time>2013-05-19T11:39:38Z</time>
      </trkpt>
      <trkpt lat="43.46755" lon="1.31508">
        <ele>198.65</ele>
        <time>2013-05-19T11:39:44Z</time>
      </trkpt>
      <trkpt lat="43.46676" lon="1.31417">
        <ele>198.17</ele>
        <time>2013-05-19T11:39:51Z</time>
      </trkpt>
      <trkpt lat="43.46616" lon="1.31322">
        <ele>200.57</ele>
        <time>2013-05-19T11:39:59Z</time>
      </trkpt>
      <trkpt lat="43.46573" lon="1.31215">
        <ele>201.05</ele>
        <time>2013-05-19T11:40:10Z</time>
      </trkpt>
      <trkpt lat="43.46567" lon="1.31099">
        <ele>195.77</ele>
        <time>2013-05-19T11:40:22Z</time>
      </trkpt>
      <trkpt lat="43.4651" lon="1.31">
        <ele>197.69</ele>
        <time>2013-05-19T11:40:29Z</time>
      </trkpt>
      <trkpt lat="43.46432" lon="1.3091">
        <ele>195.77</ele>
        <time>2013-05-19T11:40:37Z</time>
      </trkpt>
      <trkpt lat="43.46383" lon="1.30799">
        <ele>197.69</ele>
        <time>2013-05-19T11:40:44Z</time>
      </trkpt>
      <trkpt lat="43.46372" lon="1.30657">
        <ele>198.65</ele>
        <time>2013-05-19T11:40:50Z</time>
      </trkpt>
      <trkpt lat="43.4638" lon="1.3052">
        <ele>197.69</ele>
        <time>2013-05-19T11:40:57Z</time>
      </trkpt>
      <trkpt lat="43.46391" lon="1.30383">
        <ele>200.09</ele>
        <time>2013-05-19T11:41:04Z</time>
      </trkpt>
      <trkpt lat="43.46395" lon="1.30255">
        <ele>197.21</ele>
        <time>2013-05-19T11:41:10Z</time>
      </trkpt>
      <trkpt lat="43.46407" lon="1.3012">
        <ele>199.13</ele>
        <time>2013-05-19T11:41:17Z</time>
      </trkpt>
      <trkpt lat="43.46419" lon="1.29997">
        <ele>203.94</ele>
        <time>2013-05-19T11:41:24Z</time>
      </trkpt>
      <trkpt lat="43.46429" lon="1.29879">
        <ele>203.46</ele>
        <time>2013-05-19T11:41:35Z</time>
      </trkpt>
      <trkpt lat="43.46431" lon="1.29753">
        <ele>207.78</ele>
        <time>2013-05-19T11:41:40Z</time>
      </trkpt>
      <trkpt lat="43.46434" lon="1.29618">
        <ele>207.3</ele>
        <time>2013-05-19T11:41:44Z</time>
      </trkpt>
      <trkpt lat="43.46443" lon="1.29483">
        <ele>212.59</ele>
        <time>2013-05-19T11:41:49Z</time>
      </trkpt>
      <trkpt lat="43.4645" lon="1.29358">
        <ele>212.59</ele>
        <time>2013-05-19T11:41:54Z</time>
      </trkpt>
      <trkpt lat="43.46458" lon="1.2922">
        <ele>208.26</ele>
        <time>2013-05-19T11:41:59Z</time>
      </trkpt>
      <trkpt lat="43.46467" lon="1.29075">
        <ele>203.94</ele>
        <time>2013-05-19T11:42:04Z</time>
      </trkpt>
      <trkpt lat="43.46475" lon="1.28951">
        <ele>212.59</ele>
        <time>2013-05-19T11:42:08Z</time>
      </trkpt>
      <trkpt lat="43.46483" lon="1.28807">
        <ele>212.11</ele>
        <time>2013-05-19T11:42:13Z</time>
      </trkpt>
      <trkpt lat="43.46493" lon="1.28652">
        <ele>207.78</ele>
        <time>2013-05-19T11:42:18Z</time>
      </trkpt>
      <trkpt lat="43.46502" lon="1.28503">
        <ele>208.74</ele>
        <time>2013-05-19T11:42:23Z</time>
      </trkpt>
      <trkpt lat="43.46511" lon="1.28353">
        <ele>210.67</ele>
        <time>2013-05-19T11:42:28Z</time>
      </trkpt>
      <trkpt lat="43.4652" lon="1.28206">
        <ele>209.22</ele>
        <time>2013-05-19T11:42:33Z</time>
      </trkpt>
      <trkpt lat="43.46529" lon="1.28056">
        <ele>207.3</ele>
        <time>2013-05-19T11:42:38Z</time>
      </trkpt>
      <trkpt lat="43.46537" lon="1.27911">
        <ele>205.86</ele>
        <time>2013-05-19T11:42:43Z</time>
      </trkpt>
      <trkpt lat="43.46546" lon="1.27772">
        <ele>207.3</ele>
        <time>2013-05-19T11:42:48Z</time>
      </trkpt>
      <trkpt lat="43.46555" lon="1.2762">
        <ele>206.34</ele>
        <time>2013-05-19T11:42:53Z</time>
      </trkpt>
      <trkpt lat="43.46564" lon="1.2748">
        <ele>208.26</ele>
        <time>2013-05-19T11:42:58Z</time>
      </trkpt>
      <trkpt lat="43.46572" lon="1.27339">
        <ele>209.22</ele>
        <time>2013-05-19T11:43:03Z</time>
      </trkpt>
      <trkpt lat="43.46581" lon="1.272">
        <ele>210.67</ele>
        <time>2013-05-19T11:43:08Z</time>
      </trkpt>
      <trkpt lat="43.4659" lon="1.27057">
        <ele>209.7</ele>
        <time>2013-05-19T11:43:13Z</time>
      </trkpt>
      <trkpt lat="43.46598" lon="1.26914">
        <ele>208.26</ele>
        <time>2013-05-19T11:43:18Z</time>
      </trkpt>
      <trkpt lat="43.46608" lon="1.26759">
        <ele>210.67</ele>
        <time>2013-05-19T11:43:23Z</time>
      </trkpt>
      <trkpt lat="43.46617" lon="1.26611">
        <ele>209.22</ele>
        <time>2013-05-19T11:43:28Z</time>
      </trkpt>
      <trkpt lat="43.46625" lon="1.26464">
        <ele>210.67</ele>
        <time>2013-05-19T11:43:33Z</time>
      </trkpt>
      <trkpt lat="43.46634" lon="1.26318">
        <ele>209.22</ele>
        <time>2013-05-19T11:43:38Z</time>
      </trkpt>
      <trkpt lat="43.46643" lon="1.26174">
        <ele>208.74</ele>
        <time>2013-05-19T11:43:43Z</time>
      </trkpt>
      <trkpt lat="43.46652" lon="1.26032">
        <ele>209.22</ele>
        <time>2013-05-19T11:43:48Z</time>
      </trkpt>
      <trkpt lat="43.46661" lon="1.25888">
        <ele>208.26</ele>
        <time>2013-05-19T11:43:53Z</time>
      </trkpt>
      <trkpt lat="43.4667" lon="1.25743">
        <ele>210.67</ele>
        <time>2013-05-19T11:43:58Z</time>
      </trkpt>
      <trkpt lat="43.46679" lon="1.256">
        <ele>209.22</ele>
        <time>2013-05-19T11:44:03Z</time>
      </trkpt>
      <trkpt lat="43.46687" lon="1.2546">
        <ele>213.07</ele>
        <time>2013-05-19T11:44:08Z</time>
      </trkpt>
      <trkpt lat="43.46696" lon="1.25317">
        <ele>210.67</ele>
        <time>2013-05-19T11:44:14Z</time>
      </trkpt>
      <trkpt lat="43.46702" lon="1.25194">
        <ele>210.67</ele>
        <time>2013-05-19T11:44:21Z</time>
      </trkpt>
      <trkpt lat="43.46714" lon="1.2507">
        <ele>209.22</ele>
        <time>2013-05-19T11:44:34Z</time>
      </trkpt>
      <trkpt lat="43.46719" lon="1.24929">
        <ele>214.03</ele>
        <time>2013-05-19T11:44:40Z</time>
      </trkpt>
      <trkpt lat="43.46727" lon="1.24805">
        <ele>210.19</ele>
        <time>2013-05-19T11:44:46Z</time>
      </trkpt>
      <trkpt lat="43.46735" lon="1.24667">
        <ele>211.15</ele>
        <time>2013-05-19T11:44:53Z</time>
      </trkpt>
      <trkpt lat="43.46743" lon="1.24531">
        <ele>210.67</ele>
        <time>2013-05-19T11:45:00Z</time>
      </trkpt>
      <trkpt lat="43.46752" lon="1.24396">
        <ele>209.7</ele>
        <time>2013-05-19T11:45:07Z</time>
      </trkpt>
      <trkpt lat="43.4676" lon="1.24256">
        <ele>209.22</ele>
        <time>2013-05-19T11:45:14Z</time>
      </trkpt>
      <trkpt lat="43.46769" lon="1.24114">
        <ele>209.22</ele>
        <time>2013-05-19T11:45:21Z</time>
      </trkpt>
      <trkpt lat="43.46777" lon="1.23988">
        <ele>210.67</ele>
        <time>2013-05-19T11:45:27Z</time>
      </trkpt>
      <trkpt lat="43.46785" lon="1.23855">
        <ele>211.15</ele>
        <time>2013-05-19T11:45:34Z</time>
      </trkpt>
      <trkpt lat="43.46792" lon="1.23726">
        <ele>210.19</ele>
        <time>2013-05-19T11:45:40Z</time>
      </trkpt>
      <trkpt lat="43.468" lon="1.236">
        <ele>210.19</ele>
        <time>2013-05-19T11:45:46Z</time>
      </trkpt>
      <trkpt lat="43.46809" lon="1.23457">
        <ele>211.15</ele>
        <time>2013-05-19T11:45:52Z</time>
      </trkpt>
      <trkpt lat="43.46817" lon="1.23324">
        <ele>210.67</ele>
        <time>2013-05-19T11:45:57Z</time>
      </trkpt>
      <trkpt lat="43.46825" lon="1.23196">
        <ele>209.22</ele>
        <time>2013-05-19T11:46:02Z</time>
      </trkpt>
      <trkpt lat="43.46833" lon="1.23063">
        <ele>208.74</ele>
        <time>2013-05-19T11:46:07Z</time>
      </trkpt>
      <trkpt lat="43.46841" lon="1.22929">
        <ele>208.74</ele>
        <time>2013-05-19T11:46:12Z</time>
      </trkpt>
      <trkpt lat="43.4685" lon="1.22784">
        <ele>207.78</ele>
        <time>2013-05-19T11:46:17Z</time>
      </trkpt>
      <trkpt lat="43.46859" lon="1.22636">
        <ele>207.78</ele>
        <time>2013-05-19T11:46:22Z</time>
      </trkpt>
      <trkpt lat="43.46867" lon="1.22496">
        <ele>209.22</ele>
        <time>2013-05-19T11:46:27Z</time>
      </trkpt>
      <trkpt lat="43.46877" lon="1.22356">
        <ele>210.19</ele>
        <time>2013-05-19T11:46:32Z</time>
      </trkpt>
      <trkpt lat="43.46887" lon="1.22215">
        <ele>210.19</ele>
        <time>2013-05-19T11:46:38Z</time>
      </trkpt>
      <trkpt lat="43.46871" lon="1.22068">
        <ele>209.22</ele>
        <time>2013-05-19T11:46:43Z</time>
      </trkpt>
      <trkpt lat="43.46856" lon="1.21935">
        <ele>214.51</ele>
        <time>2013-05-19T11:46:48Z</time>
      </trkpt>
      <trkpt lat="43.46842" lon="1.21802">
        <ele>225.09</ele>
        <time>2013-05-19T11:46:56Z</time>
      </trkpt>
      <trkpt lat="43.46828" lon="1.21677">
        <ele>232.78</ele>
        <time>2013-05-19T11:47:05Z</time>
      </trkpt>
      <trkpt lat="43.46771" lon="1.21618">
        <ele>233.74</ele>
        <time>2013-05-19T11:47:19Z</time>
      </trkpt>
      <trkpt lat="43.46676" lon="1.2162">
        <ele>233.74</ele>
        <time>2013-05-19T11:47:28Z</time>
      </trkpt>
      <trkpt lat="43.46591" lon="1.21604">
        <ele>234.22</ele>
        <time>2013-05-19T11:47:41Z</time>
      </trkpt>
      <trkpt lat="43.46501" lon="1.21583">
        <ele>235.66</ele>
        <time>2013-05-19T11:47:50Z</time>
      </trkpt>
      <trkpt lat="43.46418" lon="1.21537">
        <ele>237.1</ele>
        <time>2013-05-19T11:48:00Z</time>
      </trkpt>
      <trkpt lat="43.4636" lon="1.21434">
        <ele>237.1</ele>
        <time>2013-05-19T11:48:06Z</time>
      </trkpt>
      <trkpt lat="43.46297" lon="1.21323">
        <ele>236.62</ele>
        <time>2013-05-19T11:48:14Z</time>
      </trkpt>
      <trkpt lat="43.46238" lon="1.2122">
        <ele>236.14</ele>
        <time>2013-05-19T11:48:21Z</time>
      </trkpt>
      <trkpt lat="43.46177" lon="1.21113">
        <ele>236.14</ele>
        <time>2013-05-19T11:48:31Z</time>
      </trkpt>
      <trkpt lat="43.46114" lon="1.21002">
        <ele>235.66</ele>
        <time>2013-05-19T11:48:38Z</time>
      </trkpt>
      <trkpt lat="43.46054" lon="1.20897">
        <ele>233.26</ele>
        <time>2013-05-19T11:48:44Z</time>
      </trkpt>
      <trkpt lat="43.45995" lon="1.20796">
        <ele>230.37</ele>
        <time>2013-05-19T11:48:48Z</time>
      </trkpt>
      <trkpt lat="43.45931" lon="1.20685">
        <ele>229.89</ele>
        <time>2013-05-19T11:48:53Z</time>
      </trkpt>
      <trkpt lat="43.4587" lon="1.20582">
        <ele>235.66</ele>
        <time>2013-05-19T11:48:58Z</time>
      </trkpt>
      <trkpt lat="43.45813" lon="1.20481">
        <ele>238.54</ele>
        <time>2013-05-19T11:49:03Z</time>
      </trkpt>
      <trkpt lat="43.45749" lon="1.2037">
        <ele>232.78</ele>
        <time>2013-05-19T11:49:08Z</time>
      </trkpt>
      <trkpt lat="43.45694" lon="1.20271">
        <ele>232.78</ele>
        <time>2013-05-19T11:49:12Z</time>
      </trkpt>
      <trkpt lat="43.45626" lon="1.20152">
        <ele>234.7</ele>
        <time>2013-05-19T11:49:17Z</time>
      </trkpt>
      <trkpt lat="43.45561" lon="1.20038">
        <ele>235.18</ele>
        <time>2013-05-19T11:49:22Z</time>
      </trkpt>
      <trkpt lat="43.45496" lon="1.19924">
        <ele>239.51</ele>
        <time>2013-05-19T11:49:27Z</time>
      </trkpt>
      <trkpt lat="43.45436" lon="1.19821">
        <ele>238.06</ele>
        <time>2013-05-19T11:49:32Z</time>
      </trkpt>
      <trkpt lat="43.45372" lon="1.19709">
        <ele>241.91</ele>
        <time>2013-05-19T11:49:37Z</time>
      </trkpt>
      <trkpt lat="43.45306" lon="1.19592">
        <ele>243.35</ele>
        <time>2013-05-19T11:49:42Z</time>
      </trkpt>
      <trkpt lat="43.4524" lon="1.19478">
        <ele>240.95</ele>
        <time>2013-05-19T11:49:47Z</time>
      </trkpt>
      <trkpt lat="43.45177" lon="1.19367">
        <ele>246.23</ele>
        <time>2013-05-19T11:49:52Z</time>
      </trkpt>
      <trkpt lat="43.45115" lon="1.19259">
        <ele>244.79</ele>
        <time>2013-05-19T11:49:57Z</time>
      </trkpt>
      <trkpt lat="43.45057" lon="1.19157">
        <ele>246.72</ele>
        <time>2013-05-19T11:50:02Z</time>
      </trkpt>
      <trkpt lat="43.44989" lon="1.19039">
        <ele>249.12</ele>
        <time>2013-05-19T11:50:07Z</time>
      </trkpt>
      <trkpt lat="43.4492" lon="1.18918">
        <ele>248.16</ele>
        <time>2013-05-19T11:50:12Z</time>
      </trkpt>
      <trkpt lat="43.44854" lon="1.18803">
        <ele>246.23</ele>
        <time>2013-05-19T11:50:17Z</time>
      </trkpt>
      <trkpt lat="43.44788" lon="1.18688">
        <ele>249.6</ele>
        <time>2013-05-19T11:50:22Z</time>
      </trkpt>
      <trkpt lat="43.44721" lon="1.18569">
        <ele>246.23</ele>
        <time>2013-05-19T11:50:27Z</time>
      </trkpt>
      <trkpt lat="43.44655" lon="1.18455">
        <ele>245.75</ele>
        <time>2013-05-19T11:50:32Z</time>
      </trkpt>
      <trkpt lat="43.44592" lon="1.18344">
        <ele>246.72</ele>
        <time>2013-05-19T11:50:37Z</time>
      </trkpt>
      <trkpt lat="43.44528" lon="1.18232">
        <ele>247.68</ele>
        <time>2013-05-19T11:50:42Z</time>
      </trkpt>
      <trkpt lat="43.44464" lon="1.1812">
        <ele>247.2</ele>
        <time>2013-05-19T11:50:47Z</time>
      </trkpt>
      <trkpt lat="43.44396" lon="1.18001">
        <ele>248.16</ele>
        <time>2013-05-19T11:50:52Z</time>
      </trkpt>
      <trkpt lat="43.44329" lon="1.17883">
        <ele>243.83</ele>
        <time>2013-05-19T11:50:57Z</time>
      </trkpt>
      <trkpt lat="43.44263" lon="1.17767">
        <ele>245.27</ele>
        <time>2013-05-19T11:51:02Z</time>
      </trkpt>
      <trkpt lat="43.44201" lon="1.17657">
        <ele>250.08</ele>
        <time>2013-05-19T11:51:07Z</time>
      </trkpt>
      <trkpt lat="43.44141" lon="1.17553">
        <ele>248.16</ele>
        <time>2013-05-19T11:51:12Z</time>
      </trkpt>
      <trkpt lat="43.44082" lon="1.17452">
        <ele>250.08</ele>
        <time>2013-05-19T11:51:17Z</time>
      </trkpt>
      <trkpt lat="43.44026" lon="1.17352">
        <ele>247.68</ele>
        <time>2013-05-19T11:51:23Z</time>
      </trkpt>
      <trkpt lat="43.43972" lon="1.17249">
        <ele>247.2</ele>
        <time>2013-05-19T11:51:32Z</time>
      </trkpt>
      <trkpt lat="43.43911" lon="1.1715">
        <ele>251.52</ele>
        <time>2013-05-19T11:51:42Z</time>
      </trkpt>
      <trkpt lat="43.43853" lon="1.17047">
        <ele>252.48</ele>
        <time>2013-05-19T11:51:47Z</time>
      </trkpt>
      <trkpt lat="43.43796" lon="1.16946">
        <ele>252</ele>
        <time>2013-05-19T11:51:52Z</time>
      </trkpt>
      <trkpt lat="43.43733" lon="1.16837">
        <ele>252.48</ele>
        <time>2013-05-19T11:51:57Z</time>
      </trkpt>
      <trkpt lat="43.43666" lon="1.16721">
        <ele>252</ele>
        <time>2013-05-19T11:52:02Z</time>
      </trkpt>
      <trkpt lat="43.43603" lon="1.16611">
        <ele>251.52</ele>
        <time>2013-05-19T11:52:07Z</time>
      </trkpt>
      <trkpt lat="43.43537" lon="1.16496">
        <ele>244.79</ele>
        <time>2013-05-19T11:52:12Z</time>
      </trkpt>
      <trkpt lat="43.43469" lon="1.16376">
        <ele>244.31</ele>
        <time>2013-05-19T11:52:17Z</time>
      </trkpt>
      <trkpt lat="43.43402" lon="1.16258">
        <ele>252</ele>
        <time>2013-05-19T11:52:22Z</time>
      </trkpt>
      <trkpt lat="43.43333" lon="1.16138">
        <ele>250.56</ele>
        <time>2013-05-19T11:52:27Z</time>
      </trkpt>
      <trkpt lat="43.43265" lon="1.1602">
        <ele>248.64</ele>
        <time>2013-05-19T11:52:32Z</time>
      </trkpt>
      <trkpt lat="43.43197" lon="1.15903">
        <ele>250.56</ele>
        <time>2013-05-19T11:52:37Z</time>
      </trkpt>
      <trkpt lat="43.43131" lon="1.15786">
        <ele>245.27</ele>
        <time>2013-05-19T11:52:42Z</time>
      </trkpt>
      <trkpt lat="43.43067" lon="1.15675">
        <ele>252</ele>
        <time>2013-05-19T11:52:47Z</time>
      </trkpt>
      <trkpt lat="43.43001" lon="1.1556">
        <ele>251.52</ele>
        <time>2013-05-19T11:52:52Z</time>
      </trkpt>
      <trkpt lat="43.42933" lon="1.15439">
        <ele>246.72</ele>
        <time>2013-05-19T11:52:57Z</time>
      </trkpt>
      <trkpt lat="43.42866" lon="1.15322">
        <ele>255.37</ele>
        <time>2013-05-19T11:53:02Z</time>
      </trkpt>
      <trkpt lat="43.42799" lon="1.15207">
        <ele>253.93</ele>
        <time>2013-05-19T11:53:07Z</time>
      </trkpt>
      <trkpt lat="43.42733" lon="1.15091">
        <ele>253.93</ele>
        <time>2013-05-19T11:53:12Z</time>
      </trkpt>
      <trkpt lat="43.42665" lon="1.14972">
        <ele>255.37</ele>
        <time>2013-05-19T11:53:17Z</time>
      </trkpt>
      <trkpt lat="43.42597" lon="1.14854">
        <ele>251.04</ele>
        <time>2013-05-19T11:53:22Z</time>
      </trkpt>
      <trkpt lat="43.42531" lon="1.14739">
        <ele>253.93</ele>
        <time>2013-05-19T11:53:27Z</time>
      </trkpt>
      <trkpt lat="43.42467" lon="1.14627">
        <ele>252</ele>
        <time>2013-05-19T11:53:32Z</time>
      </trkpt>
      <trkpt lat="43.42403" lon="1.14514">
        <ele>250.08</ele>
        <time>2013-05-19T11:53:37Z</time>
      </trkpt>
      <trkpt lat="43.42347" lon="1.14417">
        <ele>249.12</ele>
        <time>2013-05-19T11:53:41Z</time>
      </trkpt>
      <trkpt lat="43.42292" lon="1.14319">
        <ele>252.96</ele>
        <time>2013-05-19T11:53:45Z</time>
      </trkpt>
      <trkpt lat="43.4223" lon="1.14212">
        <ele>252.96</ele>
        <time>2013-05-19T11:53:50Z</time>
      </trkpt>
      <trkpt lat="43.42165" lon="1.14097">
        <ele>252.96</ele>
        <time>2013-05-19T11:53:55Z</time>
      </trkpt>
      <trkpt lat="43.42099" lon="1.13982">
        <ele>258.73</ele>
        <time>2013-05-19T11:54:00Z</time>
      </trkpt>
      <trkpt lat="43.42036" lon="1.13872">
        <ele>259.21</ele>
        <time>2013-05-19T11:54:05Z</time>
      </trkpt>
      <trkpt lat="43.41974" lon="1.13764">
        <ele>258.73</ele>
        <time>2013-05-19T11:54:10Z</time>
      </trkpt>
      <trkpt lat="43.41912" lon="1.13656">
        <ele>254.41</ele>
        <time>2013-05-19T11:54:15Z</time>
      </trkpt>
      <trkpt lat="43.41846" lon="1.13539">
        <ele>248.64</ele>
        <time>2013-05-19T11:54:20Z</time>
      </trkpt>
      <trkpt lat="43.41788" lon="1.1344">
        <ele>246.23</ele>
        <time>2013-05-19T11:54:24Z</time>
      </trkpt>
      <trkpt lat="43.41721" lon="1.13321">
        <ele>252</ele>
        <time>2013-05-19T11:54:29Z</time>
      </trkpt>
      <trkpt lat="43.41656" lon="1.13209">
        <ele>255.85</ele>
        <time>2013-05-19T11:54:34Z</time>
      </trkpt>
      <trkpt lat="43.41592" lon="1.13096">
        <ele>260.65</ele>
        <time>2013-05-19T11:54:39Z</time>
      </trkpt>
      <trkpt lat="43.41527" lon="1.12983">
        <ele>261.62</ele>
        <time>2013-05-19T11:54:44Z</time>
      </trkpt>
      <trkpt lat="43.4147" lon="1.12881">
        <ele>259.21</ele>
        <time>2013-05-19T11:54:49Z</time>
      </trkpt>
      <trkpt lat="43.41408" lon="1.12772">
        <ele>263.06</ele>
        <time>2013-05-19T11:54:56Z</time>
      </trkpt>
      <trkpt lat="43.4135" lon="1.12668">
        <ele>267.38</ele>
        <time>2013-05-19T11:55:04Z</time>
      </trkpt>
      <trkpt lat="43.41298" lon="1.12568">
        <ele>275.07</ele>
        <time>2013-05-19T11:55:15Z</time>
      </trkpt>
      <trkpt lat="43.41277" lon="1.12435">
        <ele>283.25</ele>
        <time>2013-05-19T11:55:23Z</time>
      </trkpt>
      <trkpt lat="43.41261" lon="1.12305">
        <ele>292.86</ele>
        <time>2013-05-19T11:55:33Z</time>
      </trkpt>
      <trkpt lat="43.41252" lon="1.12179">
        <ele>293.34</ele>
        <time>2013-05-19T11:55:47Z</time>
      </trkpt>
      <trkpt lat="43.41255" lon="1.12048">
        <ele>295.26</ele>
        <time>2013-05-19T11:56:01Z</time>
      </trkpt>
      <trkpt lat="43.4124" lon="1.11926">
        <ele>295.74</ele>
        <time>2013-05-19T11:56:22Z</time>
      </trkpt>
      <trkpt lat="43.41225" lon="1.11835">
        <ele>292.38</ele>
        <time>2013-05-19T12:06:07Z</time>
      </trkpt>
      <trkpt lat="43.41229" lon="1.11822">
        <ele>292.86</ele>
        <time>2013-05-19T12:08:26Z</time>
      </trkpt>
      <trkpt lat="43.41198" lon="1.11716">
        <ele>295.26</ele>
        <time>2013-05-19T12:09:43Z</time>
      </trkpt>
      <trkpt lat="43.41163" lon="1.11588">
        <ele>294.78</ele>
        <time>2013-05-19T12:09:51Z</time>
      </trkpt>
      <trkpt lat="43.4113" lon="1.11471">
        <ele>295.74</ele>
        <time>2013-05-19T12:10:01Z</time>
      </trkpt>
      <trkpt lat="43.41095" lon="1.11343">
        <ele>295.74</ele>
        <time>2013-05-19T12:10:11Z</time>
      </trkpt>
      <trkpt lat="43.41062" lon="1.11221">
        <ele>296.7</ele>
        <time>2013-05-19T12:10:21Z</time>
      </trkpt>
      <trkpt lat="43.41028" lon="1.11103">
        <ele>296.7</ele>
        <time>2013-05-19T12:10:31Z</time>
      </trkpt>
      <trkpt lat="43.40993" lon="1.10972">
        <ele>298.63</ele>
        <time>2013-05-19T12:10:40Z</time>
      </trkpt>
      <trkpt lat="43.40957" lon="1.10845">
        <ele>300.55</ele>
        <time>2013-05-19T12:10:50Z</time>
      </trkpt>
      <trkpt lat="43.40918" lon="1.10711">
        <ele>300.55</ele>
        <time>2013-05-19T12:10:56Z</time>
      </trkpt>
      <trkpt lat="43.40872" lon="1.10578">
        <ele>301.51</ele>
        <time>2013-05-19T12:11:02Z</time>
      </trkpt>
      <trkpt lat="43.40832" lon="1.10462">
        <ele>301.03</ele>
        <time>2013-05-19T12:11:08Z</time>
      </trkpt>
      <trkpt lat="43.40789" lon="1.10336">
        <ele>301.99</ele>
        <time>2013-05-19T12:11:14Z</time>
      </trkpt>
      <trkpt lat="43.40747" lon="1.10213">
        <ele>303.91</ele>
        <time>2013-05-19T12:11:20Z</time>
      </trkpt>
      <trkpt lat="43.40702" lon="1.10082">
        <ele>303.43</ele>
        <time>2013-05-19T12:11:26Z</time>
      </trkpt>
      <trkpt lat="43.4066" lon="1.09962">
        <ele>304.39</ele>
        <time>2013-05-19T12:11:32Z</time>
      </trkpt>
      <trkpt lat="43.40619" lon="1.09843">
        <ele>304.39</ele>
        <time>2013-05-19T12:11:38Z</time>
      </trkpt>
      <trkpt lat="43.40573" lon="1.0971">
        <ele>303.91</ele>
        <time>2013-05-19T12:11:44Z</time>
      </trkpt>
      <trkpt lat="43.4053" lon="1.09585">
        <ele>311.12</ele>
        <time>2013-05-19T12:11:49Z</time>
      </trkpt>
      <trkpt lat="43.405" lon="1.0947">
        <ele>316.41</ele>
        <time>2013-05-19T12:11:55Z</time>
      </trkpt>
      <trkpt lat="43.40488" lon="1.09328">
        <ele>323.14</ele>
        <time>2013-05-19T12:12:00Z</time>
      </trkpt>
      <trkpt lat="43.40479" lon="1.09198">
        <ele>328.43</ele>
        <time>2013-05-19T12:12:05Z</time>
      </trkpt>
      <trkpt lat="43.40468" lon="1.09067">
        <ele>325.06</ele>
        <time>2013-05-19T12:12:10Z</time>
      </trkpt>
      <trkpt lat="43.40443" lon="1.08931">
        <ele>325.06</ele>
        <time>2013-05-19T12:12:15Z</time>
      </trkpt>
      <trkpt lat="43.40415" lon="1.088">
        <ele>322.66</ele>
        <time>2013-05-19T12:12:20Z</time>
      </trkpt>
      <trkpt lat="43.40389" lon="1.08679">
        <ele>324.1</ele>
        <time>2013-05-19T12:12:25Z</time>
      </trkpt>
      <trkpt lat="43.40365" lon="1.08536">
        <ele>324.58</ele>
        <time>2013-05-19T12:12:31Z</time>
      </trkpt>
      <trkpt lat="43.40364" lon="1.084">
        <ele>323.62</ele>
        <time>2013-05-19T12:12:36Z</time>
      </trkpt>
      <trkpt lat="43.4037" lon="1.08263">
        <ele>322.66</ele>
        <time>2013-05-19T12:12:41Z</time>
      </trkpt>
      <trkpt lat="43.40384" lon="1.08141">
        <ele>321.22</ele>
        <time>2013-05-19T12:12:46Z</time>
      </trkpt>
      <trkpt lat="43.40403" lon="1.08002">
        <ele>316.41</ele>
        <time>2013-05-19T12:12:52Z</time>
      </trkpt>
      <trkpt lat="43.40394" lon="1.07877">
        <ele>312.57</ele>
        <time>2013-05-19T12:12:57Z</time>
      </trkpt>
      <trkpt lat="43.40368" lon="1.07749">
        <ele>306.8</ele>
        <time>2013-05-19T12:13:04Z</time>
      </trkpt>
      <trkpt lat="43.40375" lon="1.07608">
        <ele>302.47</ele>
        <time>2013-05-19T12:13:11Z</time>
      </trkpt>
      <trkpt lat="43.4035" lon="1.07469">
        <ele>313.05</ele>
        <time>2013-05-19T12:13:16Z</time>
      </trkpt>
      <trkpt lat="43.40343" lon="1.07343">
        <ele>318.33</ele>
        <time>2013-05-19T12:13:22Z</time>
      </trkpt>
      <trkpt lat="43.4034" lon="1.07213">
        <ele>326.99</ele>
        <time>2013-05-19T12:13:30Z</time>
      </trkpt>
      <trkpt lat="43.40384" lon="1.07105">
        <ele>331.79</ele>
        <time>2013-05-19T12:13:35Z</time>
      </trkpt>
      <trkpt lat="43.40405" lon="1.06977">
        <ele>335.16</ele>
        <time>2013-05-19T12:13:40Z</time>
      </trkpt>
      <trkpt lat="43.40411" lon="1.06843">
        <ele>337.56</ele>
        <time>2013-05-19T12:13:45Z</time>
      </trkpt>
      <trkpt lat="43.40418" lon="1.06712">
        <ele>336.6</ele>
        <time>2013-05-19T12:13:50Z</time>
      </trkpt>
      <trkpt lat="43.40424" lon="1.06579">
        <ele>337.56</ele>
        <time>2013-05-19T12:13:55Z</time>
      </trkpt>
      <trkpt lat="43.40422" lon="1.06429">
        <ele>340.92</ele>
        <time>2013-05-19T12:14:00Z</time>
      </trkpt>
      <trkpt lat="43.40417" lon="1.06283">
        <ele>344.77</ele>
        <time>2013-05-19T12:14:05Z</time>
      </trkpt>
      <trkpt lat="43.40413" lon="1.06145">
        <ele>347.17</ele>
        <time>2013-05-19T12:14:10Z</time>
      </trkpt>
      <trkpt lat="43.40418" lon="1.06018">
        <ele>344.29</ele>
        <time>2013-05-19T12:14:15Z</time>
      </trkpt>
      <trkpt lat="43.4044" lon="1.05893">
        <ele>347.65</ele>
        <time>2013-05-19T12:14:20Z</time>
      </trkpt>
      <trkpt lat="43.40464" lon="1.05755">
        <ele>346.21</ele>
        <time>2013-05-19T12:14:26Z</time>
      </trkpt>
      <trkpt lat="43.40487" lon="1.05624">
        <ele>346.69</ele>
        <time>2013-05-19T12:14:32Z</time>
      </trkpt>
      <trkpt lat="43.40509" lon="1.05487">
        <ele>351.02</ele>
        <time>2013-05-19T12:14:38Z</time>
      </trkpt>
      <trkpt lat="43.40543" lon="1.05351">
        <ele>352.94</ele>
        <time>2013-05-19T12:14:44Z</time>
      </trkpt>
      <trkpt lat="43.40595" lon="1.05226">
        <ele>349.1</ele>
        <time>2013-05-19T12:14:49Z</time>
      </trkpt>
      <trkpt lat="43.40643" lon="1.05111">
        <ele>346.69</ele>
        <time>2013-05-19T12:14:54Z</time>
      </trkpt>
      <trkpt lat="43.40662" lon="1.04972">
        <ele>345.73</ele>
        <time>2013-05-19T12:15:00Z</time>
      </trkpt>
      <trkpt lat="43.40642" lon="1.04844">
        <ele>339</ele>
        <time>2013-05-19T12:15:05Z</time>
      </trkpt>
      <trkpt lat="43.40631" lon="1.04703">
        <ele>339</ele>
        <time>2013-05-19T12:15:10Z</time>
      </trkpt>
      <trkpt lat="43.40623" lon="1.04558">
        <ele>340.92</ele>
        <time>2013-05-19T12:15:16Z</time>
      </trkpt>
      <trkpt lat="43.40636" lon="1.04433">
        <ele>343.33</ele>
        <time>2013-05-19T12:15:21Z</time>
      </trkpt>
      <trkpt lat="43.40652" lon="1.04308">
        <ele>339.48</ele>
        <time>2013-05-19T12:15:26Z</time>
      </trkpt>
      <trkpt lat="43.40664" lon="1.04179">
        <ele>334.2</ele>
        <time>2013-05-19T12:15:32Z</time>
      </trkpt>
      <trkpt lat="43.40627" lon="1.04067">
        <ele>330.35</ele>
        <time>2013-05-19T12:15:38Z</time>
      </trkpt>
      <trkpt lat="43.4053" lon="1.04034">
        <ele>322.66</ele>
        <time>2013-05-19T12:15:45Z</time>
      </trkpt>
      <trkpt lat="43.40446" lon="1.03981">
        <ele>314.01</ele>
        <time>2013-05-19T12:15:51Z</time>
      </trkpt>
      <trkpt lat="43.40384" lon="1.03869">
        <ele>310.64</ele>
        <time>2013-05-19T12:15:56Z</time>
      </trkpt>
      <trkpt lat="43.40332" lon="1.03758">
        <ele>307.76</ele>
        <time>2013-05-19T12:16:00Z</time>
      </trkpt>
      <trkpt lat="43.40282" lon="1.03654">
        <ele>303.91</ele>
        <time>2013-05-19T12:16:05Z</time>
      </trkpt>
      <trkpt lat="43.40198" lon="1.03586">
        <ele>312.09</ele>
        <time>2013-05-19T12:16:11Z</time>
      </trkpt>
      <trkpt lat="43.4013" lon="1.03513">
        <ele>318.81</ele>
        <time>2013-05-19T12:16:18Z</time>
      </trkpt>
      <trkpt lat="43.40071" lon="1.0345">
        <ele>317.37</ele>
        <time>2013-05-19T12:16:27Z</time>
      </trkpt>
      <trkpt lat="43.40002" lon="1.03371">
        <ele>309.68</ele>
        <time>2013-05-19T12:16:34Z</time>
      </trkpt>
      <trkpt lat="43.39978" lon="1.03245">
        <ele>302.95</ele>
        <time>2013-05-19T12:16:39Z</time>
      </trkpt>
      <trkpt lat="43.39923" lon="1.0312">
        <ele>305.36</ele>
        <time>2013-05-19T12:16:44Z</time>
      </trkpt>
      <trkpt lat="43.39869" lon="1.03">
        <ele>306.32</ele>
        <time>2013-05-19T12:16:49Z</time>
      </trkpt>
      <trkpt lat="43.39818" lon="1.02896">
        <ele>304.88</ele>
        <time>2013-05-19T12:16:54Z</time>
      </trkpt>
      <trkpt lat="43.39758" lon="1.02796">
        <ele>312.57</ele>
        <time>2013-05-19T12:16:59Z</time>
      </trkpt>
      <trkpt lat="43.39687" lon="1.027">
        <ele>311.12</ele>
        <time>2013-05-19T12:17:04Z</time>
      </trkpt>
      <trkpt lat="43.39602" lon="1.02613">
        <ele>315.45</ele>
        <time>2013-05-19T12:17:09Z</time>
      </trkpt>
      <trkpt lat="43.39528" lon="1.02514">
        <ele>318.81</ele>
        <time>2013-05-19T12:17:14Z</time>
      </trkpt>
      <trkpt lat="43.39465" lon="1.024">
        <ele>326.99</ele>
        <time>2013-05-19T12:17:20Z</time>
      </trkpt>
      <trkpt lat="43.39433" lon="1.02265">
        <ele>328.91</ele>
        <time>2013-05-19T12:17:26Z</time>
      </trkpt>
      <trkpt lat="43.39358" lon="1.02193">
        <ele>337.08</ele>
        <time>2013-05-19T12:17:32Z</time>
      </trkpt>
      <trkpt lat="43.39263" lon="1.02191">
        <ele>339.48</ele>
        <time>2013-05-19T12:17:39Z</time>
      </trkpt>
      <trkpt lat="43.39174" lon="1.02203">
        <ele>342.85</ele>
        <time>2013-05-19T12:17:46Z</time>
      </trkpt>
      <trkpt lat="43.39088" lon="1.02234">
        <ele>345.73</ele>
        <time>2013-05-19T12:17:52Z</time>
      </trkpt>
      <trkpt lat="43.38994" lon="1.02221">
        <ele>338.52</ele>
        <time>2013-05-19T12:17:58Z</time>
      </trkpt>
      <trkpt lat="43.38898" lon="1.02229">
        <ele>334.68</ele>
        <time>2013-05-19T12:18:04Z</time>
      </trkpt>
      <trkpt lat="43.38805" lon="1.02195">
        <ele>327.47</ele>
        <time>2013-05-19T12:18:10Z</time>
      </trkpt>
      <trkpt lat="43.38711" lon="1.02194">
        <ele>325.54</ele>
        <time>2013-05-19T12:18:16Z</time>
      </trkpt>
      <trkpt lat="43.3866" lon="1.02081">
        <ele>329.87</ele>
        <time>2013-05-19T12:18:22Z</time>
      </trkpt>
      <trkpt lat="43.38621" lon="1.0196">
        <ele>334.68</ele>
        <time>2013-05-19T12:18:28Z</time>
      </trkpt>
      <trkpt lat="43.38593" lon="1.01838">
        <ele>339.48</ele>
        <time>2013-05-19T12:18:36Z</time>
      </trkpt>
      <trkpt lat="43.38627" lon="1.01728">
        <ele>344.29</ele>
        <time>2013-05-19T12:18:43Z</time>
      </trkpt>
      <trkpt lat="43.38647" lon="1.01597">
        <ele>341.89</ele>
        <time>2013-05-19T12:18:50Z</time>
      </trkpt>
      <trkpt lat="43.38584" lon="1.01539">
        <ele>339.96</ele>
        <time>2013-05-19T12:18:59Z</time>
      </trkpt>
      <trkpt lat="43.38518" lon="1.01451">
        <ele>340.44</ele>
        <time>2013-05-19T12:19:05Z</time>
      </trkpt>
      <trkpt lat="43.38424" lon="1.01394">
        <ele>348.13</ele>
        <time>2013-05-19T12:19:11Z</time>
      </trkpt>
      <trkpt lat="43.38343" lon="1.01328">
        <ele>342.85</ele>
        <time>2013-05-19T12:19:17Z</time>
      </trkpt>
      <trkpt lat="43.38265" lon="1.0123">
        <ele>339</ele>
        <time>2013-05-19T12:19:23Z</time>
      </trkpt>
      <trkpt lat="43.38197" lon="1.01129">
        <ele>331.79</ele>
        <time>2013-05-19T12:19:28Z</time>
      </trkpt>
      <trkpt lat="43.3812" lon="1.01031">
        <ele>337.08</ele>
        <time>2013-05-19T12:19:34Z</time>
      </trkpt>
      <trkpt lat="43.38048" lon="1.00942">
        <ele>342.85</ele>
        <time>2013-05-19T12:19:39Z</time>
      </trkpt>
      <trkpt lat="43.37977" lon="1.00849">
        <ele>348.62</ele>
        <time>2013-05-19T12:19:45Z</time>
      </trkpt>
      <trkpt lat="43.37954" lon="1.00724">
        <ele>354.86</ele>
        <time>2013-05-19T12:19:52Z</time>
      </trkpt>
      <trkpt lat="43.3798" lon="1.00596">
        <ele>359.67</ele>
        <time>2013-05-19T12:19:58Z</time>
      </trkpt>
      <trkpt lat="43.38023" lon="1.00474">
        <ele>356.79</ele>
        <time>2013-05-19T12:20:04Z</time>
      </trkpt>
      <trkpt lat="43.38069" lon="1.00358">
        <ele>357.27</ele>
        <time>2013-05-19T12:20:09Z</time>
      </trkpt>
      <trkpt lat="43.38102" lon="1.00232">
        <ele>351.98</ele>
        <time>2013-05-19T12:20:15Z</time>
      </trkpt>
      <trkpt lat="43.38078" lon="1.00096">
        <ele>345.73</ele>
        <time>2013-05-19T12:20:21Z</time>
      </trkpt>
      <trkpt lat="43.38045" lon="0.99984">
        <ele>341.89</ele>
        <time>2013-05-19T12:20:27Z</time>
      </trkpt>
      <trkpt lat="43.37963" lon="0.99916">
        <ele>339</ele>
        <time>2013-05-19T12:20:33Z</time>
      </trkpt>
      <trkpt lat="43.37859" lon="0.99895">
        <ele>329.87</ele>
        <time>2013-05-19T12:20:39Z</time>
      </trkpt>
      <trkpt lat="43.37764" lon="0.99897">
        <ele>327.47</ele>
        <time>2013-05-19T12:20:45Z</time>
      </trkpt>
      <trkpt lat="43.37672" lon="0.99962">
        <ele>332.27</ele>
        <time>2013-05-19T12:20:50Z</time>
      </trkpt>
      <trkpt lat="43.37581" lon="1.00011">
        <ele>328.91</ele>
        <time>2013-05-19T12:20:56Z</time>
      </trkpt>
      <trkpt lat="43.37491" lon="0.99956">
        <ele>328.43</ele>
        <time>2013-05-19T12:21:03Z</time>
      </trkpt>
      <trkpt lat="43.37478" lon="0.99833">
        <ele>330.83</ele>
        <time>2013-05-19T12:21:11Z</time>
      </trkpt>
      <trkpt lat="43.37385" lon="0.99847">
        <ele>338.04</ele>
        <time>2013-05-19T12:21:19Z</time>
      </trkpt>
      <trkpt lat="43.37364" lon="0.99727">
        <ele>339.48</ele>
        <time>2013-05-19T12:21:24Z</time>
      </trkpt>
      <trkpt lat="43.37352" lon="0.99597">
        <ele>347.65</ele>
        <time>2013-05-19T12:21:29Z</time>
      </trkpt>
      <trkpt lat="43.37337" lon="0.99464">
        <ele>347.17</ele>
        <time>2013-05-19T12:21:35Z</time>
      </trkpt>
      <trkpt lat="43.37328" lon="0.99326">
        <ele>345.25</ele>
        <time>2013-05-19T12:21:42Z</time>
      </trkpt>
      <trkpt lat="43.37267" lon="0.99226">
        <ele>339.96</ele>
        <time>2013-05-19T12:21:50Z</time>
      </trkpt>
      <trkpt lat="43.3718" lon="0.99183">
        <ele>340.92</ele>
        <time>2013-05-19T12:21:56Z</time>
      </trkpt>
      <trkpt lat="43.37156" lon="0.99049">
        <ele>341.89</ele>
        <time>2013-05-19T12:22:03Z</time>
      </trkpt>
      <trkpt lat="43.37169" lon="0.9892">
        <ele>343.81</ele>
        <time>2013-05-19T12:22:08Z</time>
      </trkpt>
      <trkpt lat="43.37184" lon="0.98795">
        <ele>347.17</ele>
        <time>2013-05-19T12:22:14Z</time>
      </trkpt>
      <trkpt lat="43.37188" lon="0.98659">
        <ele>345.73</ele>
        <time>2013-05-19T12:22:20Z</time>
      </trkpt>
      <trkpt lat="43.37148" lon="0.98538">
        <ele>343.33</ele>
        <time>2013-05-19T12:22:26Z</time>
      </trkpt>
      <trkpt lat="43.37126" lon="0.98398">
        <ele>342.37</ele>
        <time>2013-05-19T12:22:31Z</time>
      </trkpt>
      <trkpt lat="43.37103" lon="0.9826">
        <ele>342.85</ele>
        <time>2013-05-19T12:22:36Z</time>
      </trkpt>
      <trkpt lat="43.37079" lon="0.98121">
        <ele>343.81</ele>
        <time>2013-05-19T12:22:42Z</time>
      </trkpt>
      <trkpt lat="43.37043" lon="0.97997">
        <ele>340.44</ele>
        <time>2013-05-19T12:22:49Z</time>
      </trkpt>
      <trkpt lat="43.36978" lon="0.9792">
        <ele>342.37</ele>
        <time>2013-05-19T12:22:56Z</time>
      </trkpt>
      <trkpt lat="43.37" lon="0.97785">
        <ele>339</ele>
        <time>2013-05-19T12:23:02Z</time>
      </trkpt>
      <trkpt lat="43.36968" lon="0.97646">
        <ele>333.71</ele>
        <time>2013-05-19T12:23:09Z</time>
      </trkpt>
      <trkpt lat="43.36925" lon="0.97535">
        <ele>334.2</ele>
        <time>2013-05-19T12:23:14Z</time>
      </trkpt>
      <trkpt lat="43.36901" lon="0.97407">
        <ele>332.27</ele>
        <time>2013-05-19T12:23:19Z</time>
      </trkpt>
      <trkpt lat="43.36881" lon="0.97281">
        <ele>332.27</ele>
        <time>2013-05-19T12:23:24Z</time>
      </trkpt>
      <trkpt lat="43.36833" lon="0.97162">
        <ele>334.68</ele>
        <time>2013-05-19T12:23:31Z</time>
      </trkpt>
      <trkpt lat="43.36794" lon="0.97055">
        <ele>340.44</ele>
        <time>2013-05-19T12:23:38Z</time>
      </trkpt>
      <trkpt lat="43.36848" lon="0.96935">
        <ele>344.29</ele>
        <time>2013-05-19T12:23:45Z</time>
      </trkpt>
      <trkpt lat="43.36906" lon="0.96829">
        <ele>352.94</ele>
        <time>2013-05-19T12:23:51Z</time>
      </trkpt>
      <trkpt lat="43.3699" lon="0.96765">
        <ele>347.17</ele>
        <time>2013-05-19T12:23:57Z</time>
      </trkpt>
      <trkpt lat="43.37078" lon="0.96697">
        <ele>348.62</ele>
        <time>2013-05-19T12:24:03Z</time>
      </trkpt>
      <trkpt lat="43.37146" lon="0.96599">
        <ele>345.25</ele>
        <time>2013-05-19T12:24:09Z</time>
      </trkpt>
      <trkpt lat="43.37206" lon="0.96494">
        <ele>345.25</ele>
        <time>2013-05-19T12:24:16Z</time>
      </trkpt>
      <trkpt lat="43.37282" lon="0.96403">
        <ele>344.77</ele>
        <time>2013-05-19T12:24:23Z</time>
      </trkpt>
      <trkpt lat="43.37271" lon="0.96282">
        <ele>344.77</ele>
        <time>2013-05-19T12:24:31Z</time>
      </trkpt>
      <trkpt lat="43.37198" lon="0.96191">
        <ele>348.62</ele>
        <time>2013-05-19T12:24:38Z</time>
      </trkpt>
      <trkpt lat="43.37235" lon="0.96068">
        <ele>346.21</ele>
        <time>2013-05-19T12:24:44Z</time>
      </trkpt>
      <trkpt lat="43.37236" lon="0.95931">
        <ele>344.29</ele>
        <time>2013-05-19T12:24:51Z</time>
      </trkpt>
      <trkpt lat="43.37193" lon="0.95816">
        <ele>347.17</ele>
        <time>2013-05-19T12:25:00Z</time>
      </trkpt>
      <trkpt lat="43.37163" lon="0.95684">
        <ele>348.62</ele>
        <time>2013-05-19T12:25:12Z</time>
      </trkpt>
      <trkpt lat="43.37209" lon="0.95561">
        <ele>346.69</ele>
        <time>2013-05-19T12:25:19Z</time>
      </trkpt>
      <trkpt lat="43.37227" lon="0.95424">
        <ele>344.29</ele>
        <time>2013-05-19T12:25:26Z</time>
      </trkpt>
      <trkpt lat="43.37231" lon="0.95285">
        <ele>341.89</ele>
        <time>2013-05-19T12:25:33Z</time>
      </trkpt>
      <trkpt lat="43.37187" lon="0.95189">
        <ele>338.52</ele>
        <time>2013-05-19T12:25:41Z</time>
      </trkpt>
      <trkpt lat="43.37099" lon="0.95223">
        <ele>339.96</ele>
        <time>2013-05-19T12:25:47Z</time>
      </trkpt>
      <trkpt lat="43.37007" lon="0.95214">
        <ele>337.56</ele>
        <time>2013-05-19T12:25:54Z</time>
      </trkpt>
      <trkpt lat="43.36933" lon="0.95125">
        <ele>334.68</ele>
        <time>2013-05-19T12:26:01Z</time>
      </trkpt>
      <trkpt lat="43.36881" lon="0.95003">
        <ele>333.23</ele>
        <time>2013-05-19T12:26:07Z</time>
      </trkpt>
      <trkpt lat="43.36808" lon="0.94893">
        <ele>328.91</ele>
        <time>2013-05-19T12:26:13Z</time>
      </trkpt>
      <trkpt lat="43.36726" lon="0.94813">
        <ele>329.87</ele>
        <time>2013-05-19T12:26:18Z</time>
      </trkpt>
      <trkpt lat="43.36656" lon="0.94735">
        <ele>333.23</ele>
        <time>2013-05-19T12:26:24Z</time>
      </trkpt>
      <trkpt lat="43.36656" lon="0.94611">
        <ele>334.2</ele>
        <time>2013-05-19T12:26:30Z</time>
      </trkpt>
      <trkpt lat="43.36694" lon="0.94485">
        <ele>334.68</ele>
        <time>2013-05-19T12:26:35Z</time>
      </trkpt>
      <trkpt lat="43.36732" lon="0.94349">
        <ele>335.16</ele>
        <time>2013-05-19T12:26:41Z</time>
      </trkpt>
      <trkpt lat="43.367" lon="0.94233">
        <ele>334.68</ele>
        <time>2013-05-19T12:26:47Z</time>
      </trkpt>
      <trkpt lat="43.36616" lon="0.94181">
        <ele>335.16</ele>
        <time>2013-05-19T12:26:53Z</time>
      </trkpt>
      <trkpt lat="43.36543" lon="0.94103">
        <ele>337.56</ele>
        <time>2013-05-19T12:26:58Z</time>
      </trkpt>
      <trkpt lat="43.36462" lon="0.94017">
        <ele>332.27</ele>
        <time>2013-05-19T12:27:05Z</time>
      </trkpt>
      <trkpt lat="43.36375" lon="0.93976">
        <ele>339.48</ele>
        <time>2013-05-19T12:27:12Z</time>
      </trkpt>
      <trkpt lat="43.36354" lon="0.93849">
        <ele>344.77</ele>
        <time>2013-05-19T12:27:17Z</time>
      </trkpt>
      <trkpt lat="43.3635" lon="0.93719">
        <ele>348.13</ele>
        <time>2013-05-19T12:27:23Z</time>
      </trkpt>
      <trkpt lat="43.36283" lon="0.93632">
        <ele>343.81</ele>
        <time>2013-05-19T12:27:31Z</time>
      </trkpt>
      <trkpt lat="43.36191" lon="0.93595">
        <ele>337.56</ele>
        <time>2013-05-19T12:27:36Z</time>
      </trkpt>
      <trkpt lat="43.36104" lon="0.93542">
        <ele>336.12</ele>
        <time>2013-05-19T12:27:42Z</time>
      </trkpt>
      <trkpt lat="43.36054" lon="0.93433">
        <ele>340.92</ele>
        <time>2013-05-19T12:27:47Z</time>
      </trkpt>
      <trkpt lat="43.36006" lon="0.93315">
        <ele>344.29</ele>
        <time>2013-05-19T12:27:52Z</time>
      </trkpt>
      <trkpt lat="43.35961" lon="0.932">
        <ele>347.17</ele>
        <time>2013-05-19T12:27:58Z</time>
      </trkpt>
      <trkpt lat="43.35961" lon="0.93072">
        <ele>349.1</ele>
        <time>2013-05-19T12:28:04Z</time>
      </trkpt>
      <trkpt lat="43.35992" lon="0.92946">
        <ele>343.33</ele>
        <time>2013-05-19T12:28:09Z</time>
      </trkpt>
      <trkpt lat="43.36021" lon="0.92825">
        <ele>343.81</ele>
        <time>2013-05-19T12:28:15Z</time>
      </trkpt>
      <trkpt lat="43.35967" lon="0.9275">
        <ele>340.44</ele>
        <time>2013-05-19T12:28:23Z</time>
      </trkpt>
      <trkpt lat="43.35884" lon="0.92796">
        <ele>342.37</ele>
        <time>2013-05-19T12:28:28Z</time>
      </trkpt>
      <trkpt lat="43.35784" lon="0.92842">
        <ele>339</ele>
        <time>2013-05-19T12:28:34Z</time>
      </trkpt>
      <trkpt lat="43.35691" lon="0.92867">
        <ele>339.96</ele>
        <time>2013-05-19T12:28:40Z</time>
      </trkpt>
      <trkpt lat="43.3561" lon="0.92891">
        <ele>345.73</ele>
        <time>2013-05-19T12:28:47Z</time>
      </trkpt>
      <trkpt lat="43.35589" lon="0.92775">
        <ele>350.06</ele>
        <time>2013-05-19T12:28:53Z</time>
      </trkpt>
      <trkpt lat="43.3556" lon="0.92661">
        <ele>342.85</ele>
        <time>2013-05-19T12:29:00Z</time>
      </trkpt>
      <trkpt lat="43.35468" lon="0.92607">
        <ele>342.37</ele>
        <time>2013-05-19T12:29:06Z</time>
      </trkpt>
      <trkpt lat="43.35371" lon="0.9255">
        <ele>350.06</ele>
        <time>2013-05-19T12:29:12Z</time>
      </trkpt>
      <trkpt lat="43.35284" lon="0.92497">
        <ele>346.21</ele>
        <time>2013-05-19T12:29:18Z</time>
      </trkpt>
      <trkpt lat="43.35218" lon="0.92406">
        <ele>353.9</ele>
        <time>2013-05-19T12:29:24Z</time>
      </trkpt>
      <trkpt lat="43.35167" lon="0.92296">
        <ele>351.02</ele>
        <time>2013-05-19T12:29:31Z</time>
      </trkpt>
      <trkpt lat="43.35119" lon="0.92186">
        <ele>351.5</ele>
        <time>2013-05-19T12:29:38Z</time>
      </trkpt>
      <trkpt lat="43.35119" lon="0.92048">
        <ele>344.77</ele>
        <time>2013-05-19T12:29:43Z</time>
      </trkpt>
      <trkpt lat="43.35111" lon="0.9192">
        <ele>337.08</ele>
        <time>2013-05-19T12:29:49Z</time>
      </trkpt>
      <trkpt lat="43.35055" lon="0.91805">
        <ele>330.83</ele>
        <time>2013-05-19T12:29:56Z</time>
      </trkpt>
      <trkpt lat="43.34965" lon="0.91785">
        <ele>330.35</ele>
        <time>2013-05-19T12:30:02Z</time>
      </trkpt>
      <trkpt lat="43.34884" lon="0.91859">
        <ele>332.75</ele>
        <time>2013-05-19T12:30:09Z</time>
      </trkpt>
      <trkpt lat="43.34802" lon="0.91797">
        <ele>339.96</ele>
        <time>2013-05-19T12:30:16Z</time>
      </trkpt>
      <trkpt lat="43.34773" lon="0.91672">
        <ele>343.33</ele>
        <time>2013-05-19T12:30:22Z</time>
      </trkpt>
      <trkpt lat="43.34718" lon="0.91576">
        <ele>339.48</ele>
        <time>2013-05-19T12:30:29Z</time>
      </trkpt>
      <trkpt lat="43.34647" lon="0.91487">
        <ele>346.69</ele>
        <time>2013-05-19T12:30:36Z</time>
      </trkpt>
      <trkpt lat="43.34636" lon="0.91341">
        <ele>347.65</ele>
        <time>2013-05-19T12:30:42Z</time>
      </trkpt>
      <trkpt lat="43.34595" lon="0.91234">
        <ele>347.65</ele>
        <time>2013-05-19T12:30:48Z</time>
      </trkpt>
      <trkpt lat="43.3453" lon="0.91144">
        <ele>344.29</ele>
        <time>2013-05-19T12:30:53Z</time>
      </trkpt>
      <trkpt lat="43.34476" lon="0.9102">
        <ele>343.81</ele>
        <time>2013-05-19T12:30:59Z</time>
      </trkpt>
      <trkpt lat="43.34437" lon="0.90898">
        <ele>346.69</ele>
        <time>2013-05-19T12:31:05Z</time>
      </trkpt>
      <trkpt lat="43.3445" lon="0.90767">
        <ele>350.06</ele>
        <time>2013-05-19T12:31:11Z</time>
      </trkpt>
      <trkpt lat="43.34462" lon="0.90632">
        <ele>354.38</ele>
        <time>2013-05-19T12:31:19Z</time>
      </trkpt>
      <trkpt lat="43.34431" lon="0.90516">
        <ele>346.69</ele>
        <time>2013-05-19T12:31:26Z</time>
      </trkpt>
      <trkpt lat="43.34422" lon="0.9039">
        <ele>345.25</ele>
        <time>2013-05-19T12:31:34Z</time>
      </trkpt>
      <trkpt lat="43.34369" lon="0.90303">
        <ele>342.37</ele>
        <time>2013-05-19T12:31:47Z</time>
      </trkpt>
      <trkpt lat="43.34276" lon="0.90267">
        <ele>338.04</ele>
        <time>2013-05-19T12:31:58Z</time>
      </trkpt>
      <trkpt lat="43.34207" lon="0.90189">
        <ele>333.71</ele>
        <time>2013-05-19T12:32:07Z</time>
      </trkpt>
      <trkpt lat="43.34194" lon="0.90061">
        <ele>329.87</ele>
        <time>2013-05-19T12:32:15Z</time>
      </trkpt>
      <trkpt lat="43.34119" lon="0.89978">
        <ele>326.5</ele>
        <time>2013-05-19T12:32:21Z</time>
      </trkpt>
      <trkpt lat="43.34026" lon="0.89913">
        <ele>326.02</ele>
        <time>2013-05-19T12:32:27Z</time>
      </trkpt>
      <trkpt lat="43.33947" lon="0.89828">
        <ele>332.27</ele>
        <time>2013-05-19T12:32:34Z</time>
      </trkpt>
      <trkpt lat="43.33907" lon="0.89713">
        <ele>338.04</ele>
        <time>2013-05-19T12:32:40Z</time>
      </trkpt>
      <trkpt lat="43.33848" lon="0.89615">
        <ele>339.48</ele>
        <time>2013-05-19T12:32:46Z</time>
      </trkpt>
      <trkpt lat="43.33761" lon="0.89563">
        <ele>339</ele>
        <time>2013-05-19T12:32:52Z</time>
      </trkpt>
      <trkpt lat="43.33675" lon="0.89516">
        <ele>339.48</ele>
        <time>2013-05-19T12:32:57Z</time>
      </trkpt>
      <trkpt lat="43.33583" lon="0.89449">
        <ele>333.23</ele>
        <time>2013-05-19T12:33:03Z</time>
      </trkpt>
      <trkpt lat="43.33496" lon="0.89377">
        <ele>339.48</ele>
        <time>2013-05-19T12:33:10Z</time>
      </trkpt>
      <trkpt lat="43.33428" lon="0.89301">
        <ele>334.68</ele>
        <time>2013-05-19T12:33:17Z</time>
      </trkpt>
      <trkpt lat="43.33345" lon="0.8935">
        <ele>338.52</ele>
        <time>2013-05-19T12:33:23Z</time>
      </trkpt>
      <trkpt lat="43.33289" lon="0.89452">
        <ele>346.21</ele>
        <time>2013-05-19T12:33:29Z</time>
      </trkpt>
      <trkpt lat="43.33201" lon="0.89396">
        <ele>350.06</ele>
        <time>2013-05-19T12:33:37Z</time>
      </trkpt>
      <trkpt lat="43.33188" lon="0.89255">
        <ele>345.73</ele>
        <time>2013-05-19T12:33:43Z</time>
      </trkpt>
      <trkpt lat="43.33176" lon="0.89112">
        <ele>342.37</ele>
        <time>2013-05-19T12:33:49Z</time>
      </trkpt>
      <trkpt lat="43.33165" lon="0.88965">
        <ele>338.04</ele>
        <time>2013-05-19T12:33:55Z</time>
      </trkpt>
      <trkpt lat="43.33151" lon="0.88828">
        <ele>336.6</ele>
        <time>2013-05-19T12:34:01Z</time>
      </trkpt>
      <trkpt lat="43.33131" lon="0.88702">
        <ele>330.83</ele>
        <time>2013-05-19T12:34:09Z</time>
      </trkpt>
      <trkpt lat="43.3316" lon="0.88573">
        <ele>328.43</ele>
        <time>2013-05-19T12:34:17Z</time>
      </trkpt>
      <trkpt lat="43.33175" lon="0.88447">
        <ele>320.74</ele>
        <time>2013-05-19T12:34:25Z</time>
      </trkpt>
      <trkpt lat="43.33087" lon="0.88385">
        <ele>321.22</ele>
        <time>2013-05-19T12:34:31Z</time>
      </trkpt>
      <trkpt lat="43.32995" lon="0.88355">
        <ele>326.5</ele>
        <time>2013-05-19T12:34:36Z</time>
      </trkpt>
      <trkpt lat="43.3292" lon="0.88281">
        <ele>330.35</ele>
        <time>2013-05-19T12:34:43Z</time>
      </trkpt>
      <trkpt lat="43.3295" lon="0.8815">
        <ele>330.83</ele>
        <time>2013-05-19T12:34:49Z</time>
      </trkpt>
      <trkpt lat="43.32989" lon="0.88024">
        <ele>329.39</ele>
        <time>2013-05-19T12:34:55Z</time>
      </trkpt>
      <trkpt lat="43.32951" lon="0.87903">
        <ele>328.91</ele>
        <time>2013-05-19T12:35:02Z</time>
      </trkpt>
      <trkpt lat="43.32872" lon="0.8782">
        <ele>327.95</ele>
        <time>2013-05-19T12:35:09Z</time>
      </trkpt>
      <trkpt lat="43.32787" lon="0.8778">
        <ele>331.31</ele>
        <time>2013-05-19T12:35:17Z</time>
      </trkpt>
      <trkpt lat="43.32697" lon="0.87834">
        <ele>333.71</ele>
        <time>2013-05-19T12:35:24Z</time>
      </trkpt>
      <trkpt lat="43.3263" lon="0.87738">
        <ele>332.75</ele>
        <time>2013-05-19T12:35:30Z</time>
      </trkpt>
      <trkpt lat="43.32601" lon="0.87604">
        <ele>329.39</ele>
        <time>2013-05-19T12:35:35Z</time>
      </trkpt>
      <trkpt lat="43.32574" lon="0.87479">
        <ele>329.87</ele>
        <time>2013-05-19T12:35:40Z</time>
      </trkpt>
      <trkpt lat="43.32562" lon="0.87333">
        <ele>331.79</ele>
        <time>2013-05-19T12:35:46Z</time>
      </trkpt>
      <trkpt lat="43.32552" lon="0.8721">
        <ele>328.91</ele>
        <time>2013-05-19T12:35:51Z</time>
      </trkpt>
      <trkpt lat="43.32503" lon="0.871">
        <ele>327.47</ele>
        <time>2013-05-19T12:35:56Z</time>
      </trkpt>
      <trkpt lat="43.3242" lon="0.87033">
        <ele>331.79</ele>
        <time>2013-05-19T12:36:02Z</time>
      </trkpt>
      <trkpt lat="43.32334" lon="0.8706">
        <ele>333.71</ele>
        <time>2013-05-19T12:36:08Z</time>
      </trkpt>
      <trkpt lat="43.32263" lon="0.87142">
        <ele>339.96</ele>
        <time>2013-05-19T12:36:13Z</time>
      </trkpt>
      <trkpt lat="43.3218" lon="0.87144">
        <ele>341.89</ele>
        <time>2013-05-19T12:36:21Z</time>
      </trkpt>
      <trkpt lat="43.32168" lon="0.87017">
        <ele>340.92</ele>
        <time>2013-05-19T12:36:28Z</time>
      </trkpt>
      <trkpt lat="43.32173" lon="0.86878">
        <ele>342.37</ele>
        <time>2013-05-19T12:36:34Z</time>
      </trkpt>
      <trkpt lat="43.32123" lon="0.86773">
        <ele>339.96</ele>
        <time>2013-05-19T12:36:40Z</time>
      </trkpt>
      <trkpt lat="43.32058" lon="0.86682">
        <ele>337.08</ele>
        <time>2013-05-19T12:36:45Z</time>
      </trkpt>
      <trkpt lat="43.3203" lon="0.86553">
        <ele>343.81</ele>
        <time>2013-05-19T12:36:52Z</time>
      </trkpt>
      <trkpt lat="43.32046" lon="0.86414">
        <ele>339.96</ele>
        <time>2013-05-19T12:36:58Z</time>
      </trkpt>
      <trkpt lat="43.32035" lon="0.86289">
        <ele>334.2</ele>
        <time>2013-05-19T12:37:04Z</time>
      </trkpt>
      <trkpt lat="43.31956" lon="0.86214">
        <ele>334.68</ele>
        <time>2013-05-19T12:37:10Z</time>
      </trkpt>
      <trkpt lat="43.31887" lon="0.86129">
        <ele>336.12</ele>
        <time>2013-05-19T12:37:18Z</time>
      </trkpt>
      <trkpt lat="43.3191" lon="0.85954">
        <ele>335.64</ele>
        <time>2013-05-19T12:37:25Z</time>
      </trkpt>
      <trkpt lat="43.31839" lon="0.85867">
        <ele>333.23</ele>
        <time>2013-05-19T12:37:33Z</time>
      </trkpt>
      <trkpt lat="43.31758" lon="0.85835">
        <ele>335.16</ele>
        <time>2013-05-19T12:37:40Z</time>
      </trkpt>
      <trkpt lat="43.31738" lon="0.85705">
        <ele>336.6</ele>
        <time>2013-05-19T12:37:45Z</time>
      </trkpt>
      <trkpt lat="43.31723" lon="0.85568">
        <ele>337.08</ele>
        <time>2013-05-19T12:37:50Z</time>
      </trkpt>
      <trkpt lat="43.31704" lon="0.8544">
        <ele>335.64</ele>
        <time>2013-05-19T12:37:56Z</time>
      </trkpt>
      <trkpt lat="43.31625" lon="0.85363">
        <ele>334.68</ele>
        <time>2013-05-19T12:38:02Z</time>
      </trkpt>
      <trkpt lat="43.31534" lon="0.85339">
        <ele>337.56</ele>
        <time>2013-05-19T12:38:07Z</time>
      </trkpt>
      <trkpt lat="43.31437" lon="0.85334">
        <ele>339.96</ele>
        <time>2013-05-19T12:38:13Z</time>
      </trkpt>
      <trkpt lat="43.31348" lon="0.85325">
        <ele>342.37</ele>
        <time>2013-05-19T12:38:20Z</time>
      </trkpt>
      <trkpt lat="43.31285" lon="0.85218">
        <ele>345.25</ele>
        <time>2013-05-19T12:38:29Z</time>
      </trkpt>
      <trkpt lat="43.3125" lon="0.85101">
        <ele>348.62</ele>
        <time>2013-05-19T12:38:36Z</time>
      </trkpt>
      <trkpt lat="43.31213" lon="0.84972">
        <ele>352.46</ele>
        <time>2013-05-19T12:38:43Z</time>
      </trkpt>
      <trkpt lat="43.31159" lon="0.84875">
        <ele>351.98</ele>
        <time>2013-05-19T12:38:49Z</time>
      </trkpt>
      <trkpt lat="43.31081" lon="0.84802">
        <ele>352.46</ele>
        <time>2013-05-19T12:38:55Z</time>
      </trkpt>
      <trkpt lat="43.3101" lon="0.84706">
        <ele>352.46</ele>
        <time>2013-05-19T12:39:01Z</time>
      </trkpt>
      <trkpt lat="43.30961" lon="0.84595">
        <ele>348.13</ele>
        <time>2013-05-19T12:39:06Z</time>
      </trkpt>
      <trkpt lat="43.30917" lon="0.84478">
        <ele>350.54</ele>
        <time>2013-05-19T12:39:11Z</time>
      </trkpt>
      <trkpt lat="43.30874" lon="0.84366">
        <ele>349.1</ele>
        <time>2013-05-19T12:39:16Z</time>
      </trkpt>
      <trkpt lat="43.30798" lon="0.84266">
        <ele>345.25</ele>
        <time>2013-05-19T12:39:22Z</time>
      </trkpt>
      <trkpt lat="43.30699" lon="0.84242">
        <ele>350.06</ele>
        <time>2013-05-19T12:39:27Z</time>
      </trkpt>
      <trkpt lat="43.30608" lon="0.84228">
        <ele>355.83</ele>
        <time>2013-05-19T12:39:32Z</time>
      </trkpt>
      <trkpt lat="43.30508" lon="0.84203">
        <ele>358.71</ele>
        <time>2013-05-19T12:39:39Z</time>
      </trkpt>
      <trkpt lat="43.30426" lon="0.84114">
        <ele>354.86</ele>
        <time>2013-05-19T12:39:45Z</time>
      </trkpt>
      <trkpt lat="43.30358" lon="0.84024">
        <ele>355.34</ele>
        <time>2013-05-19T12:39:49Z</time>
      </trkpt>
      <trkpt lat="43.30293" lon="0.83937">
        <ele>360.63</ele>
        <time>2013-05-19T12:39:53Z</time>
      </trkpt>
      <trkpt lat="43.30223" lon="0.83846">
        <ele>358.71</ele>
        <time>2013-05-19T12:39:58Z</time>
      </trkpt>
      <trkpt lat="43.30163" lon="0.83752">
        <ele>359.19</ele>
        <time>2013-05-19T12:40:03Z</time>
      </trkpt>
      <trkpt lat="43.3011" lon="0.83627">
        <ele>360.15</ele>
        <time>2013-05-19T12:40:08Z</time>
      </trkpt>
      <trkpt lat="43.30058" lon="0.83507">
        <ele>365.92</ele>
        <time>2013-05-19T12:40:13Z</time>
      </trkpt>
      <trkpt lat="43.30011" lon="0.83399">
        <ele>366.88</ele>
        <time>2013-05-19T12:40:18Z</time>
      </trkpt>
      <trkpt lat="43.29963" lon="0.83289">
        <ele>367.84</ele>
        <time>2013-05-19T12:40:23Z</time>
      </trkpt>
      <trkpt lat="43.29915" lon="0.83181">
        <ele>368.32</ele>
        <time>2013-05-19T12:40:28Z</time>
      </trkpt>
      <trkpt lat="43.29864" lon="0.83059">
        <ele>369.76</ele>
        <time>2013-05-19T12:40:34Z</time>
      </trkpt>
      <trkpt lat="43.29795" lon="0.82961">
        <ele>369.76</ele>
        <time>2013-05-19T12:40:40Z</time>
      </trkpt>
      <trkpt lat="43.29718" lon="0.82871">
        <ele>370.24</ele>
        <time>2013-05-19T12:40:46Z</time>
      </trkpt>
      <trkpt lat="43.29702" lon="0.82736">
        <ele>373.61</ele>
        <time>2013-05-19T12:40:51Z</time>
      </trkpt>
      <trkpt lat="43.29695" lon="0.82594">
        <ele>377.94</ele>
        <time>2013-05-19T12:40:56Z</time>
      </trkpt>
      <trkpt lat="43.29687" lon="0.82452">
        <ele>377.45</ele>
        <time>2013-05-19T12:41:02Z</time>
      </trkpt>
      <trkpt lat="43.29646" lon="0.82333">
        <ele>374.09</ele>
        <time>2013-05-19T12:41:08Z</time>
      </trkpt>
      <trkpt lat="43.29573" lon="0.82238">
        <ele>379.38</ele>
        <time>2013-05-19T12:41:14Z</time>
      </trkpt>
      <trkpt lat="43.29514" lon="0.82113">
        <ele>375.05</ele>
        <time>2013-05-19T12:41:20Z</time>
      </trkpt>
      <trkpt lat="43.2946" lon="0.82015">
        <ele>367.84</ele>
        <time>2013-05-19T12:41:25Z</time>
      </trkpt>
      <trkpt lat="43.29369" lon="0.81968">
        <ele>366.88</ele>
        <time>2013-05-19T12:41:30Z</time>
      </trkpt>
      <trkpt lat="43.29274" lon="0.81966">
        <ele>375.53</ele>
        <time>2013-05-19T12:41:35Z</time>
      </trkpt>
      <trkpt lat="43.29192" lon="0.81918">
        <ele>379.86</ele>
        <time>2013-05-19T12:41:41Z</time>
      </trkpt>
      <trkpt lat="43.29143" lon="0.81797">
        <ele>378.9</ele>
        <time>2013-05-19T12:41:47Z</time>
      </trkpt>
      <trkpt lat="43.29069" lon="0.81724">
        <ele>380.82</ele>
        <time>2013-05-19T12:41:52Z</time>
      </trkpt>
      <trkpt lat="43.28988" lon="0.81663">
        <ele>378.9</ele>
        <time>2013-05-19T12:41:58Z</time>
      </trkpt>
      <trkpt lat="43.28926" lon="0.81571">
        <ele>379.86</ele>
        <time>2013-05-19T12:42:04Z</time>
      </trkpt>
      <trkpt lat="43.2887" lon="0.8145">
        <ele>375.53</ele>
        <time>2013-05-19T12:42:10Z</time>
      </trkpt>
      <trkpt lat="43.28812" lon="0.81332">
        <ele>370.24</ele>
        <time>2013-05-19T12:42:16Z</time>
      </trkpt>
      <trkpt lat="43.28762" lon="0.81225">
        <ele>370.24</ele>
        <time>2013-05-19T12:42:20Z</time>
      </trkpt>
      <trkpt lat="43.28712" lon="0.81118">
        <ele>382.74</ele>
        <time>2013-05-19T12:42:25Z</time>
      </trkpt>
      <trkpt lat="43.28655" lon="0.81005">
        <ele>382.26</ele>
        <time>2013-05-19T12:42:33Z</time>
      </trkpt>
      <trkpt lat="43.28577" lon="0.80959">
        <ele>379.38</ele>
        <time>2013-05-19T12:42:41Z</time>
      </trkpt>
      <trkpt lat="43.28485" lon="0.80958">
        <ele>377.94</ele>
        <time>2013-05-19T12:42:49Z</time>
      </trkpt>
      <trkpt lat="43.28389" lon="0.80957">
        <ele>375.53</ele>
        <time>2013-05-19T12:42:56Z</time>
      </trkpt>
      <trkpt lat="43.28299" lon="0.80927">
        <ele>374.09</ele>
        <time>2013-05-19T12:43:02Z</time>
      </trkpt>
      <trkpt lat="43.28233" lon="0.80837">
        <ele>376.97</ele>
        <time>2013-05-19T12:43:08Z</time>
      </trkpt>
      <trkpt lat="43.28226" lon="0.807">
        <ele>377.45</ele>
        <time>2013-05-19T12:43:14Z</time>
      </trkpt>
      <trkpt lat="43.28234" lon="0.80562">
        <ele>376.49</ele>
        <time>2013-05-19T12:43:20Z</time>
      </trkpt>
      <trkpt lat="43.28227" lon="0.80434">
        <ele>375.05</ele>
        <time>2013-05-19T12:43:26Z</time>
      </trkpt>
      <trkpt lat="43.28216" lon="0.80299">
        <ele>369.76</ele>
        <time>2013-05-19T12:43:31Z</time>
      </trkpt>
      <trkpt lat="43.28205" lon="0.80175">
        <ele>364.48</ele>
        <time>2013-05-19T12:43:34Z</time>
      </trkpt>
      <trkpt lat="43.28192" lon="0.80021">
        <ele>372.17</ele>
        <time>2013-05-19T12:43:38Z</time>
      </trkpt>
      <trkpt lat="43.28182" lon="0.79893">
        <ele>376.49</ele>
        <time>2013-05-19T12:43:43Z</time>
      </trkpt>
      <trkpt lat="43.28135" lon="0.79778">
        <ele>376.97</ele>
        <time>2013-05-19T12:43:50Z</time>
      </trkpt>
      <trkpt lat="43.28101" lon="0.79667">
        <ele>383.7</ele>
        <time>2013-05-19T12:43:56Z</time>
      </trkpt>
      <trkpt lat="43.28108" lon="0.79525">
        <ele>380.34</ele>
        <time>2013-05-19T12:44:01Z</time>
      </trkpt>
      <trkpt lat="43.28113" lon="0.79391">
        <ele>376.01</ele>
        <time>2013-05-19T12:44:07Z</time>
      </trkpt>
      <trkpt lat="43.28067" lon="0.79291">
        <ele>369.28</ele>
        <time>2013-05-19T12:44:13Z</time>
      </trkpt>
      <trkpt lat="43.27985" lon="0.79219">
        <ele>367.36</ele>
        <time>2013-05-19T12:44:18Z</time>
      </trkpt>
      <trkpt lat="43.27904" lon="0.79144">
        <ele>369.28</ele>
        <time>2013-05-19T12:44:24Z</time>
      </trkpt>
      <trkpt lat="43.27808" lon="0.79086">
        <ele>373.61</ele>
        <time>2013-05-19T12:44:31Z</time>
      </trkpt>
      <trkpt lat="43.27763" lon="0.78975">
        <ele>375.05</ele>
        <time>2013-05-19T12:44:37Z</time>
      </trkpt>
      <trkpt lat="43.27747" lon="0.7883">
        <ele>366.4</ele>
        <time>2013-05-19T12:44:42Z</time>
      </trkpt>
      <trkpt lat="43.27728" lon="0.78698">
        <ele>370.73</ele>
        <time>2013-05-19T12:44:46Z</time>
      </trkpt>
      <trkpt lat="43.2771" lon="0.7857">
        <ele>371.21</ele>
        <time>2013-05-19T12:44:51Z</time>
      </trkpt>
      <trkpt lat="43.27703" lon="0.78439">
        <ele>374.09</ele>
        <time>2013-05-19T12:44:57Z</time>
      </trkpt>
      <trkpt lat="43.27671" lon="0.78314">
        <ele>368.32</ele>
        <time>2013-05-19T12:45:03Z</time>
      </trkpt>
      <trkpt lat="43.27669" lon="0.78174">
        <ele>370.73</ele>
        <time>2013-05-19T12:45:09Z</time>
      </trkpt>
      <trkpt lat="43.27643" lon="0.78056">
        <ele>368.32</ele>
        <time>2013-05-19T12:45:15Z</time>
      </trkpt>
      <trkpt lat="43.27583" lon="0.77945">
        <ele>364.48</ele>
        <time>2013-05-19T12:45:22Z</time>
      </trkpt>
      <trkpt lat="43.27498" lon="0.779">
        <ele>367.84</ele>
        <time>2013-05-19T12:45:28Z</time>
      </trkpt>
      <trkpt lat="43.27395" lon="0.77854">
        <ele>366.88</ele>
        <time>2013-05-19T12:45:34Z</time>
      </trkpt>
      <trkpt lat="43.27308" lon="0.77792">
        <ele>376.49</ele>
        <time>2013-05-19T12:45:39Z</time>
      </trkpt>
      <trkpt lat="43.27226" lon="0.77697">
        <ele>374.09</ele>
        <time>2013-05-19T12:45:45Z</time>
      </trkpt>
      <trkpt lat="43.27157" lon="0.77593">
        <ele>376.49</ele>
        <time>2013-05-19T12:45:51Z</time>
      </trkpt>
      <trkpt lat="43.27104" lon="0.77486">
        <ele>376.97</ele>
        <time>2013-05-19T12:45:56Z</time>
      </trkpt>
      <trkpt lat="43.27057" lon="0.77361">
        <ele>372.17</ele>
        <time>2013-05-19T12:46:02Z</time>
      </trkpt>
      <trkpt lat="43.27054" lon="0.77225">
        <ele>375.53</ele>
        <time>2013-05-19T12:46:07Z</time>
      </trkpt>
      <trkpt lat="43.27058" lon="0.77077">
        <ele>375.05</ele>
        <time>2013-05-19T12:46:12Z</time>
      </trkpt>
      <trkpt lat="43.2706" lon="0.76951">
        <ele>379.38</ele>
        <time>2013-05-19T12:46:18Z</time>
      </trkpt>
      <trkpt lat="43.27062" lon="0.76824">
        <ele>379.86</ele>
        <time>2013-05-19T12:46:25Z</time>
      </trkpt>
      <trkpt lat="43.27072" lon="0.76703">
        <ele>378.42</ele>
        <time>2013-05-19T12:46:42Z</time>
      </trkpt>
      <trkpt lat="43.27068" lon="0.7665">
        <ele>380.82</ele>
        <time>2013-05-19T13:06:27Z</time>
      </trkpt>
      <trkpt lat="43.27074" lon="0.76525">
        <ele>381.3</ele>
        <time>2013-05-19T13:06:36Z</time>
      </trkpt>
      <trkpt lat="43.27109" lon="0.76392">
        <ele>379.38</ele>
        <time>2013-05-19T13:06:44Z</time>
      </trkpt>
      <trkpt lat="43.27125" lon="0.76266">
        <ele>380.82</ele>
        <time>2013-05-19T13:06:50Z</time>
      </trkpt>
      <trkpt lat="43.27133" lon="0.7613">
        <ele>379.86</ele>
        <time>2013-05-19T13:06:56Z</time>
      </trkpt>
      <trkpt lat="43.27141" lon="0.75992">
        <ele>379.86</ele>
        <time>2013-05-19T13:07:03Z</time>
      </trkpt>
      <trkpt lat="43.27151" lon="0.75854">
        <ele>378.42</ele>
        <time>2013-05-19T13:07:12Z</time>
      </trkpt>
      <trkpt lat="43.27157" lon="0.75709">
        <ele>372.17</ele>
        <time>2013-05-19T13:07:18Z</time>
      </trkpt>
      <trkpt lat="43.27133" lon="0.7559">
        <ele>368.32</ele>
        <time>2013-05-19T13:07:23Z</time>
      </trkpt>
      <trkpt lat="43.27083" lon="0.75489">
        <ele>364.96</ele>
        <time>2013-05-19T13:07:28Z</time>
      </trkpt>
      <trkpt lat="43.27011" lon="0.75405">
        <ele>360.63</ele>
        <time>2013-05-19T13:07:33Z</time>
      </trkpt>
      <trkpt lat="43.26924" lon="0.75326">
        <ele>366.4</ele>
        <time>2013-05-19T13:07:38Z</time>
      </trkpt>
      <trkpt lat="43.26835" lon="0.75246">
        <ele>361.59</ele>
        <time>2013-05-19T13:07:43Z</time>
      </trkpt>
      <trkpt lat="43.26752" lon="0.75171">
        <ele>360.15</ele>
        <time>2013-05-19T13:07:48Z</time>
      </trkpt>
      <trkpt lat="43.26683" lon="0.75069">
        <ele>355.83</ele>
        <time>2013-05-19T13:07:53Z</time>
      </trkpt>
      <trkpt lat="43.26626" lon="0.7495">
        <ele>351.98</ele>
        <time>2013-05-19T13:07:58Z</time>
      </trkpt>
      <trkpt lat="43.26548" lon="0.7486">
        <ele>352.46</ele>
        <time>2013-05-19T13:08:03Z</time>
      </trkpt>
      <trkpt lat="43.26451" lon="0.74832">
        <ele>353.9</ele>
        <time>2013-05-19T13:08:08Z</time>
      </trkpt>
      <trkpt lat="43.26363" lon="0.74887">
        <ele>362.07</ele>
        <time>2013-05-19T13:08:13Z</time>
      </trkpt>
      <trkpt lat="43.26269" lon="0.74918">
        <ele>363.04</ele>
        <time>2013-05-19T13:08:19Z</time>
      </trkpt>
      <trkpt lat="43.26177" lon="0.74848">
        <ele>367.36</ele>
        <time>2013-05-19T13:08:25Z</time>
      </trkpt>
      <trkpt lat="43.26132" lon="0.74737">
        <ele>367.84</ele>
        <time>2013-05-19T13:08:30Z</time>
      </trkpt>
      <trkpt lat="43.26113" lon="0.74589">
        <ele>366.88</ele>
        <time>2013-05-19T13:08:35Z</time>
      </trkpt>
      <trkpt lat="43.26096" lon="0.74438">
        <ele>363.52</ele>
        <time>2013-05-19T13:08:40Z</time>
      </trkpt>
      <trkpt lat="43.26079" lon="0.74296">
        <ele>358.23</ele>
        <time>2013-05-19T13:08:45Z</time>
      </trkpt>
      <trkpt lat="43.26062" lon="0.74162">
        <ele>355.83</ele>
        <time>2013-05-19T13:08:49Z</time>
      </trkpt>
      <trkpt lat="43.26044" lon="0.74031">
        <ele>359.67</ele>
        <time>2013-05-19T13:08:54Z</time>
      </trkpt>
      <trkpt lat="43.26027" lon="0.73903">
        <ele>362.55</ele>
        <time>2013-05-19T13:09:01Z</time>
      </trkpt>
      <trkpt lat="43.25981" lon="0.73789">
        <ele>363.52</ele>
        <time>2013-05-19T13:09:08Z</time>
      </trkpt>
      <trkpt lat="43.25916" lon="0.73699">
        <ele>364.48</ele>
        <time>2013-05-19T13:09:25Z</time>
      </trkpt>
      <trkpt lat="43.25968" lon="0.73618">
        <ele>363.52</ele>
        <time>2013-05-19T13:09:43Z</time>
      </trkpt>
      <trkpt lat="43.26057" lon="0.73566">
        <ele>363.52</ele>
        <time>2013-05-19T13:09:51Z</time>
      </trkpt>
      <trkpt lat="43.26133" lon="0.73475">
        <ele>356.79</ele>
        <time>2013-05-19T13:09:59Z</time>
      </trkpt>
      <trkpt lat="43.26166" lon="0.73342">
        <ele>346.69</ele>
        <time>2013-05-19T13:10:06Z</time>
      </trkpt>
      <trkpt lat="43.26226" lon="0.73243">
        <ele>338.04</ele>
        <time>2013-05-19T13:10:12Z</time>
      </trkpt>
      <trkpt lat="43.26265" lon="0.73128">
        <ele>331.79</ele>
        <time>2013-05-19T13:10:17Z</time>
      </trkpt>
      <trkpt lat="43.26277" lon="0.72986">
        <ele>322.66</ele>
        <time>2013-05-19T13:10:22Z</time>
      </trkpt>
      <trkpt lat="43.26284" lon="0.72837">
        <ele>312.57</ele>
        <time>2013-05-19T13:10:27Z</time>
      </trkpt>
      <trkpt lat="43.26278" lon="0.72692">
        <ele>303.91</ele>
        <time>2013-05-19T13:10:32Z</time>
      </trkpt>
      <trkpt lat="43.26266" lon="0.72542">
        <ele>293.34</ele>
        <time>2013-05-19T13:10:37Z</time>
      </trkpt>
      <trkpt lat="43.26253" lon="0.72411">
        <ele>284.21</ele>
        <time>2013-05-19T13:10:42Z</time>
      </trkpt>
      <trkpt lat="43.26214" lon="0.72285">
        <ele>274.59</ele>
        <time>2013-05-19T13:10:47Z</time>
      </trkpt>
      <trkpt lat="43.26175" lon="0.72152">
        <ele>270.75</ele>
        <time>2013-05-19T13:10:52Z</time>
      </trkpt>
      <trkpt lat="43.26178" lon="0.72021">
        <ele>271.23</ele>
        <time>2013-05-19T13:10:58Z</time>
      </trkpt>
      <trkpt lat="43.26223" lon="0.71911">
        <ele>267.86</ele>
        <time>2013-05-19T13:11:10Z</time>
      </trkpt>
      <trkpt lat="43.26268" lon="0.71783">
        <ele>264.98</ele>
        <time>2013-05-19T13:11:16Z</time>
      </trkpt>
      <trkpt lat="43.2631" lon="0.71667">
        <ele>264.5</ele>
        <time>2013-05-19T13:11:23Z</time>
      </trkpt>
      <trkpt lat="43.26329" lon="0.71554">
        <ele>263.54</ele>
        <time>2013-05-19T13:11:38Z</time>
      </trkpt>
      <trkpt lat="43.26239" lon="0.71485">
        <ele>260.17</ele>
        <time>2013-05-19T13:11:46Z</time>
      </trkpt>
      <trkpt lat="43.26169" lon="0.71408">
        <ele>260.65</ele>
        <time>2013-05-19T13:11:52Z</time>
      </trkpt>
      <trkpt lat="43.26105" lon="0.7132">
        <ele>258.73</ele>
        <time>2013-05-19T13:11:58Z</time>
      </trkpt>
      <trkpt lat="43.26045" lon="0.71213">
        <ele>264.98</ele>
        <time>2013-05-19T13:12:06Z</time>
      </trkpt>
      <trkpt lat="43.25983" lon="0.7113">
        <ele>262.1</ele>
        <time>2013-05-19T13:12:14Z</time>
      </trkpt>
      <trkpt lat="43.25891" lon="0.7112">
        <ele>263.06</ele>
        <time>2013-05-19T13:12:21Z</time>
      </trkpt>
      <trkpt lat="43.25805" lon="0.71073">
        <ele>261.62</ele>
        <time>2013-05-19T13:12:28Z</time>
      </trkpt>
      <trkpt lat="43.25728" lon="0.71009">
        <ele>262.1</ele>
        <time>2013-05-19T13:12:36Z</time>
      </trkpt>
      <trkpt lat="43.25698" lon="0.70881">
        <ele>265.94</ele>
        <time>2013-05-19T13:12:42Z</time>
      </trkpt>
      <trkpt lat="43.25689" lon="0.70756">
        <ele>269.79</ele>
        <time>2013-05-19T13:12:48Z</time>
      </trkpt>
      <trkpt lat="43.25669" lon="0.70625">
        <ele>268.35</ele>
        <time>2013-05-19T13:12:55Z</time>
      </trkpt>
      <trkpt lat="43.25638" lon="0.70504">
        <ele>269.79</ele>
        <time>2013-05-19T13:13:04Z</time>
      </trkpt>
      <trkpt lat="43.25587" lon="0.70401">
        <ele>271.71</ele>
        <time>2013-05-19T13:13:10Z</time>
      </trkpt>
      <trkpt lat="43.25526" lon="0.70291">
        <ele>269.31</ele>
        <time>2013-05-19T13:13:16Z</time>
      </trkpt>
      <trkpt lat="43.25478" lon="0.70187">
        <ele>276.04</ele>
        <time>2013-05-19T13:13:21Z</time>
      </trkpt>
      <trkpt lat="43.25431" lon="0.70072">
        <ele>275.56</ele>
        <time>2013-05-19T13:13:27Z</time>
      </trkpt>
      <trkpt lat="43.25367" lon="0.69962">
        <ele>271.23</ele>
        <time>2013-05-19T13:13:33Z</time>
      </trkpt>
      <trkpt lat="43.25304" lon="0.69849">
        <ele>277.48</ele>
        <time>2013-05-19T13:13:41Z</time>
      </trkpt>
      <trkpt lat="43.25238" lon="0.6977">
        <ele>278.44</ele>
        <time>2013-05-19T13:13:48Z</time>
      </trkpt>
      <trkpt lat="43.25148" lon="0.69791">
        <ele>277</ele>
        <time>2013-05-19T13:13:54Z</time>
      </trkpt>
      <trkpt lat="43.25055" lon="0.69809">
        <ele>278.92</ele>
        <time>2013-05-19T13:14:01Z</time>
      </trkpt>
      <trkpt lat="43.24968" lon="0.69735">
        <ele>276.52</ele>
        <time>2013-05-19T13:14:09Z</time>
      </trkpt>
      <trkpt lat="43.24867" lon="0.69707">
        <ele>278.92</ele>
        <time>2013-05-19T13:14:16Z</time>
      </trkpt>
      <trkpt lat="43.24816" lon="0.6959">
        <ele>280.84</ele>
        <time>2013-05-19T13:14:24Z</time>
      </trkpt>
      <trkpt lat="43.24783" lon="0.69472">
        <ele>277.48</ele>
        <time>2013-05-19T13:14:33Z</time>
      </trkpt>
      <trkpt lat="43.24737" lon="0.69359">
        <ele>280.36</ele>
        <time>2013-05-19T13:14:41Z</time>
      </trkpt>
      <trkpt lat="43.24662" lon="0.69286">
        <ele>278.92</ele>
        <time>2013-05-19T13:14:48Z</time>
      </trkpt>
      <trkpt lat="43.24593" lon="0.692">
        <ele>281.32</ele>
        <time>2013-05-19T13:14:56Z</time>
      </trkpt>
      <trkpt lat="43.2453" lon="0.69104">
        <ele>280.84</ele>
        <time>2013-05-19T13:15:02Z</time>
      </trkpt>
      <trkpt lat="43.24448" lon="0.69021">
        <ele>280.36</ele>
        <time>2013-05-19T13:15:09Z</time>
      </trkpt>
      <trkpt lat="43.24392" lon="0.68898">
        <ele>280.84</ele>
        <time>2013-05-19T13:15:16Z</time>
      </trkpt>
      <trkpt lat="43.24352" lon="0.68787">
        <ele>283.73</ele>
        <time>2013-05-19T13:15:22Z</time>
      </trkpt>
      <trkpt lat="43.24338" lon="0.6866">
        <ele>287.09</ele>
        <time>2013-05-19T13:15:29Z</time>
      </trkpt>
      <trkpt lat="43.24335" lon="0.68529">
        <ele>284.69</ele>
        <time>2013-05-19T13:15:38Z</time>
      </trkpt>
      <trkpt lat="43.24317" lon="0.68397">
        <ele>284.69</ele>
        <time>2013-05-19T13:15:48Z</time>
      </trkpt>
      <trkpt lat="43.24314" lon="0.68269">
        <ele>285.65</ele>
        <time>2013-05-19T13:15:57Z</time>
      </trkpt>
      <trkpt lat="43.2433" lon="0.68133">
        <ele>289.97</ele>
        <time>2013-05-19T13:16:22Z</time>
      </trkpt>
      <trkpt lat="43.24323" lon="0.67992">
        <ele>288.53</ele>
        <time>2013-05-19T13:16:28Z</time>
      </trkpt>
      <trkpt lat="43.24334" lon="0.67852">
        <ele>287.09</ele>
        <time>2013-05-19T13:16:35Z</time>
      </trkpt>
      <trkpt lat="43.24354" lon="0.67725">
        <ele>290.94</ele>
        <time>2013-05-19T13:16:41Z</time>
      </trkpt>
      <trkpt lat="43.24366" lon="0.6759">
        <ele>289.01</ele>
        <time>2013-05-19T13:16:49Z</time>
      </trkpt>
      <trkpt lat="43.24323" lon="0.67463">
        <ele>289.01</ele>
        <time>2013-05-19T13:16:56Z</time>
      </trkpt>
      <trkpt lat="43.24276" lon="0.67358">
        <ele>288.53</ele>
        <time>2013-05-19T13:17:01Z</time>
      </trkpt>
      <trkpt lat="43.24231" lon="0.67243">
        <ele>288.53</ele>
        <time>2013-05-19T13:17:07Z</time>
      </trkpt>
      <trkpt lat="43.24236" lon="0.67108">
        <ele>289.01</ele>
        <time>2013-05-19T13:17:13Z</time>
      </trkpt>
      <trkpt lat="43.24245" lon="0.66971">
        <ele>290.94</ele>
        <time>2013-05-19T13:17:19Z</time>
      </trkpt>
      <trkpt lat="43.24281" lon="0.66851">
        <ele>293.34</ele>
        <time>2013-05-19T13:17:25Z</time>
      </trkpt>
      <trkpt lat="43.24321" lon="0.66733">
        <ele>295.74</ele>
        <time>2013-05-19T13:17:32Z</time>
      </trkpt>
      <trkpt lat="43.24364" lon="0.66624">
        <ele>295.26</ele>
        <time>2013-05-19T13:17:43Z</time>
      </trkpt>
      <trkpt lat="43.24301" lon="0.66597">
        <ele>295.26</ele>
        <time>2013-05-19T13:18:03Z</time>
      </trkpt>
      <trkpt lat="43.24203" lon="0.66615">
        <ele>294.78</ele>
        <time>2013-05-19T13:18:08Z</time>
      </trkpt>
      <trkpt lat="43.24116" lon="0.66652">
        <ele>296.22</ele>
        <time>2013-05-19T13:18:14Z</time>
      </trkpt>
      <trkpt lat="43.24032" lon="0.66729">
        <ele>297.67</ele>
        <time>2013-05-19T13:18:22Z</time>
      </trkpt>
      <trkpt lat="43.23991" lon="0.66839">
        <ele>295.74</ele>
        <time>2013-05-19T13:18:33Z</time>
      </trkpt>
      <trkpt lat="43.23912" lon="0.6682">
        <ele>293.82</ele>
        <time>2013-05-19T13:18:49Z</time>
      </trkpt>
      <trkpt lat="43.23838" lon="0.66739">
        <ele>294.78</ele>
        <time>2013-05-19T13:19:03Z</time>
      </trkpt>
      <trkpt lat="43.23789" lon="0.6662">
        <ele>293.82</ele>
        <time>2013-05-19T13:19:13Z</time>
      </trkpt>
      <trkpt lat="43.23719" lon="0.66532">
        <ele>293.34</ele>
        <time>2013-05-19T13:19:23Z</time>
      </trkpt>
      <trkpt lat="43.23636" lon="0.66463">
        <ele>295.26</ele>
        <time>2013-05-19T13:19:36Z</time>
      </trkpt>
      <trkpt lat="43.23565" lon="0.66381">
        <ele>294.3</ele>
        <time>2013-05-19T13:19:51Z</time>
      </trkpt>
      <trkpt lat="43.23489" lon="0.66307">
        <ele>293.34</ele>
        <time>2013-05-19T13:20:07Z</time>
      </trkpt>
      <trkpt lat="43.23438" lon="0.66204">
        <ele>295.26</ele>
        <time>2013-05-19T13:20:18Z</time>
      </trkpt>
      <trkpt lat="43.23418" lon="0.66073">
        <ele>295.74</ele>
        <time>2013-05-19T13:20:31Z</time>
      </trkpt>
      <trkpt lat="43.23379" lon="0.65955">
        <ele>296.22</ele>
        <time>2013-05-19T13:20:44Z</time>
      </trkpt>
      <trkpt lat="43.23326" lon="0.65845">
        <ele>296.22</ele>
        <time>2013-05-19T13:20:57Z</time>
      </trkpt>
      <trkpt lat="43.23313" lon="0.65712">
        <ele>299.11</ele>
        <time>2013-05-19T13:21:09Z</time>
      </trkpt>
      <trkpt lat="43.23297" lon="0.65584">
        <ele>298.63</ele>
        <time>2013-05-19T13:21:23Z</time>
      </trkpt>
      <trkpt lat="43.23212" lon="0.65542">
        <ele>298.15</ele>
        <time>2013-05-19T13:21:38Z</time>
      </trkpt>
      <trkpt lat="43.23131" lon="0.65596">
        <ele>299.11</ele>
        <time>2013-05-19T13:21:50Z</time>
      </trkpt>
      <trkpt lat="43.2307" lon="0.65479">
        <ele>300.55</ele>
        <time>2013-05-19T13:43:10Z</time>
      </trkpt>
      <trkpt lat="43.23064" lon="0.65364">
        <ele>301.99</ele>
        <time>2013-05-19T13:44:26Z</time>
      </trkpt>
      <trkpt lat="43.22966" lon="0.65319">
        <ele>301.03</ele>
        <time>2013-05-19T13:44:52Z</time>
      </trkpt>
      <trkpt lat="43.22874" lon="0.653">
        <ele>303.43</ele>
        <time>2013-05-19T13:45:12Z</time>
      </trkpt>
      <trkpt lat="43.22839" lon="0.65173">
        <ele>303.91</ele>
        <time>2013-05-19T13:45:30Z</time>
      </trkpt>
      <trkpt lat="43.2274" lon="0.65075">
        <ele>306.32</ele>
        <time>2013-05-19T13:45:44Z</time>
      </trkpt>
      <trkpt lat="43.2266" lon="0.64982">
        <ele>306.32</ele>
        <time>2013-05-19T13:45:54Z</time>
      </trkpt>
      <trkpt lat="43.22592" lon="0.6489">
        <ele>308.24</ele>
        <time>2013-05-19T13:46:03Z</time>
      </trkpt>
      <trkpt lat="43.22508" lon="0.64823">
        <ele>307.76</ele>
        <time>2013-05-19T13:46:13Z</time>
      </trkpt>
      <trkpt lat="43.22431" lon="0.64752">
        <ele>309.68</ele>
        <time>2013-05-19T13:46:22Z</time>
      </trkpt>
      <trkpt lat="43.22416" lon="0.64628">
        <ele>316.41</ele>
        <time>2013-05-19T13:46:31Z</time>
      </trkpt>
      <trkpt lat="43.22361" lon="0.64526">
        <ele>321.22</ele>
        <time>2013-05-19T13:46:41Z</time>
      </trkpt>
      <trkpt lat="43.22274" lon="0.64492">
        <ele>318.81</ele>
        <time>2013-05-19T13:46:51Z</time>
      </trkpt>
      <trkpt lat="43.22178" lon="0.64454">
        <ele>319.78</ele>
        <time>2013-05-19T13:47:10Z</time>
      </trkpt>
      <trkpt lat="43.2209" lon="0.64401">
        <ele>320.26</ele>
        <time>2013-05-19T13:47:20Z</time>
      </trkpt>
      <trkpt lat="43.22086" lon="0.64295">
        <ele>324.1</ele>
        <time>2013-05-19T13:47:33Z</time>
      </trkpt>
      <trkpt lat="43.22148" lon="0.64201">
        <ele>330.83</ele>
        <time>2013-05-19T13:47:39Z</time>
      </trkpt>
      <trkpt lat="43.22204" lon="0.64088">
        <ele>337.56</ele>
        <time>2013-05-19T13:47:45Z</time>
      </trkpt>
      <trkpt lat="43.22231" lon="0.63968">
        <ele>347.65</ele>
        <time>2013-05-19T13:47:51Z</time>
      </trkpt>
      <trkpt lat="43.22249" lon="0.63827">
        <ele>363.04</ele>
        <time>2013-05-19T13:47:58Z</time>
      </trkpt>
      <trkpt lat="43.22309" lon="0.63728">
        <ele>372.65</ele>
        <time>2013-05-19T13:48:07Z</time>
      </trkpt>
      <trkpt lat="43.22378" lon="0.63659">
        <ele>382.26</ele>
        <time>2013-05-19T13:48:25Z</time>
      </trkpt>
      <trkpt lat="43.22445" lon="0.63762">
        <ele>389.95</ele>
        <time>2013-05-19T13:48:38Z</time>
      </trkpt>
      <trkpt lat="43.22506" lon="0.63858">
        <ele>388.51</ele>
        <time>2013-05-19T13:48:48Z</time>
      </trkpt>
      <trkpt lat="43.22574" lon="0.63907">
        <ele>382.74</ele>
        <time>2013-05-19T13:49:10Z</time>
      </trkpt>
      <trkpt lat="43.22661" lon="0.63956">
        <ele>384.18</ele>
        <time>2013-05-19T13:49:27Z</time>
      </trkpt>
      <trkpt lat="43.22753" lon="0.63963">
        <ele>384.18</ele>
        <time>2013-05-19T13:49:33Z</time>
      </trkpt>
      <trkpt lat="43.22854" lon="0.63986">
        <ele>390.43</ele>
        <time>2013-05-19T13:49:40Z</time>
      </trkpt>
      <trkpt lat="43.22937" lon="0.64048">
        <ele>392.84</ele>
        <time>2013-05-19T13:49:46Z</time>
      </trkpt>
      <trkpt lat="43.2301" lon="0.64133">
        <ele>389.95</ele>
        <time>2013-05-19T13:49:54Z</time>
      </trkpt>
      <trkpt lat="43.23066" lon="0.64236">
        <ele>383.22</ele>
        <time>2013-05-19T13:50:01Z</time>
      </trkpt>
      <trkpt lat="43.23156" lon="0.64309">
        <ele>376.01</ele>
        <time>2013-05-19T13:50:08Z</time>
      </trkpt>
      <trkpt lat="43.23261" lon="0.64351">
        <ele>369.76</ele>
        <time>2013-05-19T13:50:15Z</time>
      </trkpt>
      <trkpt lat="43.23358" lon="0.64354">
        <ele>358.71</ele>
        <time>2013-05-19T13:50:21Z</time>
      </trkpt>
      <trkpt lat="43.23448" lon="0.64296">
        <ele>351.98</ele>
        <time>2013-05-19T13:50:28Z</time>
      </trkpt>
      <trkpt lat="43.23525" lon="0.64249">
        <ele>344.77</ele>
        <time>2013-05-19T13:50:36Z</time>
      </trkpt>
      <trkpt lat="43.23609" lon="0.64334">
        <ele>333.71</ele>
        <time>2013-05-19T13:50:43Z</time>
      </trkpt>
      <trkpt lat="43.23699" lon="0.64369">
        <ele>326.02</ele>
        <time>2013-05-19T13:50:49Z</time>
      </trkpt>
      <trkpt lat="43.23787" lon="0.64403">
        <ele>317.85</ele>
        <time>2013-05-19T13:50:55Z</time>
      </trkpt>
      <trkpt lat="43.23858" lon="0.64493">
        <ele>310.64</ele>
        <time>2013-05-19T13:51:02Z</time>
      </trkpt>
      <trkpt lat="43.23908" lon="0.64584">
        <ele>305.36</ele>
        <time>2013-05-19T13:51:16Z</time>
      </trkpt>
      <trkpt lat="43.23961" lon="0.64664">
        <ele>308.24</ele>
        <time>2013-05-19T13:53:21Z</time>
      </trkpt>
      <trkpt lat="43.24009" lon="0.648">
        <ele>301.99</ele>
        <time>2013-05-19T13:53:25Z</time>
      </trkpt>
      <trkpt lat="43.24054" lon="0.64925">
        <ele>301.03</ele>
        <time>2013-05-19T13:53:28Z</time>
      </trkpt>
      <trkpt lat="43.24097" lon="0.65046">
        <ele>306.8</ele>
        <time>2013-05-19T13:53:31Z</time>
      </trkpt>
      <trkpt lat="43.24146" lon="0.65185">
        <ele>305.84</ele>
        <time>2013-05-19T13:53:35Z</time>
      </trkpt>
      <trkpt lat="43.24212" lon="0.65301">
        <ele>300.55</ele>
        <time>2013-05-19T13:53:39Z</time>
      </trkpt>
      <trkpt lat="43.24296" lon="0.65402">
        <ele>317.37</ele>
        <time>2013-05-19T13:53:43Z</time>
      </trkpt>
      <trkpt lat="43.24379" lon="0.65498">
        <ele>315.45</ele>
        <time>2013-05-19T13:53:48Z</time>
      </trkpt>
      <trkpt lat="43.24463" lon="0.65567">
        <ele>320.74</ele>
        <time>2013-05-19T13:53:55Z</time>
      </trkpt>
      <trkpt lat="43.24556" lon="0.65531">
        <ele>330.83</ele>
        <time>2013-05-19T13:54:00Z</time>
      </trkpt>
      <trkpt lat="43.24657" lon="0.65487">
        <ele>333.71</ele>
        <time>2013-05-19T13:54:05Z</time>
      </trkpt>
      <trkpt lat="43.24757" lon="0.65443">
        <ele>333.71</ele>
        <time>2013-05-19T13:54:10Z</time>
      </trkpt>
      <trkpt lat="43.24858" lon="0.65398">
        <ele>333.71</ele>
        <time>2013-05-19T13:54:15Z</time>
      </trkpt>
      <trkpt lat="43.24956" lon="0.65355">
        <ele>334.2</ele>
        <time>2013-05-19T13:54:20Z</time>
      </trkpt>
      <trkpt lat="43.25053" lon="0.65313">
        <ele>329.39</ele>
        <time>2013-05-19T13:54:25Z</time>
      </trkpt>
      <trkpt lat="43.25145" lon="0.65272">
        <ele>327.47</ele>
        <time>2013-05-19T13:54:30Z</time>
      </trkpt>
      <trkpt lat="43.25232" lon="0.65218">
        <ele>324.1</ele>
        <time>2013-05-19T13:54:35Z</time>
      </trkpt>
      <trkpt lat="43.25324" lon="0.65151">
        <ele>316.89</ele>
        <time>2013-05-19T13:54:41Z</time>
      </trkpt>
      <trkpt lat="43.2542" lon="0.65121">
        <ele>318.33</ele>
        <time>2013-05-19T13:54:46Z</time>
      </trkpt>
      <trkpt lat="43.2552" lon="0.65098">
        <ele>314.01</ele>
        <time>2013-05-19T13:54:52Z</time>
      </trkpt>
      <trkpt lat="43.25596" lon="0.65007">
        <ele>312.57</ele>
        <time>2013-05-19T13:54:58Z</time>
      </trkpt>
      <trkpt lat="43.25628" lon="0.64871">
        <ele>325.54</ele>
        <time>2013-05-19T13:55:03Z</time>
      </trkpt>
      <trkpt lat="43.25692" lon="0.64769">
        <ele>331.31</ele>
        <time>2013-05-19T13:55:10Z</time>
      </trkpt>
      <trkpt lat="43.25774" lon="0.64701">
        <ele>337.56</ele>
        <time>2013-05-19T13:55:18Z</time>
      </trkpt>
      <trkpt lat="43.25816" lon="0.64566">
        <ele>341.89</ele>
        <time>2013-05-19T13:55:47Z</time>
      </trkpt>
      <trkpt lat="43.25839" lon="0.64431">
        <ele>347.65</ele>
        <time>2013-05-19T13:55:56Z</time>
      </trkpt>
      <trkpt lat="43.25886" lon="0.64317">
        <ele>352.94</ele>
        <time>2013-05-19T13:56:06Z</time>
      </trkpt>
      <trkpt lat="43.25945" lon="0.64375">
        <ele>357.27</ele>
        <time>2013-05-19T13:56:58Z</time>
      </trkpt>
      <trkpt lat="43.25983" lon="0.64497">
        <ele>357.27</ele>
        <time>2013-05-19T13:57:06Z</time>
      </trkpt>
      <trkpt lat="43.26028" lon="0.64622">
        <ele>353.42</ele>
        <time>2013-05-19T13:57:14Z</time>
      </trkpt>
      <trkpt lat="43.26061" lon="0.64738">
        <ele>348.13</ele>
        <time>2013-05-19T13:57:21Z</time>
      </trkpt>
      <trkpt lat="43.26031" lon="0.64859">
        <ele>351.98</ele>
        <time>2013-05-19T13:57:26Z</time>
      </trkpt>
      <trkpt lat="43.25989" lon="0.64981">
        <ele>350.54</ele>
        <time>2013-05-19T13:57:31Z</time>
      </trkpt>
      <trkpt lat="43.25967" lon="0.6511">
        <ele>349.58</ele>
        <time>2013-05-19T13:57:36Z</time>
      </trkpt>
      <trkpt lat="43.25951" lon="0.65232">
        <ele>348.62</ele>
        <time>2013-05-19T13:57:41Z</time>
      </trkpt>
      <trkpt lat="43.25946" lon="0.65368">
        <ele>346.69</ele>
        <time>2013-05-19T13:57:46Z</time>
      </trkpt>
      <trkpt lat="43.25942" lon="0.65504">
        <ele>342.37</ele>
        <time>2013-05-19T13:57:51Z</time>
      </trkpt>
      <trkpt lat="43.25949" lon="0.65648">
        <ele>340.92</ele>
        <time>2013-05-19T13:57:56Z</time>
      </trkpt>
      <trkpt lat="43.25962" lon="0.65791">
        <ele>336.12</ele>
        <time>2013-05-19T13:58:01Z</time>
      </trkpt>
      <trkpt lat="43.25977" lon="0.65944">
        <ele>335.16</ele>
        <time>2013-05-19T13:58:06Z</time>
      </trkpt>
      <trkpt lat="43.25989" lon="0.66085">
        <ele>330.83</ele>
        <time>2013-05-19T13:58:10Z</time>
      </trkpt>
      <trkpt lat="43.26001" lon="0.66212">
        <ele>330.35</ele>
        <time>2013-05-19T13:58:14Z</time>
      </trkpt>
      <trkpt lat="43.26016" lon="0.66362">
        <ele>326.5</ele>
        <time>2013-05-19T13:58:19Z</time>
      </trkpt>
      <trkpt lat="43.26027" lon="0.66485">
        <ele>324.1</ele>
        <time>2013-05-19T13:58:23Z</time>
      </trkpt>
      <trkpt lat="43.26032" lon="0.66621">
        <ele>323.62</ele>
        <time>2013-05-19T13:58:28Z</time>
      </trkpt>
      <trkpt lat="43.26031" lon="0.66745">
        <ele>321.22</ele>
        <time>2013-05-19T13:58:34Z</time>
      </trkpt>
      <trkpt lat="43.26029" lon="0.66881">
        <ele>320.74</ele>
        <time>2013-05-19T13:58:39Z</time>
      </trkpt>
      <trkpt lat="43.26025" lon="0.67023">
        <ele>319.3</ele>
        <time>2013-05-19T13:58:44Z</time>
      </trkpt>
      <trkpt lat="43.26024" lon="0.6717">
        <ele>316.41</ele>
        <time>2013-05-19T13:58:49Z</time>
      </trkpt>
      <trkpt lat="43.26021" lon="0.6732">
        <ele>314.01</ele>
        <time>2013-05-19T13:58:54Z</time>
      </trkpt>
      <trkpt lat="43.2602" lon="0.67447">
        <ele>312.57</ele>
        <time>2013-05-19T13:58:58Z</time>
      </trkpt>
      <trkpt lat="43.26018" lon="0.67576">
        <ele>309.68</ele>
        <time>2013-05-19T13:59:02Z</time>
      </trkpt>
      <trkpt lat="43.26016" lon="0.67726">
        <ele>311.12</ele>
        <time>2013-05-19T13:59:07Z</time>
      </trkpt>
      <trkpt lat="43.26014" lon="0.67864">
        <ele>311.6</ele>
        <time>2013-05-19T13:59:12Z</time>
      </trkpt>
      <trkpt lat="43.25997" lon="0.67993">
        <ele>309.2</ele>
        <time>2013-05-19T13:59:17Z</time>
      </trkpt>
      <trkpt lat="43.25938" lon="0.68114">
        <ele>305.36</ele>
        <time>2013-05-19T13:59:22Z</time>
      </trkpt>
      <trkpt lat="43.2588" lon="0.68217">
        <ele>298.15</ele>
        <time>2013-05-19T13:59:27Z</time>
      </trkpt>
      <trkpt lat="43.25842" lon="0.6834">
        <ele>291.42</ele>
        <time>2013-05-19T13:59:32Z</time>
      </trkpt>
      <trkpt lat="43.25842" lon="0.68479">
        <ele>288.53</ele>
        <time>2013-05-19T13:59:37Z</time>
      </trkpt>
      <trkpt lat="43.25866" lon="0.68605">
        <ele>285.65</ele>
        <time>2013-05-19T13:59:41Z</time>
      </trkpt>
      <trkpt lat="43.25896" lon="0.6874">
        <ele>284.69</ele>
        <time>2013-05-19T13:59:45Z</time>
      </trkpt>
      <trkpt lat="43.25924" lon="0.68864">
        <ele>283.73</ele>
        <time>2013-05-19T13:59:49Z</time>
      </trkpt>
      <trkpt lat="43.25951" lon="0.68985">
        <ele>282.77</ele>
        <time>2013-05-19T13:59:53Z</time>
      </trkpt>
      <trkpt lat="43.25977" lon="0.69103">
        <ele>281.8</ele>
        <time>2013-05-19T13:59:57Z</time>
      </trkpt>
      <trkpt lat="43.26004" lon="0.69224">
        <ele>281.8</ele>
        <time>2013-05-19T14:00:01Z</time>
      </trkpt>
      <trkpt lat="43.2603" lon="0.69347">
        <ele>281.32</ele>
        <time>2013-05-19T14:00:05Z</time>
      </trkpt>
      <trkpt lat="43.26056" lon="0.69468">
        <ele>282.28</ele>
        <time>2013-05-19T14:00:09Z</time>
      </trkpt>
      <trkpt lat="43.26088" lon="0.69613">
        <ele>277.48</ele>
        <time>2013-05-19T14:00:14Z</time>
      </trkpt>
      <trkpt lat="43.26117" lon="0.69744">
        <ele>279.88</ele>
        <time>2013-05-19T14:00:18Z</time>
      </trkpt>
      <trkpt lat="43.26147" lon="0.69876">
        <ele>279.88</ele>
        <time>2013-05-19T14:00:22Z</time>
      </trkpt>
      <trkpt lat="43.26178" lon="0.70022">
        <ele>278.92</ele>
        <time>2013-05-19T14:00:27Z</time>
      </trkpt>
      <trkpt lat="43.26206" lon="0.70145">
        <ele>277</ele>
        <time>2013-05-19T14:00:31Z</time>
      </trkpt>
      <trkpt lat="43.26237" lon="0.7029">
        <ele>280.84</ele>
        <time>2013-05-19T14:00:36Z</time>
      </trkpt>
      <trkpt lat="43.26267" lon="0.70431">
        <ele>275.56</ele>
        <time>2013-05-19T14:00:41Z</time>
      </trkpt>
      <trkpt lat="43.26295" lon="0.70558">
        <ele>278.44</ele>
        <time>2013-05-19T14:00:45Z</time>
      </trkpt>
      <trkpt lat="43.26323" lon="0.70686">
        <ele>276.04</ele>
        <time>2013-05-19T14:00:50Z</time>
      </trkpt>
      <trkpt lat="43.26354" lon="0.70822">
        <ele>274.59</ele>
        <time>2013-05-19T14:00:57Z</time>
      </trkpt>
      <trkpt lat="43.26382" lon="0.70953">
        <ele>274.11</ele>
        <time>2013-05-19T14:01:04Z</time>
      </trkpt>
      <trkpt lat="43.2641" lon="0.71081">
        <ele>272.67</ele>
        <time>2013-05-19T14:01:12Z</time>
      </trkpt>
      <trkpt lat="43.26436" lon="0.71202">
        <ele>270.75</ele>
        <time>2013-05-19T14:01:22Z</time>
      </trkpt>
      <trkpt lat="43.26426" lon="0.71335">
        <ele>268.83</ele>
        <time>2013-05-19T14:01:47Z</time>
      </trkpt>
      <trkpt lat="43.26379" lon="0.71465">
        <ele>264.98</ele>
        <time>2013-05-19T14:01:54Z</time>
      </trkpt>
      <trkpt lat="43.26331" lon="0.716">
        <ele>266.9</ele>
        <time>2013-05-19T14:01:59Z</time>
      </trkpt>
      <trkpt lat="43.2629" lon="0.71715">
        <ele>266.9</ele>
        <time>2013-05-19T14:02:04Z</time>
      </trkpt>
      <trkpt lat="43.2625" lon="0.71828">
        <ele>267.86</ele>
        <time>2013-05-19T14:02:09Z</time>
      </trkpt>
      <trkpt lat="43.26203" lon="0.7194">
        <ele>270.75</ele>
        <time>2013-05-19T14:02:19Z</time>
      </trkpt>
      <trkpt lat="43.26173" lon="0.72051">
        <ele>273.63</ele>
        <time>2013-05-19T14:02:31Z</time>
      </trkpt>
      <trkpt lat="43.26184" lon="0.72192">
        <ele>276.04</ele>
        <time>2013-05-19T14:02:37Z</time>
      </trkpt>
      <trkpt lat="43.26223" lon="0.72323">
        <ele>277.96</ele>
        <time>2013-05-19T14:02:42Z</time>
      </trkpt>
      <trkpt lat="43.26254" lon="0.72441">
        <ele>284.69</ele>
        <time>2013-05-19T14:02:47Z</time>
      </trkpt>
      <trkpt lat="43.26268" lon="0.72583">
        <ele>295.26</ele>
        <time>2013-05-19T14:02:52Z</time>
      </trkpt>
      <trkpt lat="43.26279" lon="0.72715">
        <ele>304.88</ele>
        <time>2013-05-19T14:02:57Z</time>
      </trkpt>
      <trkpt lat="43.26282" lon="0.72865">
        <ele>314.01</ele>
        <time>2013-05-19T14:03:03Z</time>
      </trkpt>
      <trkpt lat="43.26278" lon="0.73003">
        <ele>322.66</ele>
        <time>2013-05-19T14:03:08Z</time>
      </trkpt>
      <trkpt lat="43.26265" lon="0.73127">
        <ele>329.39</ele>
        <time>2013-05-19T14:03:13Z</time>
      </trkpt>
      <trkpt lat="43.26221" lon="0.73258">
        <ele>339.96</ele>
        <time>2013-05-19T14:03:19Z</time>
      </trkpt>
      <trkpt lat="43.26159" lon="0.73362">
        <ele>348.13</ele>
        <time>2013-05-19T14:03:25Z</time>
      </trkpt>
      <trkpt lat="43.2613" lon="0.73486">
        <ele>355.34</ele>
        <time>2013-05-19T14:03:31Z</time>
      </trkpt>
      <trkpt lat="43.26054" lon="0.73567">
        <ele>363.04</ele>
        <time>2013-05-19T14:03:39Z</time>
      </trkpt>
      <trkpt lat="43.25968" lon="0.73617">
        <ele>365.92</ele>
        <time>2013-05-19T14:03:47Z</time>
      </trkpt>
      <trkpt lat="43.25888" lon="0.73696">
        <ele>367.36</ele>
        <time>2013-05-19T14:03:55Z</time>
      </trkpt>
      <trkpt lat="43.25823" lon="0.73785">
        <ele>365.44</ele>
        <time>2013-05-19T14:04:02Z</time>
      </trkpt>
      <trkpt lat="43.25757" lon="0.73877">
        <ele>363.52</ele>
        <time>2013-05-19T14:04:09Z</time>
      </trkpt>
      <trkpt lat="43.25683" lon="0.73979">
        <ele>361.59</ele>
        <time>2013-05-19T14:04:14Z</time>
      </trkpt>
      <trkpt lat="43.25616" lon="0.7407">
        <ele>361.11</ele>
        <time>2013-05-19T14:04:19Z</time>
      </trkpt>
      <trkpt lat="43.25551" lon="0.74156">
        <ele>360.63</ele>
        <time>2013-05-19T14:04:25Z</time>
      </trkpt>
      <trkpt lat="43.25475" lon="0.7426">
        <ele>357.27</ele>
        <time>2013-05-19T14:04:31Z</time>
      </trkpt>
      <trkpt lat="43.25399" lon="0.74363">
        <ele>354.86</ele>
        <time>2013-05-19T14:04:37Z</time>
      </trkpt>
      <trkpt lat="43.25325" lon="0.74463">
        <ele>351.02</ele>
        <time>2013-05-19T14:04:42Z</time>
      </trkpt>
      <trkpt lat="43.25256" lon="0.74555">
        <ele>346.21</ele>
        <time>2013-05-19T14:04:47Z</time>
      </trkpt>
      <trkpt lat="43.25189" lon="0.74646">
        <ele>345.73</ele>
        <time>2013-05-19T14:04:52Z</time>
      </trkpt>
      <trkpt lat="43.25109" lon="0.74757">
        <ele>335.64</ele>
        <time>2013-05-19T14:04:57Z</time>
      </trkpt>
      <trkpt lat="43.25044" lon="0.74845">
        <ele>330.83</ele>
        <time>2013-05-19T14:05:01Z</time>
      </trkpt>
      <trkpt lat="43.24972" lon="0.74941">
        <ele>325.06</ele>
        <time>2013-05-19T14:05:05Z</time>
      </trkpt>
      <trkpt lat="43.24902" lon="0.75034">
        <ele>318.81</ele>
        <time>2013-05-19T14:05:09Z</time>
      </trkpt>
      <trkpt lat="43.24838" lon="0.75117">
        <ele>322.18</ele>
        <time>2013-05-19T14:05:13Z</time>
      </trkpt>
      <trkpt lat="43.24762" lon="0.75214">
        <ele>324.1</ele>
        <time>2013-05-19T14:05:18Z</time>
      </trkpt>
      <trkpt lat="43.24708" lon="0.75333">
        <ele>329.87</ele>
        <time>2013-05-19T14:05:23Z</time>
      </trkpt>
      <trkpt lat="43.24682" lon="0.75457">
        <ele>337.08</ele>
        <time>2013-05-19T14:05:27Z</time>
      </trkpt>
      <trkpt lat="43.24644" lon="0.7559">
        <ele>344.77</ele>
        <time>2013-05-19T14:05:32Z</time>
      </trkpt>
      <trkpt lat="43.24564" lon="0.75672">
        <ele>349.58</ele>
        <time>2013-05-19T14:05:38Z</time>
      </trkpt>
      <trkpt lat="43.24474" lon="0.75745">
        <ele>355.83</ele>
        <time>2013-05-19T14:05:44Z</time>
      </trkpt>
      <trkpt lat="43.24449" lon="0.75871">
        <ele>364.96</ele>
        <time>2013-05-19T14:05:49Z</time>
      </trkpt>
      <trkpt lat="43.24435" lon="0.76003">
        <ele>366.88</ele>
        <time>2013-05-19T14:05:55Z</time>
      </trkpt>
      <trkpt lat="43.2438" lon="0.7611">
        <ele>367.84</ele>
        <time>2013-05-19T14:06:00Z</time>
      </trkpt>
      <trkpt lat="43.24323" lon="0.76209">
        <ele>364.48</ele>
        <time>2013-05-19T14:06:04Z</time>
      </trkpt>
      <trkpt lat="43.24261" lon="0.76315">
        <ele>358.23</ele>
        <time>2013-05-19T14:06:08Z</time>
      </trkpt>
      <trkpt lat="43.242" lon="0.76417">
        <ele>351.5</ele>
        <time>2013-05-19T14:06:12Z</time>
      </trkpt>
      <trkpt lat="43.24142" lon="0.76516">
        <ele>347.65</ele>
        <time>2013-05-19T14:06:16Z</time>
      </trkpt>
      <trkpt lat="43.2408" lon="0.76618">
        <ele>341.41</ele>
        <time>2013-05-19T14:06:20Z</time>
      </trkpt>
      <trkpt lat="43.24022" lon="0.76715">
        <ele>338.04</ele>
        <time>2013-05-19T14:06:24Z</time>
      </trkpt>
      <trkpt lat="43.23951" lon="0.76833">
        <ele>337.08</ele>
        <time>2013-05-19T14:06:29Z</time>
      </trkpt>
      <trkpt lat="43.23886" lon="0.76942">
        <ele>335.64</ele>
        <time>2013-05-19T14:06:34Z</time>
      </trkpt>
      <trkpt lat="43.23824" lon="0.77047">
        <ele>328.43</ele>
        <time>2013-05-19T14:06:39Z</time>
      </trkpt>
      <trkpt lat="43.23762" lon="0.7715">
        <ele>324.1</ele>
        <time>2013-05-19T14:06:44Z</time>
      </trkpt>
      <trkpt lat="43.23697" lon="0.7726">
        <ele>316.41</ele>
        <time>2013-05-19T14:06:49Z</time>
      </trkpt>
      <trkpt lat="43.23629" lon="0.77376">
        <ele>315.93</ele>
        <time>2013-05-19T14:06:54Z</time>
      </trkpt>
      <trkpt lat="43.23557" lon="0.77484">
        <ele>315.93</ele>
        <time>2013-05-19T14:06:59Z</time>
      </trkpt>
      <trkpt lat="43.23469" lon="0.77543">
        <ele>321.7</ele>
        <time>2013-05-19T14:07:04Z</time>
      </trkpt>
      <trkpt lat="43.23379" lon="0.77582">
        <ele>330.35</ele>
        <time>2013-05-19T14:07:09Z</time>
      </trkpt>
      <trkpt lat="43.23296" lon="0.77654">
        <ele>335.64</ele>
        <time>2013-05-19T14:07:14Z</time>
      </trkpt>
      <trkpt lat="43.23234" lon="0.77762">
        <ele>335.64</ele>
        <time>2013-05-19T14:07:18Z</time>
      </trkpt>
      <trkpt lat="43.23176" lon="0.77889">
        <ele>346.69</ele>
        <time>2013-05-19T14:07:23Z</time>
      </trkpt>
      <trkpt lat="43.23122" lon="0.78011">
        <ele>352.46</ele>
        <time>2013-05-19T14:07:29Z</time>
      </trkpt>
      <trkpt lat="43.23088" lon="0.7814">
        <ele>360.15</ele>
        <time>2013-05-19T14:07:34Z</time>
      </trkpt>
      <trkpt lat="43.23037" lon="0.78244">
        <ele>364.48</ele>
        <time>2013-05-19T14:07:39Z</time>
      </trkpt>
      <trkpt lat="43.2296" lon="0.78317">
        <ele>372.65</ele>
        <time>2013-05-19T14:07:44Z</time>
      </trkpt>
      <trkpt lat="43.22909" lon="0.78433">
        <ele>376.49</ele>
        <time>2013-05-19T14:07:49Z</time>
      </trkpt>
      <trkpt lat="43.22881" lon="0.78568">
        <ele>383.7</ele>
        <time>2013-05-19T14:07:54Z</time>
      </trkpt>
      <trkpt lat="43.22845" lon="0.78684">
        <ele>391.87</ele>
        <time>2013-05-19T14:08:00Z</time>
      </trkpt>
      <trkpt lat="43.228" lon="0.78805">
        <ele>396.68</ele>
        <time>2013-05-19T14:08:09Z</time>
      </trkpt>
      <trkpt lat="43.22777" lon="0.78929">
        <ele>396.2</ele>
        <time>2013-05-19T14:08:22Z</time>
      </trkpt>
      <trkpt lat="43.22772" lon="0.79051">
        <ele>391.39</ele>
        <time>2013-05-19T14:08:36Z</time>
      </trkpt>
      <trkpt lat="43.22799" lon="0.79169">
        <ele>390.43</ele>
        <time>2013-05-19T14:08:48Z</time>
      </trkpt>
      <trkpt lat="43.22745" lon="0.79268">
        <ele>385.63</ele>
        <time>2013-05-19T14:09:00Z</time>
      </trkpt>
      <trkpt lat="43.22716" lon="0.79386">
        <ele>387.55</ele>
        <time>2013-05-19T14:09:08Z</time>
      </trkpt>
      <trkpt lat="43.22708" lon="0.79515">
        <ele>388.03</ele>
        <time>2013-05-19T14:09:15Z</time>
      </trkpt>
      <trkpt lat="43.227" lon="0.79643">
        <ele>389.47</ele>
        <time>2013-05-19T14:09:22Z</time>
      </trkpt>
      <trkpt lat="43.22694" lon="0.79786">
        <ele>391.87</ele>
        <time>2013-05-19T14:09:29Z</time>
      </trkpt>
      <trkpt lat="43.22681" lon="0.79915">
        <ele>394.76</ele>
        <time>2013-05-19T14:09:33Z</time>
      </trkpt>
      <trkpt lat="43.22665" lon="0.8004">
        <ele>395.72</ele>
        <time>2013-05-19T14:09:37Z</time>
      </trkpt>
      <trkpt lat="43.22636" lon="0.80179">
        <ele>398.6</ele>
        <time>2013-05-19T14:09:43Z</time>
      </trkpt>
      <trkpt lat="43.22576" lon="0.80301">
        <ele>402.45</ele>
        <time>2013-05-19T14:09:48Z</time>
      </trkpt>
      <trkpt lat="43.2252" lon="0.80424">
        <ele>406.77</ele>
        <time>2013-05-19T14:09:53Z</time>
      </trkpt>
      <trkpt lat="43.22482" lon="0.80543">
        <ele>406.77</ele>
        <time>2013-05-19T14:09:58Z</time>
      </trkpt>
      <trkpt lat="43.22442" lon="0.80666">
        <ele>402.45</ele>
        <time>2013-05-19T14:10:03Z</time>
      </trkpt>
      <trkpt lat="43.22413" lon="0.80802">
        <ele>403.41</ele>
        <time>2013-05-19T14:10:08Z</time>
      </trkpt>
      <trkpt lat="43.22394" lon="0.80952">
        <ele>406.77</ele>
        <time>2013-05-19T14:10:13Z</time>
      </trkpt>
      <trkpt lat="43.22388" lon="0.81092">
        <ele>403.89</ele>
        <time>2013-05-19T14:10:18Z</time>
      </trkpt>
      <trkpt lat="43.22403" lon="0.81238">
        <ele>397.64</ele>
        <time>2013-05-19T14:10:23Z</time>
      </trkpt>
      <trkpt lat="43.22433" lon="0.81354">
        <ele>391.39</ele>
        <time>2013-05-19T14:10:27Z</time>
      </trkpt>
      <trkpt lat="43.22482" lon="0.81477">
        <ele>388.99</ele>
        <time>2013-05-19T14:10:31Z</time>
      </trkpt>
      <trkpt lat="43.2253" lon="0.8161">
        <ele>388.99</ele>
        <time>2013-05-19T14:10:36Z</time>
      </trkpt>
      <trkpt lat="43.22553" lon="0.81748">
        <ele>387.55</ele>
        <time>2013-05-19T14:10:41Z</time>
      </trkpt>
      <trkpt lat="43.2256" lon="0.81905">
        <ele>389.95</ele>
        <time>2013-05-19T14:10:46Z</time>
      </trkpt>
      <trkpt lat="43.22533" lon="0.82042">
        <ele>384.66</ele>
        <time>2013-05-19T14:10:50Z</time>
      </trkpt>
      <trkpt lat="43.22512" lon="0.82182">
        <ele>382.26</ele>
        <time>2013-05-19T14:10:55Z</time>
      </trkpt>
      <trkpt lat="43.22515" lon="0.82325">
        <ele>379.38</ele>
        <time>2013-05-19T14:11:00Z</time>
      </trkpt>
      <trkpt lat="43.22525" lon="0.82468">
        <ele>375.53</ele>
        <time>2013-05-19T14:11:06Z</time>
      </trkpt>
      <trkpt lat="43.22535" lon="0.82595">
        <ele>377.94</ele>
        <time>2013-05-19T14:11:11Z</time>
      </trkpt>
      <trkpt lat="43.22535" lon="0.82725">
        <ele>377.94</ele>
        <time>2013-05-19T14:11:16Z</time>
      </trkpt>
      <trkpt lat="43.22524" lon="0.82849">
        <ele>383.7</ele>
        <time>2013-05-19T14:11:21Z</time>
      </trkpt>
      <trkpt lat="43.22498" lon="0.82991">
        <ele>380.34</ele>
        <time>2013-05-19T14:11:27Z</time>
      </trkpt>
      <trkpt lat="43.22465" lon="0.8311">
        <ele>384.18</ele>
        <time>2013-05-19T14:11:32Z</time>
      </trkpt>
      <trkpt lat="43.22429" lon="0.83249">
        <ele>384.66</ele>
        <time>2013-05-19T14:11:38Z</time>
      </trkpt>
      <trkpt lat="43.22395" lon="0.8339">
        <ele>377.94</ele>
        <time>2013-05-19T14:11:44Z</time>
      </trkpt>
      <trkpt lat="43.22379" lon="0.83523">
        <ele>368.8</ele>
        <time>2013-05-19T14:11:49Z</time>
      </trkpt>
      <trkpt lat="43.2237" lon="0.8367">
        <ele>362.07</ele>
        <time>2013-05-19T14:11:54Z</time>
      </trkpt>
      <trkpt lat="43.22366" lon="0.83799">
        <ele>360.15</ele>
        <time>2013-05-19T14:11:58Z</time>
      </trkpt>
      <trkpt lat="43.22362" lon="0.83937">
        <ele>354.38</ele>
        <time>2013-05-19T14:12:03Z</time>
      </trkpt>
      <trkpt lat="43.22345" lon="0.84088">
        <ele>346.69</ele>
        <time>2013-05-19T14:12:08Z</time>
      </trkpt>
      <trkpt lat="43.22329" lon="0.8421">
        <ele>340.44</ele>
        <time>2013-05-19T14:12:12Z</time>
      </trkpt>
      <trkpt lat="43.22305" lon="0.84355">
        <ele>333.23</ele>
        <time>2013-05-19T14:12:17Z</time>
      </trkpt>
      <trkpt lat="43.22266" lon="0.84487">
        <ele>323.14</ele>
        <time>2013-05-19T14:12:22Z</time>
      </trkpt>
      <trkpt lat="43.22208" lon="0.84618">
        <ele>314.97</ele>
        <time>2013-05-19T14:12:27Z</time>
      </trkpt>
      <trkpt lat="43.22158" lon="0.84723">
        <ele>310.64</ele>
        <time>2013-05-19T14:12:31Z</time>
      </trkpt>
      <trkpt lat="43.22108" lon="0.84859">
        <ele>306.32</ele>
        <time>2013-05-19T14:12:36Z</time>
      </trkpt>
      <trkpt lat="43.22101" lon="0.84992">
        <ele>309.2</ele>
        <time>2013-05-19T14:12:40Z</time>
      </trkpt>
      <trkpt lat="43.22111" lon="0.85127">
        <ele>310.64</ele>
        <time>2013-05-19T14:12:44Z</time>
      </trkpt>
      <trkpt lat="43.22125" lon="0.85274">
        <ele>309.68</ele>
        <time>2013-05-19T14:12:49Z</time>
      </trkpt>
      <trkpt lat="43.22169" lon="0.85418">
        <ele>319.78</ele>
        <time>2013-05-19T14:12:54Z</time>
      </trkpt>
      <trkpt lat="43.2221" lon="0.85534">
        <ele>332.27</ele>
        <time>2013-05-19T14:12:58Z</time>
      </trkpt>
      <trkpt lat="43.22255" lon="0.85663">
        <ele>332.75</ele>
        <time>2013-05-19T14:13:04Z</time>
      </trkpt>
      <trkpt lat="43.22311" lon="0.85776">
        <ele>330.83</ele>
        <time>2013-05-19T14:13:10Z</time>
      </trkpt>
      <trkpt lat="43.22378" lon="0.8587">
        <ele>327.47</ele>
        <time>2013-05-19T14:13:15Z</time>
      </trkpt>
      <trkpt lat="43.22428" lon="0.85977">
        <ele>323.62</ele>
        <time>2013-05-19T14:13:20Z</time>
      </trkpt>
      <trkpt lat="43.22431" lon="0.86129">
        <ele>325.06</ele>
        <time>2013-05-19T14:13:25Z</time>
      </trkpt>
      <trkpt lat="43.22401" lon="0.86272">
        <ele>327.47</ele>
        <time>2013-05-19T14:13:30Z</time>
      </trkpt>
      <trkpt lat="43.22352" lon="0.86403">
        <ele>334.2</ele>
        <time>2013-05-19T14:13:35Z</time>
      </trkpt>
      <trkpt lat="43.22346" lon="0.86547">
        <ele>337.56</ele>
        <time>2013-05-19T14:13:40Z</time>
      </trkpt>
      <trkpt lat="43.22335" lon="0.8667">
        <ele>339</ele>
        <time>2013-05-19T14:13:44Z</time>
      </trkpt>
      <trkpt lat="43.22305" lon="0.86815">
        <ele>340.44</ele>
        <time>2013-05-19T14:13:49Z</time>
      </trkpt>
      <trkpt lat="43.22277" lon="0.86943">
        <ele>345.73</ele>
        <time>2013-05-19T14:13:53Z</time>
      </trkpt>
      <trkpt lat="43.22254" lon="0.87077">
        <ele>350.06</ele>
        <time>2013-05-19T14:13:59Z</time>
      </trkpt>
      <trkpt lat="43.22229" lon="0.87209">
        <ele>355.34</ele>
        <time>2013-05-19T14:14:08Z</time>
      </trkpt>
      <trkpt lat="43.22208" lon="0.87338">
        <ele>360.15</ele>
        <time>2013-05-19T14:14:15Z</time>
      </trkpt>
      <trkpt lat="43.22186" lon="0.8747">
        <ele>364.96</ele>
        <time>2013-05-19T14:14:22Z</time>
      </trkpt>
      <trkpt lat="43.22154" lon="0.87595">
        <ele>367.84</ele>
        <time>2013-05-19T14:14:29Z</time>
      </trkpt>
      <trkpt lat="43.22072" lon="0.87667">
        <ele>374.09</ele>
        <time>2013-05-19T14:14:36Z</time>
      </trkpt>
      <trkpt lat="43.21989" lon="0.87734">
        <ele>379.38</ele>
        <time>2013-05-19T14:14:43Z</time>
      </trkpt>
      <trkpt lat="43.21918" lon="0.87822">
        <ele>384.18</ele>
        <time>2013-05-19T14:14:50Z</time>
      </trkpt>
      <trkpt lat="43.21858" lon="0.8792">
        <ele>389.47</ele>
        <time>2013-05-19T14:15:00Z</time>
      </trkpt>
      <trkpt lat="43.21776" lon="0.8794">
        <ele>386.59</ele>
        <time>2013-05-19T14:15:13Z</time>
      </trkpt>
      <trkpt lat="43.21697" lon="0.8801">
        <ele>386.59</ele>
        <time>2013-05-19T14:15:26Z</time>
      </trkpt>
      <trkpt lat="43.21638" lon="0.88115">
        <ele>388.51</ele>
        <time>2013-05-19T14:15:37Z</time>
      </trkpt>
      <trkpt lat="43.21607" lon="0.88233">
        <ele>382.74</ele>
        <time>2013-05-19T14:15:52Z</time>
      </trkpt>
      <trkpt lat="43.21625" lon="0.8836">
        <ele>387.55</ele>
        <time>2013-05-19T14:16:06Z</time>
      </trkpt>
      <trkpt lat="43.2168" lon="0.88472">
        <ele>390.43</ele>
        <time>2013-05-19T14:16:20Z</time>
      </trkpt>
      <trkpt lat="43.2174" lon="0.88577">
        <ele>395.24</ele>
        <time>2013-05-19T14:16:28Z</time>
      </trkpt>
      <trkpt lat="43.21788" lon="0.88691">
        <ele>393.8</ele>
        <time>2013-05-19T14:16:36Z</time>
      </trkpt>
      <trkpt lat="43.2176" lon="0.88817">
        <ele>392.36</ele>
        <time>2013-05-19T14:16:44Z</time>
      </trkpt>
      <trkpt lat="43.21694" lon="0.88916">
        <ele>389.95</ele>
        <time>2013-05-19T14:16:51Z</time>
      </trkpt>
      <trkpt lat="43.21622" lon="0.8901">
        <ele>396.68</ele>
        <time>2013-05-19T14:16:58Z</time>
      </trkpt>
      <trkpt lat="43.21553" lon="0.891">
        <ele>398.12</ele>
        <time>2013-05-19T14:17:05Z</time>
      </trkpt>
      <trkpt lat="43.21485" lon="0.8919">
        <ele>398.6</ele>
        <time>2013-05-19T14:17:12Z</time>
      </trkpt>
      <trkpt lat="43.21418" lon="0.89278">
        <ele>404.37</ele>
        <time>2013-05-19T14:17:19Z</time>
      </trkpt>
      <trkpt lat="43.21354" lon="0.89371">
        <ele>412.06</ele>
        <time>2013-05-19T14:17:26Z</time>
      </trkpt>
      <trkpt lat="43.21298" lon="0.89478">
        <ele>415.43</ele>
        <time>2013-05-19T14:17:31Z</time>
      </trkpt>
      <trkpt lat="43.21242" lon="0.89596">
        <ele>422.16</ele>
        <time>2013-05-19T14:17:35Z</time>
      </trkpt>
      <trkpt lat="43.21186" lon="0.89695">
        <ele>425.04</ele>
        <time>2013-05-19T14:17:40Z</time>
      </trkpt>
      <trkpt lat="43.21118" lon="0.89777">
        <ele>426</ele>
        <time>2013-05-19T14:17:48Z</time>
      </trkpt>
      <trkpt lat="43.21036" lon="0.89808">
        <ele>423.6</ele>
        <time>2013-05-19T14:18:01Z</time>
      </trkpt>
      <trkpt lat="43.20958" lon="0.89859">
        <ele>426.96</ele>
        <time>2013-05-19T14:18:17Z</time>
      </trkpt>
      <trkpt lat="43.20924" lon="0.89943">
        <ele>424.08</ele>
        <time>2013-05-19T14:29:56Z</time>
      </trkpt>
      <trkpt lat="43.20916" lon="0.90076">
        <ele>417.83</ele>
        <time>2013-05-19T14:30:06Z</time>
      </trkpt>
      <trkpt lat="43.20902" lon="0.90203">
        <ele>413.02</ele>
        <time>2013-05-19T14:30:16Z</time>
      </trkpt>
      <trkpt lat="43.20867" lon="0.90319">
        <ele>411.1</ele>
        <time>2013-05-19T14:30:20Z</time>
      </trkpt>
      <trkpt lat="43.20811" lon="0.90435">
        <ele>410.14</ele>
        <time>2013-05-19T14:30:24Z</time>
      </trkpt>
      <trkpt lat="43.20747" lon="0.90559">
        <ele>411.58</ele>
        <time>2013-05-19T14:30:28Z</time>
      </trkpt>
      <trkpt lat="43.20679" lon="0.90675">
        <ele>413.5</ele>
        <time>2013-05-19T14:30:32Z</time>
      </trkpt>
      <trkpt lat="43.20605" lon="0.908">
        <ele>413.98</ele>
        <time>2013-05-19T14:30:36Z</time>
      </trkpt>
      <trkpt lat="43.20545" lon="0.90899">
        <ele>405.33</ele>
        <time>2013-05-19T14:30:39Z</time>
      </trkpt>
      <trkpt lat="43.20501" lon="0.91021">
        <ele>395.72</ele>
        <time>2013-05-19T14:30:42Z</time>
      </trkpt>
      <trkpt lat="43.20478" lon="0.91159">
        <ele>392.84</ele>
        <time>2013-05-19T14:30:45Z</time>
      </trkpt>
      <trkpt lat="43.20465" lon="0.91281">
        <ele>394.76</ele>
        <time>2013-05-19T14:30:48Z</time>
      </trkpt>
      <trkpt lat="43.20441" lon="0.91405">
        <ele>396.2</ele>
        <time>2013-05-19T14:30:52Z</time>
      </trkpt>
      <trkpt lat="43.20371" lon="0.91524">
        <ele>396.68</ele>
        <time>2013-05-19T14:30:57Z</time>
      </trkpt>
      <trkpt lat="43.20287" lon="0.91584">
        <ele>397.64</ele>
        <time>2013-05-19T14:31:01Z</time>
      </trkpt>
      <trkpt lat="43.20194" lon="0.91599">
        <ele>398.6</ele>
        <time>2013-05-19T14:31:05Z</time>
      </trkpt>
      <trkpt lat="43.201" lon="0.91585">
        <ele>390.91</ele>
        <time>2013-05-19T14:31:09Z</time>
      </trkpt>
      <trkpt lat="43.19992" lon="0.91576">
        <ele>391.39</ele>
        <time>2013-05-19T14:31:14Z</time>
      </trkpt>
      <trkpt lat="43.19906" lon="0.91624">
        <ele>395.72</ele>
        <time>2013-05-19T14:31:19Z</time>
      </trkpt>
      <trkpt lat="43.19836" lon="0.91725">
        <ele>399.57</ele>
        <time>2013-05-19T14:31:24Z</time>
      </trkpt>
      <trkpt lat="43.19791" lon="0.91831">
        <ele>401.01</ele>
        <time>2013-05-19T14:31:28Z</time>
      </trkpt>
      <trkpt lat="43.19735" lon="0.91963">
        <ele>401.01</ele>
        <time>2013-05-19T14:31:33Z</time>
      </trkpt>
      <trkpt lat="43.19661" lon="0.92073">
        <ele>405.81</ele>
        <time>2013-05-19T14:31:38Z</time>
      </trkpt>
      <trkpt lat="43.19586" lon="0.92173">
        <ele>404.85</ele>
        <time>2013-05-19T14:31:43Z</time>
      </trkpt>
      <trkpt lat="43.19515" lon="0.92271">
        <ele>399.08</ele>
        <time>2013-05-19T14:31:47Z</time>
      </trkpt>
      <trkpt lat="43.19445" lon="0.92365">
        <ele>396.68</ele>
        <time>2013-05-19T14:31:51Z</time>
      </trkpt>
      <trkpt lat="43.19392" lon="0.92467">
        <ele>396.68</ele>
        <time>2013-05-19T14:31:55Z</time>
      </trkpt>
      <trkpt lat="43.19349" lon="0.92599">
        <ele>407.74</ele>
        <time>2013-05-19T14:32:00Z</time>
      </trkpt>
      <trkpt lat="43.19314" lon="0.92712">
        <ele>406.29</ele>
        <time>2013-05-19T14:32:05Z</time>
      </trkpt>
      <trkpt lat="43.19266" lon="0.92827">
        <ele>404.37</ele>
        <time>2013-05-19T14:32:11Z</time>
      </trkpt>
      <trkpt lat="43.19259" lon="0.92961">
        <ele>399.57</ele>
        <time>2013-05-19T14:32:17Z</time>
      </trkpt>
      <trkpt lat="43.19266" lon="0.93095">
        <ele>395.72</ele>
        <time>2013-05-19T14:32:22Z</time>
      </trkpt>
      <trkpt lat="43.19252" lon="0.93225">
        <ele>386.59</ele>
        <time>2013-05-19T14:32:26Z</time>
      </trkpt>
      <trkpt lat="43.19215" lon="0.93371">
        <ele>385.15</ele>
        <time>2013-05-19T14:32:30Z</time>
      </trkpt>
      <trkpt lat="43.19171" lon="0.93489">
        <ele>382.74</ele>
        <time>2013-05-19T14:32:34Z</time>
      </trkpt>
      <trkpt lat="43.19106" lon="0.93586">
        <ele>380.82</ele>
        <time>2013-05-19T14:32:40Z</time>
      </trkpt>
      <trkpt lat="43.19031" lon="0.93669">
        <ele>374.09</ele>
        <time>2013-05-19T14:32:51Z</time>
      </trkpt>
      <trkpt lat="43.1894" lon="0.93695">
        <ele>370.24</ele>
        <time>2013-05-19T14:32:58Z</time>
      </trkpt>
      <trkpt lat="43.18846" lon="0.93736">
        <ele>366.88</ele>
        <time>2013-05-19T14:33:06Z</time>
      </trkpt>
      <trkpt lat="43.18747" lon="0.93775">
        <ele>364</ele>
        <time>2013-05-19T14:33:14Z</time>
      </trkpt>
      <trkpt lat="43.18658" lon="0.93834">
        <ele>362.07</ele>
        <time>2013-05-19T14:33:20Z</time>
      </trkpt>
      <trkpt lat="43.18585" lon="0.93926">
        <ele>360.15</ele>
        <time>2013-05-19T14:33:27Z</time>
      </trkpt>
      <trkpt lat="43.18515" lon="0.94025">
        <ele>357.27</ele>
        <time>2013-05-19T14:33:34Z</time>
      </trkpt>
      <trkpt lat="43.18435" lon="0.94103">
        <ele>355.83</ele>
        <time>2013-05-19T14:33:40Z</time>
      </trkpt>
      <trkpt lat="43.18351" lon="0.94186">
        <ele>350.54</ele>
        <time>2013-05-19T14:33:46Z</time>
      </trkpt>
      <trkpt lat="43.18251" lon="0.94261">
        <ele>349.58</ele>
        <time>2013-05-19T14:33:51Z</time>
      </trkpt>
      <trkpt lat="43.18145" lon="0.94327">
        <ele>341.41</ele>
        <time>2013-05-19T14:33:55Z</time>
      </trkpt>
      <trkpt lat="43.18062" lon="0.94373">
        <ele>342.85</ele>
        <time>2013-05-19T14:33:59Z</time>
      </trkpt>
      <trkpt lat="43.17965" lon="0.9442">
        <ele>341.41</ele>
        <time>2013-05-19T14:34:04Z</time>
      </trkpt>
      <trkpt lat="43.17882" lon="0.94481">
        <ele>335.16</ele>
        <time>2013-05-19T14:34:08Z</time>
      </trkpt>
      <trkpt lat="43.17799" lon="0.9455">
        <ele>327.95</ele>
        <time>2013-05-19T14:34:12Z</time>
      </trkpt>
      <trkpt lat="43.17728" lon="0.94636">
        <ele>321.7</ele>
        <time>2013-05-19T14:34:16Z</time>
      </trkpt>
      <trkpt lat="43.17669" lon="0.94735">
        <ele>320.74</ele>
        <time>2013-05-19T14:34:20Z</time>
      </trkpt>
      <trkpt lat="43.17619" lon="0.94838">
        <ele>318.81</ele>
        <time>2013-05-19T14:34:24Z</time>
      </trkpt>
      <trkpt lat="43.17567" lon="0.94944">
        <ele>315.93</ele>
        <time>2013-05-19T14:34:28Z</time>
      </trkpt>
      <trkpt lat="43.17505" lon="0.95069">
        <ele>311.12</ele>
        <time>2013-05-19T14:34:33Z</time>
      </trkpt>
      <trkpt lat="43.17458" lon="0.95184">
        <ele>309.68</ele>
        <time>2013-05-19T14:34:37Z</time>
      </trkpt>
      <trkpt lat="43.1742" lon="0.95304">
        <ele>308.24</ele>
        <time>2013-05-19T14:34:41Z</time>
      </trkpt>
      <trkpt lat="43.17391" lon="0.95423">
        <ele>306.8</ele>
        <time>2013-05-19T14:34:45Z</time>
      </trkpt>
      <trkpt lat="43.17364" lon="0.95565">
        <ele>304.39</ele>
        <time>2013-05-19T14:34:50Z</time>
      </trkpt>
      <trkpt lat="43.17327" lon="0.957">
        <ele>300.55</ele>
        <time>2013-05-19T14:34:55Z</time>
      </trkpt>
      <trkpt lat="43.17292" lon="0.95835">
        <ele>298.15</ele>
        <time>2013-05-19T14:35:01Z</time>
      </trkpt>
      <trkpt lat="43.17286" lon="0.95966">
        <ele>294.3</ele>
        <time>2013-05-19T14:35:07Z</time>
      </trkpt>
      <trkpt lat="43.17285" lon="0.9611">
        <ele>290.46</ele>
        <time>2013-05-19T14:35:14Z</time>
      </trkpt>
      <trkpt lat="43.17323" lon="0.96231">
        <ele>287.09</ele>
        <time>2013-05-19T14:35:20Z</time>
      </trkpt>
      <trkpt lat="43.17356" lon="0.96352">
        <ele>284.69</ele>
        <time>2013-05-19T14:35:27Z</time>
      </trkpt>
      <trkpt lat="43.1734" lon="0.96478">
        <ele>280.36</ele>
        <time>2013-05-19T14:35:36Z</time>
      </trkpt>
      <trkpt lat="43.17263" lon="0.96542">
        <ele>278.44</ele>
        <time>2013-05-19T14:35:49Z</time>
      </trkpt>
      <trkpt lat="43.17213" lon="0.9667">
        <ele>273.63</ele>
        <time>2013-05-19T14:35:56Z</time>
      </trkpt>
      <trkpt lat="43.17168" lon="0.9678">
        <ele>269.31</ele>
        <time>2013-05-19T14:36:01Z</time>
      </trkpt>
      <trkpt lat="43.17117" lon="0.9689">
        <ele>271.23</ele>
        <time>2013-05-19T14:36:13Z</time>
      </trkpt>
      <trkpt lat="43.17079" lon="0.97009">
        <ele>275.56</ele>
        <time>2013-05-19T14:36:22Z</time>
      </trkpt>
      <trkpt lat="43.17038" lon="0.97151">
        <ele>274.11</ele>
        <time>2013-05-19T14:36:28Z</time>
      </trkpt>
      <trkpt lat="43.17003" lon="0.97273">
        <ele>280.36</ele>
        <time>2013-05-19T14:36:33Z</time>
      </trkpt>
      <trkpt lat="43.16967" lon="0.97396">
        <ele>276.52</ele>
        <time>2013-05-19T14:36:40Z</time>
      </trkpt>
      <trkpt lat="43.16935" lon="0.97503">
        <ele>274.11</ele>
        <time>2013-05-19T14:36:55Z</time>
      </trkpt>
      <trkpt lat="43.17012" lon="0.97567">
        <ele>275.07</ele>
        <time>2013-05-19T14:37:09Z</time>
      </trkpt>
      <trkpt lat="43.171" lon="0.97613">
        <ele>274.11</ele>
        <time>2013-05-19T14:37:16Z</time>
      </trkpt>
      <trkpt lat="43.17191" lon="0.97659">
        <ele>274.11</ele>
        <time>2013-05-19T14:37:25Z</time>
      </trkpt>
      <trkpt lat="43.17282" lon="0.97715">
        <ele>272.67</ele>
        <time>2013-05-19T14:37:33Z</time>
      </trkpt>
      <trkpt lat="43.17371" lon="0.9779">
        <ele>272.19</ele>
        <time>2013-05-19T14:37:41Z</time>
      </trkpt>
      <trkpt lat="43.17461" lon="0.97862">
        <ele>272.19</ele>
        <time>2013-05-19T14:37:48Z</time>
      </trkpt>
      <trkpt lat="43.17527" lon="0.97955">
        <ele>269.79</ele>
        <time>2013-05-19T14:37:54Z</time>
      </trkpt>
      <trkpt lat="43.17583" lon="0.98081">
        <ele>270.75</ele>
        <time>2013-05-19T14:37:59Z</time>
      </trkpt>
      <trkpt lat="43.17636" lon="0.98193">
        <ele>271.71</ele>
        <time>2013-05-19T14:38:04Z</time>
      </trkpt>
      <trkpt lat="43.17687" lon="0.98323">
        <ele>268.35</ele>
        <time>2013-05-19T14:38:10Z</time>
      </trkpt>
      <trkpt lat="43.17713" lon="0.98466">
        <ele>268.35</ele>
        <time>2013-05-19T14:38:15Z</time>
      </trkpt>
      <trkpt lat="43.17754" lon="0.98597">
        <ele>263.54</ele>
        <time>2013-05-19T14:38:20Z</time>
      </trkpt>
      <trkpt lat="43.17821" lon="0.98715">
        <ele>265.46</ele>
        <time>2013-05-19T14:38:25Z</time>
      </trkpt>
      <trkpt lat="43.17886" lon="0.9882">
        <ele>268.35</ele>
        <time>2013-05-19T14:38:30Z</time>
      </trkpt>
      <trkpt lat="43.17957" lon="0.98926">
        <ele>266.9</ele>
        <time>2013-05-19T14:38:35Z</time>
      </trkpt>
      <trkpt lat="43.18019" lon="0.99043">
        <ele>270.27</ele>
        <time>2013-05-19T14:38:40Z</time>
      </trkpt>
      <trkpt lat="43.18068" lon="0.99176">
        <ele>274.11</ele>
        <time>2013-05-19T14:38:45Z</time>
      </trkpt>
      <trkpt lat="43.18111" lon="0.99304">
        <ele>277.96</ele>
        <time>2013-05-19T14:38:51Z</time>
      </trkpt>
      <trkpt lat="43.18191" lon="0.99396">
        <ele>274.59</ele>
        <time>2013-05-19T14:38:57Z</time>
      </trkpt>
      <trkpt lat="43.18269" lon="0.99483">
        <ele>270.75</ele>
        <time>2013-05-19T14:39:02Z</time>
      </trkpt>
      <trkpt lat="43.18318" lon="0.99603">
        <ele>268.83</ele>
        <time>2013-05-19T14:39:08Z</time>
      </trkpt>
      <trkpt lat="43.18348" lon="0.9973">
        <ele>269.31</ele>
        <time>2013-05-19T14:39:13Z</time>
      </trkpt>
      <trkpt lat="43.18386" lon="0.99863">
        <ele>272.19</ele>
        <time>2013-05-19T14:39:19Z</time>
      </trkpt>
      <trkpt lat="43.1845" lon="0.99974">
        <ele>267.86</ele>
        <time>2013-05-19T14:39:25Z</time>
      </trkpt>
      <trkpt lat="43.18476" lon="1.00097">
        <ele>266.9</ele>
        <time>2013-05-19T14:39:30Z</time>
      </trkpt>
      <trkpt lat="43.18489" lon="1.00238">
        <ele>266.42</ele>
        <time>2013-05-19T14:39:35Z</time>
      </trkpt>
      <trkpt lat="43.18504" lon="1.00372">
        <ele>262.58</ele>
        <time>2013-05-19T14:39:40Z</time>
      </trkpt>
      <trkpt lat="43.18481" lon="1.00514">
        <ele>260.65</ele>
        <time>2013-05-19T14:39:45Z</time>
      </trkpt>
      <trkpt lat="43.18453" lon="1.00635">
        <ele>260.17</ele>
        <time>2013-05-19T14:39:50Z</time>
      </trkpt>
      <trkpt lat="43.1848" lon="1.00766">
        <ele>259.69</ele>
        <time>2013-05-19T14:39:57Z</time>
      </trkpt>
      <trkpt lat="43.18544" lon="1.00873">
        <ele>259.69</ele>
        <time>2013-05-19T14:40:02Z</time>
      </trkpt>
      <trkpt lat="43.18592" lon="1.00992">
        <ele>257.77</ele>
        <time>2013-05-19T14:40:07Z</time>
      </trkpt>
      <trkpt lat="43.1861" lon="1.01117">
        <ele>264.5</ele>
        <time>2013-05-19T14:40:12Z</time>
      </trkpt>
      <trkpt lat="43.18592" lon="1.01255">
        <ele>269.31</ele>
        <time>2013-05-19T14:40:18Z</time>
      </trkpt>
      <trkpt lat="43.18601" lon="1.0139">
        <ele>271.23</ele>
        <time>2013-05-19T14:40:24Z</time>
      </trkpt>
      <trkpt lat="43.18632" lon="1.01504">
        <ele>268.35</ele>
        <time>2013-05-19T14:40:30Z</time>
      </trkpt>
      <trkpt lat="43.18679" lon="1.01631">
        <ele>264.02</ele>
        <time>2013-05-19T14:40:36Z</time>
      </trkpt>
      <trkpt lat="43.18736" lon="1.01732">
        <ele>263.06</ele>
        <time>2013-05-19T14:40:41Z</time>
      </trkpt>
      <trkpt lat="43.18799" lon="1.01825">
        <ele>258.25</ele>
        <time>2013-05-19T14:40:47Z</time>
      </trkpt>
      <trkpt lat="43.18865" lon="1.01929">
        <ele>255.37</ele>
        <time>2013-05-19T14:40:54Z</time>
      </trkpt>
      <trkpt lat="43.18907" lon="1.02061">
        <ele>253.93</ele>
        <time>2013-05-19T14:40:59Z</time>
      </trkpt>
      <trkpt lat="43.18943" lon="1.02178">
        <ele>254.89</ele>
        <time>2013-05-19T14:41:04Z</time>
      </trkpt>
      <trkpt lat="43.18988" lon="1.02314">
        <ele>255.37</ele>
        <time>2013-05-19T14:41:10Z</time>
      </trkpt>
      <trkpt lat="43.19026" lon="1.02426">
        <ele>254.41</ele>
        <time>2013-05-19T14:41:15Z</time>
      </trkpt>
      <trkpt lat="43.19042" lon="1.02548">
        <ele>254.89</ele>
        <time>2013-05-19T14:41:20Z</time>
      </trkpt>
      <trkpt lat="43.1904" lon="1.02683">
        <ele>253.93</ele>
        <time>2013-05-19T14:41:26Z</time>
      </trkpt>
      <trkpt lat="43.19018" lon="1.02807">
        <ele>253.44</ele>
        <time>2013-05-19T14:41:36Z</time>
      </trkpt>
      <trkpt lat="43.19101" lon="1.02842">
        <ele>251.52</ele>
        <time>2013-05-19T14:41:46Z</time>
      </trkpt>
      <trkpt lat="43.19194" lon="1.02891">
        <ele>251.52</ele>
        <time>2013-05-19T14:41:56Z</time>
      </trkpt>
      <trkpt lat="43.19239" lon="1.0301">
        <ele>249.6</ele>
        <time>2013-05-19T14:42:03Z</time>
      </trkpt>
      <trkpt lat="43.19209" lon="1.03132">
        <ele>249.12</ele>
        <time>2013-05-19T14:42:09Z</time>
      </trkpt>
      <trkpt lat="43.19176" lon="1.0325">
        <ele>249.12</ele>
        <time>2013-05-19T14:42:15Z</time>
      </trkpt>
      <trkpt lat="43.19121" lon="1.03357">
        <ele>248.64</ele>
        <time>2013-05-19T14:42:22Z</time>
      </trkpt>
      <trkpt lat="43.19066" lon="1.03461">
        <ele>250.08</ele>
        <time>2013-05-19T14:42:30Z</time>
      </trkpt>
      <trkpt lat="43.1903" lon="1.03584">
        <ele>248.64</ele>
        <time>2013-05-19T14:42:36Z</time>
      </trkpt>
      <trkpt lat="43.19014" lon="1.03708">
        <ele>247.2</ele>
        <time>2013-05-19T14:42:44Z</time>
      </trkpt>
      <trkpt lat="43.19053" lon="1.03831">
        <ele>251.04</ele>
        <time>2013-05-19T14:42:52Z</time>
      </trkpt>
      <trkpt lat="43.19144" lon="1.03898">
        <ele>254.89</ele>
        <time>2013-05-19T14:42:58Z</time>
      </trkpt>
      <trkpt lat="43.1922" lon="1.03964">
        <ele>257.29</ele>
        <time>2013-05-19T14:43:05Z</time>
      </trkpt>
      <trkpt lat="43.19304" lon="1.04014">
        <ele>264.5</ele>
        <time>2013-05-19T14:43:14Z</time>
      </trkpt>
      <trkpt lat="43.19395" lon="1.04083">
        <ele>266.42</ele>
        <time>2013-05-19T14:43:22Z</time>
      </trkpt>
      <trkpt lat="43.19445" lon="1.04217">
        <ele>265.46</ele>
        <time>2013-05-19T14:43:28Z</time>
      </trkpt>
      <trkpt lat="43.19471" lon="1.04356">
        <ele>265.46</ele>
        <time>2013-05-19T14:43:34Z</time>
      </trkpt>
      <trkpt lat="43.19522" lon="1.04473">
        <ele>261.14</ele>
        <time>2013-05-19T14:43:40Z</time>
      </trkpt>
      <trkpt lat="43.19562" lon="1.04576">
        <ele>257.29</ele>
        <time>2013-05-19T14:43:46Z</time>
      </trkpt>
      <trkpt lat="43.19556" lon="1.04701">
        <ele>255.85</ele>
        <time>2013-05-19T14:43:51Z</time>
      </trkpt>
      <trkpt lat="43.19559" lon="1.04837">
        <ele>252.48</ele>
        <time>2013-05-19T14:43:56Z</time>
      </trkpt>
      <trkpt lat="43.19564" lon="1.04962">
        <ele>250.08</ele>
        <time>2013-05-19T14:44:01Z</time>
      </trkpt>
      <trkpt lat="43.19533" lon="1.05091">
        <ele>248.16</ele>
        <time>2013-05-19T14:44:06Z</time>
      </trkpt>
      <trkpt lat="43.19505" lon="1.05213">
        <ele>249.6</ele>
        <time>2013-05-19T14:44:11Z</time>
      </trkpt>
      <trkpt lat="43.19493" lon="1.05348">
        <ele>244.79</ele>
        <time>2013-05-19T14:44:16Z</time>
      </trkpt>
      <trkpt lat="43.19489" lon="1.05484">
        <ele>245.27</ele>
        <time>2013-05-19T14:44:21Z</time>
      </trkpt>
      <trkpt lat="43.19493" lon="1.05615">
        <ele>244.31</ele>
        <time>2013-05-19T14:44:26Z</time>
      </trkpt>
      <trkpt lat="43.19492" lon="1.05741">
        <ele>244.79</ele>
        <time>2013-05-19T14:44:32Z</time>
      </trkpt>
      <trkpt lat="43.19505" lon="1.05875">
        <ele>244.31</ele>
        <time>2013-05-19T14:44:40Z</time>
      </trkpt>
      <trkpt lat="43.19526" lon="1.06012">
        <ele>242.87</ele>
        <time>2013-05-19T14:44:47Z</time>
      </trkpt>
      <trkpt lat="43.19567" lon="1.06146">
        <ele>242.39</ele>
        <time>2013-05-19T14:44:53Z</time>
      </trkpt>
      <trkpt lat="43.1961" lon="1.06267">
        <ele>242.39</ele>
        <time>2013-05-19T14:44:58Z</time>
      </trkpt>
      <trkpt lat="43.19638" lon="1.06396">
        <ele>242.39</ele>
        <time>2013-05-19T14:45:04Z</time>
      </trkpt>
      <trkpt lat="43.19653" lon="1.0652">
        <ele>240.95</ele>
        <time>2013-05-19T14:45:10Z</time>
      </trkpt>
      <trkpt lat="43.19675" lon="1.06647">
        <ele>241.43</ele>
        <time>2013-05-19T14:45:17Z</time>
      </trkpt>
      <trkpt lat="43.19696" lon="1.0678">
        <ele>240.47</ele>
        <time>2013-05-19T14:45:24Z</time>
      </trkpt>
      <trkpt lat="43.19732" lon="1.06905">
        <ele>240.95</ele>
        <time>2013-05-19T14:45:30Z</time>
      </trkpt>
      <trkpt lat="43.19773" lon="1.0702">
        <ele>240.95</ele>
        <time>2013-05-19T14:45:36Z</time>
      </trkpt>
      <trkpt lat="43.19791" lon="1.07151">
        <ele>239.51</ele>
        <time>2013-05-19T14:45:42Z</time>
      </trkpt>
      <trkpt lat="43.1978" lon="1.07281">
        <ele>239.02</ele>
        <time>2013-05-19T14:45:47Z</time>
      </trkpt>
      <trkpt lat="43.19756" lon="1.07422">
        <ele>238.06</ele>
        <time>2013-05-19T14:45:52Z</time>
      </trkpt>
      <trkpt lat="43.19727" lon="1.07548">
        <ele>238.54</ele>
        <time>2013-05-19T14:45:57Z</time>
      </trkpt>
      <trkpt lat="43.19726" lon="1.07673">
        <ele>238.06</ele>
        <time>2013-05-19T14:46:03Z</time>
      </trkpt>
      <trkpt lat="43.19744" lon="1.07793">
        <ele>237.1</ele>
        <time>2013-05-19T14:46:08Z</time>
      </trkpt>
      <trkpt lat="43.19771" lon="1.07924">
        <ele>237.58</ele>
        <time>2013-05-19T14:46:13Z</time>
      </trkpt>
      <trkpt lat="43.19808" lon="1.08045">
        <ele>237.1</ele>
        <time>2013-05-19T14:46:18Z</time>
      </trkpt>
      <trkpt lat="43.1986" lon="1.08168">
        <ele>237.1</ele>
        <time>2013-05-19T14:46:24Z</time>
      </trkpt>
      <trkpt lat="43.19886" lon="1.08305">
        <ele>239.02</ele>
        <time>2013-05-19T14:46:30Z</time>
      </trkpt>
      <trkpt lat="43.19859" lon="1.08442">
        <ele>238.54</ele>
        <time>2013-05-19T14:46:36Z</time>
      </trkpt>
      <trkpt lat="43.19869" lon="1.08568">
        <ele>239.51</ele>
        <time>2013-05-19T14:46:43Z</time>
      </trkpt>
      <trkpt lat="43.19916" lon="1.0868">
        <ele>236.62</ele>
        <time>2013-05-19T14:46:50Z</time>
      </trkpt>
      <trkpt lat="43.1992" lon="1.08812">
        <ele>240.95</ele>
        <time>2013-05-19T14:46:57Z</time>
      </trkpt>
      <trkpt lat="43.19993" lon="1.08866">
        <ele>246.23</ele>
        <time>2013-05-19T14:47:05Z</time>
      </trkpt>
      <trkpt lat="43.20037" lon="1.08912">
        <ele>251.52</ele>
        <time>2013-05-19T14:47:24Z</time>
      </trkpt>
      <trkpt lat="43.19944" lon="1.0895">
        <ele>253.44</ele>
        <time>2013-05-19T14:47:32Z</time>
      </trkpt>
      <trkpt lat="43.19848" lon="1.08978">
        <ele>259.69</ele>
        <time>2013-05-19T14:47:42Z</time>
      </trkpt>
      <trkpt lat="43.19773" lon="1.08925">
        <ele>268.35</ele>
        <time>2013-05-19T14:47:52Z</time>
      </trkpt>
      <trkpt lat="43.19781" lon="1.09061">
        <ele>277.48</ele>
        <time>2013-05-19T14:48:00Z</time>
      </trkpt>
      <trkpt lat="43.19767" lon="1.09174">
        <ele>286.13</ele>
        <time>2013-05-19T14:48:13Z</time>
      </trkpt>
      <trkpt lat="43.19676" lon="1.09202">
        <ele>289.97</ele>
        <time>2013-05-19T14:48:20Z</time>
      </trkpt>
      <trkpt lat="43.19578" lon="1.09231">
        <ele>289.49</ele>
        <time>2013-05-19T14:48:25Z</time>
      </trkpt>
      <trkpt lat="43.19474" lon="1.09263">
        <ele>286.13</ele>
        <time>2013-05-19T14:48:29Z</time>
      </trkpt>
      <trkpt lat="43.19366" lon="1.09295">
        <ele>286.13</ele>
        <time>2013-05-19T14:48:34Z</time>
      </trkpt>
      <trkpt lat="43.19272" lon="1.09324">
        <ele>287.57</ele>
        <time>2013-05-19T14:48:39Z</time>
      </trkpt>
      <trkpt lat="43.19172" lon="1.09302">
        <ele>289.49</ele>
        <time>2013-05-19T14:48:45Z</time>
      </trkpt>
      <trkpt lat="43.19078" lon="1.0923">
        <ele>293.82</ele>
        <time>2013-05-19T14:48:50Z</time>
      </trkpt>
      <trkpt lat="43.18993" lon="1.09166">
        <ele>294.78</ele>
        <time>2013-05-19T14:48:55Z</time>
      </trkpt>
      <trkpt lat="43.18913" lon="1.09105">
        <ele>298.63</ele>
        <time>2013-05-19T14:49:00Z</time>
      </trkpt>
      <trkpt lat="43.18825" lon="1.09051">
        <ele>302.95</ele>
        <time>2013-05-19T14:49:06Z</time>
      </trkpt>
      <trkpt lat="43.18719" lon="1.09054">
        <ele>302.47</ele>
        <time>2013-05-19T14:49:12Z</time>
      </trkpt>
      <trkpt lat="43.18629" lon="1.09057">
        <ele>303.43</ele>
        <time>2013-05-19T14:49:17Z</time>
      </trkpt>
      <trkpt lat="43.18539" lon="1.09072">
        <ele>306.32</ele>
        <time>2013-05-19T14:49:22Z</time>
      </trkpt>
      <trkpt lat="43.18443" lon="1.091">
        <ele>307.76</ele>
        <time>2013-05-19T14:49:27Z</time>
      </trkpt>
      <trkpt lat="43.18344" lon="1.09129">
        <ele>308.72</ele>
        <time>2013-05-19T14:49:32Z</time>
      </trkpt>
      <trkpt lat="43.18255" lon="1.09155">
        <ele>307.76</ele>
        <time>2013-05-19T14:49:36Z</time>
      </trkpt>
      <trkpt lat="43.1815" lon="1.09185">
        <ele>306.8</ele>
        <time>2013-05-19T14:49:41Z</time>
      </trkpt>
      <trkpt lat="43.18058" lon="1.09211">
        <ele>306.8</ele>
        <time>2013-05-19T14:49:46Z</time>
      </trkpt>
      <trkpt lat="43.17979" lon="1.09275">
        <ele>312.57</ele>
        <time>2013-05-19T14:49:52Z</time>
      </trkpt>
      <trkpt lat="43.17901" lon="1.09342">
        <ele>314.49</ele>
        <time>2013-05-19T14:49:58Z</time>
      </trkpt>
      <trkpt lat="43.17802" lon="1.09335">
        <ele>314.49</ele>
        <time>2013-05-19T14:50:03Z</time>
      </trkpt>
      <trkpt lat="43.17697" lon="1.09319">
        <ele>316.89</ele>
        <time>2013-05-19T14:50:09Z</time>
      </trkpt>
      <trkpt lat="43.1761" lon="1.0928">
        <ele>316.41</ele>
        <time>2013-05-19T14:50:15Z</time>
      </trkpt>
      <trkpt lat="43.1751" lon="1.09316">
        <ele>319.78</ele>
        <time>2013-05-19T14:50:21Z</time>
      </trkpt>
      <trkpt lat="43.17428" lon="1.09369">
        <ele>326.02</ele>
        <time>2013-05-19T14:50:27Z</time>
      </trkpt>
      <trkpt lat="43.17329" lon="1.09411">
        <ele>330.35</ele>
        <time>2013-05-19T14:50:33Z</time>
      </trkpt>
      <trkpt lat="43.1723" lon="1.09443">
        <ele>327.47</ele>
        <time>2013-05-19T14:50:39Z</time>
      </trkpt>
      <trkpt lat="43.17153" lon="1.09406">
        <ele>322.66</ele>
        <time>2013-05-19T14:50:49Z</time>
      </trkpt>
      <trkpt lat="43.17076" lon="1.09384">
        <ele>318.81</ele>
        <time>2013-05-19T14:51:00Z</time>
      </trkpt>
      <trkpt lat="43.17032" lon="1.09499">
        <ele>315.93</ele>
        <time>2013-05-19T14:51:12Z</time>
      </trkpt>
      <trkpt lat="43.16937" lon="1.09412">
        <ele>311.6</ele>
        <time>2013-05-19T14:51:24Z</time>
      </trkpt>
      <trkpt lat="43.16819" lon="1.09418">
        <ele>305.84</ele>
        <time>2013-05-19T14:51:34Z</time>
      </trkpt>
      <trkpt lat="43.16717" lon="1.09404">
        <ele>309.68</ele>
        <time>2013-05-19T14:51:41Z</time>
      </trkpt>
      <trkpt lat="43.16616" lon="1.09399">
        <ele>313.05</ele>
        <time>2013-05-19T14:51:49Z</time>
      </trkpt>
      <trkpt lat="43.1651" lon="1.09473">
        <ele>314.49</ele>
        <time>2013-05-19T14:51:56Z</time>
      </trkpt>
      <trkpt lat="43.16402" lon="1.09475">
        <ele>318.33</ele>
        <time>2013-05-19T14:52:02Z</time>
      </trkpt>
      <trkpt lat="43.16299" lon="1.09447">
        <ele>320.26</ele>
        <time>2013-05-19T14:52:09Z</time>
      </trkpt>
      <trkpt lat="43.16212" lon="1.09388">
        <ele>323.62</ele>
        <time>2013-05-19T14:52:15Z</time>
      </trkpt>
      <trkpt lat="43.16111" lon="1.09378">
        <ele>325.06</ele>
        <time>2013-05-19T14:52:21Z</time>
      </trkpt>
      <trkpt lat="43.16018" lon="1.09414">
        <ele>326.02</ele>
        <time>2013-05-19T14:52:27Z</time>
      </trkpt>
      <trkpt lat="43.15917" lon="1.09437">
        <ele>334.68</ele>
        <time>2013-05-19T14:52:34Z</time>
      </trkpt>
      <trkpt lat="43.15831" lon="1.09512">
        <ele>343.81</ele>
        <time>2013-05-19T14:52:40Z</time>
      </trkpt>
      <trkpt lat="43.15758" lon="1.09596">
        <ele>347.17</ele>
        <time>2013-05-19T14:52:47Z</time>
      </trkpt>
      <trkpt lat="43.15667" lon="1.09655">
        <ele>345.25</ele>
        <time>2013-05-19T14:52:54Z</time>
      </trkpt>
      <trkpt lat="43.15582" lon="1.09701">
        <ele>345.25</ele>
        <time>2013-05-19T14:53:01Z</time>
      </trkpt>
      <trkpt lat="43.15493" lon="1.09668">
        <ele>340.44</ele>
        <time>2013-05-19T14:53:09Z</time>
      </trkpt>
      <trkpt lat="43.15413" lon="1.09594">
        <ele>345.73</ele>
        <time>2013-05-19T14:53:17Z</time>
      </trkpt>
      <trkpt lat="43.15329" lon="1.09677">
        <ele>348.62</ele>
        <time>2013-05-19T14:53:23Z</time>
      </trkpt>
      <trkpt lat="43.15244" lon="1.09755">
        <ele>347.65</ele>
        <time>2013-05-19T14:53:28Z</time>
      </trkpt>
      <trkpt lat="43.15166" lon="1.09821">
        <ele>346.21</ele>
        <time>2013-05-19T14:53:32Z</time>
      </trkpt>
      <trkpt lat="43.15082" lon="1.09888">
        <ele>352.94</ele>
        <time>2013-05-19T14:53:37Z</time>
      </trkpt>
      <trkpt lat="43.1501" lon="1.09953">
        <ele>358.23</ele>
        <time>2013-05-19T14:53:44Z</time>
      </trkpt>
      <trkpt lat="43.14916" lon="1.09983">
        <ele>361.59</ele>
        <time>2013-05-19T14:53:54Z</time>
      </trkpt>
      <trkpt lat="43.14866" lon="1.10094">
        <ele>357.27</ele>
        <time>2013-05-19T14:54:00Z</time>
      </trkpt>
      <trkpt lat="43.14823" lon="1.10207">
        <ele>353.42</ele>
        <time>2013-05-19T14:54:05Z</time>
      </trkpt>
      <trkpt lat="43.14771" lon="1.10334">
        <ele>347.65</ele>
        <time>2013-05-19T14:54:09Z</time>
      </trkpt>
      <trkpt lat="43.14723" lon="1.10454">
        <ele>348.13</ele>
        <time>2013-05-19T14:54:14Z</time>
      </trkpt>
      <trkpt lat="43.14667" lon="1.10558">
        <ele>345.25</ele>
        <time>2013-05-19T14:54:19Z</time>
      </trkpt>
      <trkpt lat="43.14596" lon="1.10667">
        <ele>340.44</ele>
        <time>2013-05-19T14:54:25Z</time>
      </trkpt>
      <trkpt lat="43.1453" lon="1.10774">
        <ele>335.16</ele>
        <time>2013-05-19T14:54:31Z</time>
      </trkpt>
      <trkpt lat="43.14464" lon="1.10873">
        <ele>328.43</ele>
        <time>2013-05-19T14:54:38Z</time>
      </trkpt>
      <trkpt lat="43.1437" lon="1.10909">
        <ele>326.02</ele>
        <time>2013-05-19T14:54:44Z</time>
      </trkpt>
      <trkpt lat="43.14276" lon="1.10871">
        <ele>326.99</ele>
        <time>2013-05-19T14:54:51Z</time>
      </trkpt>
      <trkpt lat="43.14192" lon="1.10782">
        <ele>331.79</ele>
        <time>2013-05-19T14:54:58Z</time>
      </trkpt>
      <trkpt lat="43.14112" lon="1.10718">
        <ele>337.56</ele>
        <time>2013-05-19T14:55:04Z</time>
      </trkpt>
      <trkpt lat="43.14029" lon="1.10652">
        <ele>341.89</ele>
        <time>2013-05-19T14:55:13Z</time>
      </trkpt>
      <trkpt lat="43.13948" lon="1.10595">
        <ele>346.21</ele>
        <time>2013-05-19T14:55:22Z</time>
      </trkpt>
      <trkpt lat="43.13863" lon="1.10629">
        <ele>352.46</ele>
        <time>2013-05-19T14:55:34Z</time>
      </trkpt>
      <trkpt lat="43.13797" lon="1.10741">
        <ele>357.27</ele>
        <time>2013-05-19T14:55:42Z</time>
      </trkpt>
      <trkpt lat="43.13787" lon="1.10891">
        <ele>361.11</ele>
        <time>2013-05-19T14:55:48Z</time>
      </trkpt>
      <trkpt lat="43.13777" lon="1.11032">
        <ele>362.55</ele>
        <time>2013-05-19T14:55:55Z</time>
      </trkpt>
      <trkpt lat="43.13719" lon="1.11094">
        <ele>364.96</ele>
        <time>2013-05-19T14:56:04Z</time>
      </trkpt>
      <trkpt lat="43.13629" lon="1.11076">
        <ele>368.32</ele>
        <time>2013-05-19T14:56:12Z</time>
      </trkpt>
      <trkpt lat="43.13535" lon="1.11098">
        <ele>367.36</ele>
        <time>2013-05-19T14:56:20Z</time>
      </trkpt>
      <trkpt lat="43.13445" lon="1.11059">
        <ele>370.73</ele>
        <time>2013-05-19T14:56:27Z</time>
      </trkpt>
      <trkpt lat="43.13352" lon="1.11033">
        <ele>376.01</ele>
        <time>2013-05-19T14:56:33Z</time>
      </trkpt>
      <trkpt lat="43.13259" lon="1.11019">
        <ele>381.3</ele>
        <time>2013-05-19T14:56:39Z</time>
      </trkpt>
      <trkpt lat="43.13155" lon="1.10995">
        <ele>392.36</ele>
        <time>2013-05-19T14:56:46Z</time>
      </trkpt>
      <trkpt lat="43.13053" lon="1.10981">
        <ele>399.08</ele>
        <time>2013-05-19T14:56:52Z</time>
      </trkpt>
      <trkpt lat="43.12969" lon="1.10946">
        <ele>407.26</ele>
        <time>2013-05-19T14:56:59Z</time>
      </trkpt>
      <trkpt lat="43.12891" lon="1.10896">
        <ele>414.47</ele>
        <time>2013-05-19T14:57:06Z</time>
      </trkpt>
      <trkpt lat="43.12809" lon="1.10837">
        <ele>422.16</ele>
        <time>2013-05-19T14:57:12Z</time>
      </trkpt>
      <trkpt lat="43.1275" lon="1.10852">
        <ele>431.77</ele>
        <time>2013-05-19T14:57:27Z</time>
      </trkpt>
      <trkpt lat="43.12824" lon="1.10974">
        <ele>441.86</ele>
        <time>2013-05-19T14:57:40Z</time>
      </trkpt>
      <trkpt lat="43.12808" lon="1.10944">
        <ele>454.36</ele>
        <time>2013-05-19T14:58:00Z</time>
      </trkpt>
      <trkpt lat="43.12683" lon="1.10913">
        <ele>463.97</ele>
        <time>2013-05-19T14:58:09Z</time>
      </trkpt>
      <trkpt lat="43.12591" lon="1.10926">
        <ele>472.63</ele>
        <time>2013-05-19T14:58:18Z</time>
      </trkpt>
      <trkpt lat="43.12511" lon="1.11028">
        <ele>467.82</ele>
        <time>2013-05-19T14:58:25Z</time>
      </trkpt>
      <trkpt lat="43.1246" lon="1.11145">
        <ele>459.17</ele>
        <time>2013-05-19T14:58:30Z</time>
      </trkpt>
      <trkpt lat="43.12411" lon="1.11268">
        <ele>456.28</ele>
        <time>2013-05-19T14:58:36Z</time>
      </trkpt>
      <trkpt lat="43.12348" lon="1.11363">
        <ele>452.92</ele>
        <time>2013-05-19T14:58:45Z</time>
      </trkpt>
      <trkpt lat="43.12239" lon="1.11386">
        <ele>447.15</ele>
        <time>2013-05-19T14:58:53Z</time>
      </trkpt>
      <trkpt lat="43.1214" lon="1.11351">
        <ele>442.82</ele>
        <time>2013-05-19T14:59:00Z</time>
      </trkpt>
      <trkpt lat="43.12054" lon="1.11314">
        <ele>435.13</ele>
        <time>2013-05-19T14:59:06Z</time>
      </trkpt>
      <trkpt lat="43.11965" lon="1.11258">
        <ele>432.25</ele>
        <time>2013-05-19T14:59:13Z</time>
      </trkpt>
      <trkpt lat="43.11875" lon="1.11194">
        <ele>429.37</ele>
        <time>2013-05-19T14:59:22Z</time>
      </trkpt>
      <trkpt lat="43.11779" lon="1.11151">
        <ele>424.56</ele>
        <time>2013-05-19T14:59:31Z</time>
      </trkpt>
      <trkpt lat="43.1171" lon="1.11061">
        <ele>424.08</ele>
        <time>2013-05-19T14:59:38Z</time>
      </trkpt>
      <trkpt lat="43.1166" lon="1.10954">
        <ele>421.19</ele>
        <time>2013-05-19T14:59:46Z</time>
      </trkpt>
      <trkpt lat="43.11638" lon="1.10831">
        <ele>418.31</ele>
        <time>2013-05-19T14:59:52Z</time>
      </trkpt>
      <trkpt lat="43.116" lon="1.10699">
        <ele>409.18</ele>
        <time>2013-05-19T14:59:59Z</time>
      </trkpt>
      <trkpt lat="43.11521" lon="1.10612">
        <ele>407.74</ele>
        <time>2013-05-19T15:00:05Z</time>
      </trkpt>
      <trkpt lat="43.11448" lon="1.10526">
        <ele>406.29</ele>
        <time>2013-05-19T15:00:12Z</time>
      </trkpt>
      <trkpt lat="43.11369" lon="1.10573">
        <ele>405.81</ele>
        <time>2013-05-19T15:00:20Z</time>
      </trkpt>
      <trkpt lat="43.11302" lon="1.10664">
        <ele>404.37</ele>
        <time>2013-05-19T15:00:26Z</time>
      </trkpt>
      <trkpt lat="43.11211" lon="1.10682">
        <ele>403.41</ele>
        <time>2013-05-19T15:00:37Z</time>
      </trkpt>
      <trkpt lat="43.11124" lon="1.10637">
        <ele>400.53</ele>
        <time>2013-05-19T15:00:50Z</time>
      </trkpt>
      <trkpt lat="43.1113" lon="1.10726">
        <ele>398.6</ele>
        <time>2013-05-19T15:01:06Z</time>
      </trkpt>
      <trkpt lat="43.11173" lon="1.10852">
        <ele>393.8</ele>
        <time>2013-05-19T15:01:14Z</time>
      </trkpt>
      <trkpt lat="43.11214" lon="1.10975">
        <ele>389.95</ele>
        <time>2013-05-19T15:01:22Z</time>
      </trkpt>
      <trkpt lat="43.11163" lon="1.11078">
        <ele>392.84</ele>
        <time>2013-05-19T15:01:29Z</time>
      </trkpt>
      <trkpt lat="43.11091" lon="1.11174">
        <ele>395.72</ele>
        <time>2013-05-19T15:01:35Z</time>
      </trkpt>
      <trkpt lat="43.11075" lon="1.11294">
        <ele>400.05</ele>
        <time>2013-05-19T15:01:49Z</time>
      </trkpt>
      <trkpt lat="43.11097" lon="1.11413">
        <ele>402.93</ele>
        <time>2013-05-19T15:04:43Z</time>
      </trkpt>
      <trkpt lat="43.11156" lon="1.1152">
        <ele>405.81</ele>
        <time>2013-05-19T15:04:49Z</time>
      </trkpt>
      <trkpt lat="43.11206" lon="1.11635">
        <ele>408.7</ele>
        <time>2013-05-19T15:04:55Z</time>
      </trkpt>
      <trkpt lat="43.11267" lon="1.11746">
        <ele>411.58</ele>
        <time>2013-05-19T15:05:02Z</time>
      </trkpt>
      <trkpt lat="43.11307" lon="1.11867">
        <ele>413.02</ele>
        <time>2013-05-19T15:05:09Z</time>
      </trkpt>
      <trkpt lat="43.11268" lon="1.11984">
        <ele>413.02</ele>
        <time>2013-05-19T15:05:14Z</time>
      </trkpt>
      <trkpt lat="43.11234" lon="1.12107">
        <ele>411.58</ele>
        <time>2013-05-19T15:05:19Z</time>
      </trkpt>
      <trkpt lat="43.11219" lon="1.12246">
        <ele>408.22</ele>
        <time>2013-05-19T15:05:24Z</time>
      </trkpt>
      <trkpt lat="43.11216" lon="1.12386">
        <ele>406.77</ele>
        <time>2013-05-19T15:05:29Z</time>
      </trkpt>
      <trkpt lat="43.11211" lon="1.12522">
        <ele>406.77</ele>
        <time>2013-05-19T15:05:35Z</time>
      </trkpt>
      <trkpt lat="43.11146" lon="1.12625">
        <ele>405.81</ele>
        <time>2013-05-19T15:05:41Z</time>
      </trkpt>
      <trkpt lat="43.11064" lon="1.12684">
        <ele>407.26</ele>
        <time>2013-05-19T15:05:46Z</time>
      </trkpt>
      <trkpt lat="43.10992" lon="1.1277">
        <ele>410.62</ele>
        <time>2013-05-19T15:05:53Z</time>
      </trkpt>
      <trkpt lat="43.11035" lon="1.129">
        <ele>410.62</ele>
        <time>2013-05-19T15:06:00Z</time>
      </trkpt>
      <trkpt lat="43.11055" lon="1.13039">
        <ele>410.14</ele>
        <time>2013-05-19T15:06:06Z</time>
      </trkpt>
      <trkpt lat="43.11077" lon="1.13159">
        <ele>410.14</ele>
        <time>2013-05-19T15:06:11Z</time>
      </trkpt>
      <trkpt lat="43.1114" lon="1.13251">
        <ele>414.95</ele>
        <time>2013-05-19T15:06:16Z</time>
      </trkpt>
      <trkpt lat="43.11208" lon="1.13337">
        <ele>412.06</ele>
        <time>2013-05-19T15:06:21Z</time>
      </trkpt>
      <trkpt lat="43.11261" lon="1.13446">
        <ele>411.1</ele>
        <time>2013-05-19T15:06:27Z</time>
      </trkpt>
      <trkpt lat="43.11299" lon="1.13598">
        <ele>414.95</ele>
        <time>2013-05-19T15:06:32Z</time>
      </trkpt>
      <trkpt lat="43.11337" lon="1.13736">
        <ele>416.39</ele>
        <time>2013-05-19T15:06:37Z</time>
      </trkpt>
      <trkpt lat="43.11373" lon="1.13864">
        <ele>423.6</ele>
        <time>2013-05-19T15:06:42Z</time>
      </trkpt>
      <trkpt lat="43.11393" lon="1.13989">
        <ele>428.4</ele>
        <time>2013-05-19T15:06:47Z</time>
      </trkpt>
      <trkpt lat="43.11419" lon="1.14108">
        <ele>429.85</ele>
        <time>2013-05-19T15:06:52Z</time>
      </trkpt>
      <trkpt lat="43.11483" lon="1.14212">
        <ele>431.77</ele>
        <time>2013-05-19T15:06:58Z</time>
      </trkpt>
      <trkpt lat="43.11561" lon="1.14304">
        <ele>430.81</ele>
        <time>2013-05-19T15:07:05Z</time>
      </trkpt>
      <trkpt lat="43.11606" lon="1.14423">
        <ele>429.85</ele>
        <time>2013-05-19T15:07:11Z</time>
      </trkpt>
      <trkpt lat="43.116" lon="1.14552">
        <ele>428.89</ele>
        <time>2013-05-19T15:07:17Z</time>
      </trkpt>
      <trkpt lat="43.11643" lon="1.1468">
        <ele>427.92</ele>
        <time>2013-05-19T15:07:24Z</time>
      </trkpt>
      <trkpt lat="43.11633" lon="1.14813">
        <ele>424.08</ele>
        <time>2013-05-19T15:07:30Z</time>
      </trkpt>
      <trkpt lat="43.11626" lon="1.1496">
        <ele>422.64</ele>
        <time>2013-05-19T15:07:36Z</time>
      </trkpt>
      <trkpt lat="43.11611" lon="1.15094">
        <ele>420.23</ele>
        <time>2013-05-19T15:07:41Z</time>
      </trkpt>
      <trkpt lat="43.11608" lon="1.15231">
        <ele>417.35</ele>
        <time>2013-05-19T15:07:47Z</time>
      </trkpt>
      <trkpt lat="43.11646" lon="1.15364">
        <ele>414.47</ele>
        <time>2013-05-19T15:07:54Z</time>
      </trkpt>
      <trkpt lat="43.11665" lon="1.15494">
        <ele>412.54</ele>
        <time>2013-05-19T15:08:01Z</time>
      </trkpt>
      <trkpt lat="43.11644" lon="1.15638">
        <ele>410.14</ele>
        <time>2013-05-19T15:08:07Z</time>
      </trkpt>
      <trkpt lat="43.11646" lon="1.15764">
        <ele>408.7</ele>
        <time>2013-05-19T15:08:12Z</time>
      </trkpt>
      <trkpt lat="43.11666" lon="1.15894">
        <ele>406.77</ele>
        <time>2013-05-19T15:08:20Z</time>
      </trkpt>
      <trkpt lat="43.11688" lon="1.16022">
        <ele>404.85</ele>
        <time>2013-05-19T15:08:28Z</time>
      </trkpt>
      <trkpt lat="43.11764" lon="1.16087">
        <ele>402.45</ele>
        <time>2013-05-19T15:08:37Z</time>
      </trkpt>
      <trkpt lat="43.11713" lon="1.1619">
        <ele>401.49</ele>
        <time>2013-05-19T15:08:45Z</time>
      </trkpt>
      <trkpt lat="43.11746" lon="1.1631">
        <ele>398.12</ele>
        <time>2013-05-19T15:08:53Z</time>
      </trkpt>
      <trkpt lat="43.11752" lon="1.16428">
        <ele>396.2</ele>
        <time>2013-05-19T15:09:01Z</time>
      </trkpt>
      <trkpt lat="43.11785" lon="1.16554">
        <ele>395.72</ele>
        <time>2013-05-19T15:09:08Z</time>
      </trkpt>
      <trkpt lat="43.11836" lon="1.16667">
        <ele>392.36</ele>
        <time>2013-05-19T15:09:15Z</time>
      </trkpt>
      <trkpt lat="43.11799" lon="1.16796">
        <ele>390.43</ele>
        <time>2013-05-19T15:09:25Z</time>
      </trkpt>
      <trkpt lat="43.11798" lon="1.16936">
        <ele>384.66</ele>
        <time>2013-05-19T15:09:32Z</time>
      </trkpt>
      <trkpt lat="43.118" lon="1.17063">
        <ele>377.45</ele>
        <time>2013-05-19T15:09:38Z</time>
      </trkpt>
      <trkpt lat="43.11831" lon="1.17193">
        <ele>372.65</ele>
        <time>2013-05-19T15:09:45Z</time>
      </trkpt>
      <trkpt lat="43.11883" lon="1.17305">
        <ele>364.96</ele>
        <time>2013-05-19T15:09:51Z</time>
      </trkpt>
      <trkpt lat="43.11907" lon="1.17434">
        <ele>358.23</ele>
        <time>2013-05-19T15:09:58Z</time>
      </trkpt>
      <trkpt lat="43.1197" lon="1.17529">
        <ele>350.54</ele>
        <time>2013-05-19T15:10:05Z</time>
      </trkpt>
      <trkpt lat="43.11962" lon="1.17646">
        <ele>343.81</ele>
        <time>2013-05-19T15:10:14Z</time>
      </trkpt>
      <trkpt lat="43.11912" lon="1.17755">
        <ele>337.56</ele>
        <time>2013-05-19T15:10:19Z</time>
      </trkpt>
      <trkpt lat="43.11879" lon="1.17877">
        <ele>328.91</ele>
        <time>2013-05-19T15:10:25Z</time>
      </trkpt>
      <trkpt lat="43.11865" lon="1.17996">
        <ele>326.02</ele>
        <time>2013-05-19T15:10:52Z</time>
      </trkpt>
      <trkpt lat="43.11949" lon="1.17942">
        <ele>321.7</ele>
        <time>2013-05-19T15:11:14Z</time>
      </trkpt>
      <trkpt lat="43.12029" lon="1.17876">
        <ele>321.7</ele>
        <time>2013-05-19T15:11:21Z</time>
      </trkpt>
      <trkpt lat="43.1212" lon="1.17802">
        <ele>319.3</ele>
        <time>2013-05-19T15:11:28Z</time>
      </trkpt>
      <trkpt lat="43.12208" lon="1.17732">
        <ele>319.3</ele>
        <time>2013-05-19T15:11:34Z</time>
      </trkpt>
      <trkpt lat="43.12279" lon="1.17639">
        <ele>316.41</ele>
        <time>2013-05-19T15:11:39Z</time>
      </trkpt>
      <trkpt lat="43.12349" lon="1.17541">
        <ele>312.57</ele>
        <time>2013-05-19T15:11:45Z</time>
      </trkpt>
      <trkpt lat="43.12419" lon="1.1745">
        <ele>306.8</ele>
        <time>2013-05-19T15:11:54Z</time>
      </trkpt>
      <trkpt lat="43.12488" lon="1.17439">
        <ele>303.43</ele>
        <time>2013-05-19T15:12:12Z</time>
      </trkpt>
      <trkpt lat="43.12468" lon="1.17445">
        <ele>302.47</ele>
        <time>2013-05-19T15:13:10Z</time>
      </trkpt>
      <trkpt lat="43.12517" lon="1.17467">
        <ele>299.59</ele>
        <time>2013-05-19T16:10:49Z</time>
      </trkpt>
      <trkpt lat="43.1255" lon="1.17576">
        <ele>305.36</ele>
        <time>2013-05-19T16:11:10Z</time>
      </trkpt>
      <trkpt lat="43.1254" lon="1.17715">
        <ele>314.01</ele>
        <time>2013-05-19T16:11:26Z</time>
      </trkpt>
      <trkpt lat="43.12513" lon="1.17836">
        <ele>323.62</ele>
        <time>2013-05-19T16:11:32Z</time>
      </trkpt>
      <trkpt lat="43.12475" lon="1.17974">
        <ele>333.23</ele>
        <time>2013-05-19T16:11:39Z</time>
      </trkpt>
      <trkpt lat="43.12431" lon="1.18086">
        <ele>344.29</ele>
        <time>2013-05-19T16:11:44Z</time>
      </trkpt>
      <trkpt lat="43.12437" lon="1.18174">
        <ele>352.46</ele>
        <time>2013-05-19T16:11:54Z</time>
      </trkpt>
      <trkpt lat="43.1249" lon="1.1806">
        <ele>361.11</ele>
        <time>2013-05-19T16:12:01Z</time>
      </trkpt>
      <trkpt lat="43.12567" lon="1.17995">
        <ele>367.36</ele>
        <time>2013-05-19T16:12:06Z</time>
      </trkpt>
      <trkpt lat="43.1263" lon="1.18015">
        <ele>376.49</ele>
        <time>2013-05-19T16:12:16Z</time>
      </trkpt>
      <trkpt lat="43.12608" lon="1.18148">
        <ele>385.15</ele>
        <time>2013-05-19T16:12:22Z</time>
      </trkpt>
      <trkpt lat="43.12565" lon="1.18271">
        <ele>394.28</ele>
        <time>2013-05-19T16:12:28Z</time>
      </trkpt>
      <trkpt lat="43.12544" lon="1.18389">
        <ele>403.41</ele>
        <time>2013-05-19T16:12:36Z</time>
      </trkpt>
      <trkpt lat="43.12621" lon="1.18327">
        <ele>408.7</ele>
        <time>2013-05-19T16:12:44Z</time>
      </trkpt>
      <trkpt lat="43.1269" lon="1.1822">
        <ele>413.98</ele>
        <time>2013-05-19T16:12:50Z</time>
      </trkpt>
      <trkpt lat="43.12753" lon="1.18122">
        <ele>419.75</ele>
        <time>2013-05-19T16:12:58Z</time>
      </trkpt>
      <trkpt lat="43.12789" lon="1.18198">
        <ele>428.89</ele>
        <time>2013-05-19T16:13:08Z</time>
      </trkpt>
      <trkpt lat="43.12825" lon="1.18324">
        <ele>436.1</ele>
        <time>2013-05-19T16:13:15Z</time>
      </trkpt>
      <trkpt lat="43.12818" lon="1.18442">
        <ele>439.94</ele>
        <time>2013-05-19T16:13:21Z</time>
      </trkpt>
      <trkpt lat="43.12792" lon="1.18561">
        <ele>448.11</ele>
        <time>2013-05-19T16:13:27Z</time>
      </trkpt>
      <trkpt lat="43.12828" lon="1.18676">
        <ele>454.84</ele>
        <time>2013-05-19T16:13:33Z</time>
      </trkpt>
      <trkpt lat="43.12887" lon="1.18783">
        <ele>459.65</ele>
        <time>2013-05-19T16:13:39Z</time>
      </trkpt>
      <trkpt lat="43.12987" lon="1.18828">
        <ele>461.57</ele>
        <time>2013-05-19T16:13:45Z</time>
      </trkpt>
      <trkpt lat="43.13081" lon="1.18828">
        <ele>465.9</ele>
        <time>2013-05-19T16:13:50Z</time>
      </trkpt>
      <trkpt lat="43.13168" lon="1.18777">
        <ele>469.26</ele>
        <time>2013-05-19T16:13:56Z</time>
      </trkpt>
      <trkpt lat="43.13256" lon="1.18784">
        <ele>471.18</ele>
        <time>2013-05-19T16:14:05Z</time>
      </trkpt>
      <trkpt lat="43.13309" lon="1.18906">
        <ele>466.86</ele>
        <time>2013-05-19T16:14:12Z</time>
      </trkpt>
      <trkpt lat="43.13287" lon="1.19047">
        <ele>459.65</ele>
        <time>2013-05-19T16:14:18Z</time>
      </trkpt>
      <trkpt lat="43.13233" lon="1.19152">
        <ele>453.88</ele>
        <time>2013-05-19T16:14:23Z</time>
      </trkpt>
      <trkpt lat="43.13202" lon="1.19271">
        <ele>450.03</ele>
        <time>2013-05-19T16:14:28Z</time>
      </trkpt>
      <trkpt lat="43.13209" lon="1.19396">
        <ele>440.9</ele>
        <time>2013-05-19T16:14:35Z</time>
      </trkpt>
      <trkpt lat="43.13289" lon="1.19443">
        <ele>442.34</ele>
        <time>2013-05-19T16:14:42Z</time>
      </trkpt>
      <trkpt lat="43.13394" lon="1.19384">
        <ele>450.52</ele>
        <time>2013-05-19T16:14:48Z</time>
      </trkpt>
      <trkpt lat="43.1348" lon="1.19288">
        <ele>458.69</ele>
        <time>2013-05-19T16:14:55Z</time>
      </trkpt>
      <trkpt lat="43.13564" lon="1.19307">
        <ele>465.42</ele>
        <time>2013-05-19T16:15:05Z</time>
      </trkpt>
      <trkpt lat="43.13623" lon="1.19213">
        <ele>471.18</ele>
        <time>2013-05-19T16:15:15Z</time>
      </trkpt>
      <trkpt lat="43.13678" lon="1.19101">
        <ele>475.03</ele>
        <time>2013-05-19T16:15:22Z</time>
      </trkpt>
      <trkpt lat="43.13759" lon="1.19169">
        <ele>479.35</ele>
        <time>2013-05-19T16:15:29Z</time>
      </trkpt>
      <trkpt lat="43.13812" lon="1.19274">
        <ele>481.76</ele>
        <time>2013-05-19T16:15:38Z</time>
      </trkpt>
      <trkpt lat="43.13868" lon="1.19347">
        <ele>483.68</ele>
        <time>2013-05-19T16:15:52Z</time>
      </trkpt>
      <trkpt lat="43.13974" lon="1.1939">
        <ele>482.72</ele>
        <time>2013-05-19T16:15:59Z</time>
      </trkpt>
      <trkpt lat="43.14078" lon="1.19414">
        <ele>481.28</ele>
        <time>2013-05-19T16:16:03Z</time>
      </trkpt>
      <trkpt lat="43.14175" lon="1.19413">
        <ele>478.39</ele>
        <time>2013-05-19T16:16:08Z</time>
      </trkpt>
      <trkpt lat="43.14263" lon="1.19376">
        <ele>473.11</ele>
        <time>2013-05-19T16:16:13Z</time>
      </trkpt>
      <trkpt lat="43.14343" lon="1.19306">
        <ele>474.07</ele>
        <time>2013-05-19T16:16:18Z</time>
      </trkpt>
      <trkpt lat="43.1444" lon="1.19265">
        <ele>472.63</ele>
        <time>2013-05-19T16:16:23Z</time>
      </trkpt>
      <trkpt lat="43.14549" lon="1.19263">
        <ele>472.14</ele>
        <time>2013-05-19T16:16:28Z</time>
      </trkpt>
      <trkpt lat="43.1464" lon="1.19287">
        <ele>469.26</ele>
        <time>2013-05-19T16:16:32Z</time>
      </trkpt>
      <trkpt lat="43.14743" lon="1.19307">
        <ele>471.18</ele>
        <time>2013-05-19T16:16:37Z</time>
      </trkpt>
      <trkpt lat="43.14842" lon="1.19315">
        <ele>472.63</ele>
        <time>2013-05-19T16:16:43Z</time>
      </trkpt>
      <trkpt lat="43.14928" lon="1.19257">
        <ele>468.78</ele>
        <time>2013-05-19T16:16:50Z</time>
      </trkpt>
      <trkpt lat="43.15012" lon="1.19236">
        <ele>463.97</ele>
        <time>2013-05-19T16:16:57Z</time>
      </trkpt>
      <trkpt lat="43.15096" lon="1.19285">
        <ele>466.86</ele>
        <time>2013-05-19T16:17:01Z</time>
      </trkpt>
      <trkpt lat="43.15196" lon="1.19344">
        <ele>456.76</ele>
        <time>2013-05-19T16:17:06Z</time>
      </trkpt>
      <trkpt lat="43.15302" lon="1.19388">
        <ele>458.69</ele>
        <time>2013-05-19T16:17:11Z</time>
      </trkpt>
      <trkpt lat="43.15406" lon="1.19412">
        <ele>460.13</ele>
        <time>2013-05-19T16:17:16Z</time>
      </trkpt>
      <trkpt lat="43.15514" lon="1.19411">
        <ele>459.65</ele>
        <time>2013-05-19T16:17:21Z</time>
      </trkpt>
      <trkpt lat="43.15616" lon="1.19431">
        <ele>462.53</ele>
        <time>2013-05-19T16:17:27Z</time>
      </trkpt>
      <trkpt lat="43.1567" lon="1.19533">
        <ele>464.45</ele>
        <time>2013-05-19T16:17:32Z</time>
      </trkpt>
      <trkpt lat="43.15669" lon="1.19675">
        <ele>463.97</ele>
        <time>2013-05-19T16:17:37Z</time>
      </trkpt>
      <trkpt lat="43.15657" lon="1.19817">
        <ele>467.34</ele>
        <time>2013-05-19T16:17:43Z</time>
      </trkpt>
      <trkpt lat="43.15651" lon="1.19945">
        <ele>465.9</ele>
        <time>2013-05-19T16:17:48Z</time>
      </trkpt>
      <trkpt lat="43.15668" lon="1.20067">
        <ele>459.17</ele>
        <time>2013-05-19T16:17:53Z</time>
      </trkpt>
      <trkpt lat="43.15723" lon="1.20166">
        <ele>453.88</ele>
        <time>2013-05-19T16:17:59Z</time>
      </trkpt>
      <trkpt lat="43.15829" lon="1.20204">
        <ele>452.92</ele>
        <time>2013-05-19T16:18:05Z</time>
      </trkpt>
      <trkpt lat="43.15915" lon="1.20263">
        <ele>452.92</ele>
        <time>2013-05-19T16:18:11Z</time>
      </trkpt>
      <trkpt lat="43.15986" lon="1.20375">
        <ele>453.4</ele>
        <time>2013-05-19T16:18:17Z</time>
      </trkpt>
      <trkpt lat="43.16031" lon="1.20494">
        <ele>451</ele>
        <time>2013-05-19T16:18:22Z</time>
      </trkpt>
      <trkpt lat="43.1603" lon="1.20619">
        <ele>443.31</ele>
        <time>2013-05-19T16:18:29Z</time>
      </trkpt>
      <trkpt lat="43.16109" lon="1.20669">
        <ele>440.42</ele>
        <time>2013-05-19T16:18:36Z</time>
      </trkpt>
      <trkpt lat="43.16202" lon="1.20727">
        <ele>434.17</ele>
        <time>2013-05-19T16:18:42Z</time>
      </trkpt>
      <trkpt lat="43.16301" lon="1.20735">
        <ele>424.56</ele>
        <time>2013-05-19T16:18:48Z</time>
      </trkpt>
      <trkpt lat="43.16398" lon="1.2077">
        <ele>418.31</ele>
        <time>2013-05-19T16:18:53Z</time>
      </trkpt>
      <trkpt lat="43.16492" lon="1.20819">
        <ele>408.7</ele>
        <time>2013-05-19T16:18:57Z</time>
      </trkpt>
      <trkpt lat="43.1659" lon="1.20867">
        <ele>404.37</ele>
        <time>2013-05-19T16:19:02Z</time>
      </trkpt>
      <trkpt lat="43.16667" lon="1.20936">
        <ele>401.97</ele>
        <time>2013-05-19T16:19:07Z</time>
      </trkpt>
      <trkpt lat="43.16759" lon="1.21002">
        <ele>396.2</ele>
        <time>2013-05-19T16:19:12Z</time>
      </trkpt>
      <trkpt lat="43.16853" lon="1.21059">
        <ele>389.95</ele>
        <time>2013-05-19T16:19:17Z</time>
      </trkpt>
      <trkpt lat="43.16935" lon="1.21113">
        <ele>385.63</ele>
        <time>2013-05-19T16:19:22Z</time>
      </trkpt>
      <trkpt lat="43.17003" lon="1.21213">
        <ele>378.9</ele>
        <time>2013-05-19T16:19:28Z</time>
      </trkpt>
      <trkpt lat="43.17029" lon="1.21349">
        <ele>376.01</ele>
        <time>2013-05-19T16:19:34Z</time>
      </trkpt>
      <trkpt lat="43.17087" lon="1.21455">
        <ele>368.8</ele>
        <time>2013-05-19T16:19:39Z</time>
      </trkpt>
      <trkpt lat="43.17185" lon="1.21532">
        <ele>368.32</ele>
        <time>2013-05-19T16:19:44Z</time>
      </trkpt>
      <trkpt lat="43.17281" lon="1.21602">
        <ele>367.36</ele>
        <time>2013-05-19T16:19:49Z</time>
      </trkpt>
      <trkpt lat="43.17367" lon="1.21664">
        <ele>363.04</ele>
        <time>2013-05-19T16:19:54Z</time>
      </trkpt>
      <trkpt lat="43.17448" lon="1.21718">
        <ele>365.92</ele>
        <time>2013-05-19T16:19:59Z</time>
      </trkpt>
      <trkpt lat="43.17541" lon="1.21762">
        <ele>367.36</ele>
        <time>2013-05-19T16:20:04Z</time>
      </trkpt>
      <trkpt lat="43.17631" lon="1.21805">
        <ele>361.11</ele>
        <time>2013-05-19T16:20:09Z</time>
      </trkpt>
      <trkpt lat="43.1772" lon="1.21842">
        <ele>357.75</ele>
        <time>2013-05-19T16:20:16Z</time>
      </trkpt>
      <trkpt lat="43.17809" lon="1.21786">
        <ele>346.69</ele>
        <time>2013-05-19T16:20:22Z</time>
      </trkpt>
      <trkpt lat="43.17893" lon="1.2173">
        <ele>339.96</ele>
        <time>2013-05-19T16:20:27Z</time>
      </trkpt>
      <trkpt lat="43.17976" lon="1.21668">
        <ele>328.43</ele>
        <time>2013-05-19T16:20:35Z</time>
      </trkpt>
      <trkpt lat="43.18067" lon="1.21722">
        <ele>326.5</ele>
        <time>2013-05-19T16:20:40Z</time>
      </trkpt>
      <trkpt lat="43.18162" lon="1.21771">
        <ele>317.37</ele>
        <time>2013-05-19T16:20:45Z</time>
      </trkpt>
      <trkpt lat="43.18266" lon="1.21815">
        <ele>313.05</ele>
        <time>2013-05-19T16:20:50Z</time>
      </trkpt>
      <trkpt lat="43.18354" lon="1.21852">
        <ele>313.05</ele>
        <time>2013-05-19T16:20:55Z</time>
      </trkpt>
      <trkpt lat="43.18452" lon="1.21894">
        <ele>312.57</ele>
        <time>2013-05-19T16:21:01Z</time>
      </trkpt>
      <trkpt lat="43.18551" lon="1.21937">
        <ele>313.05</ele>
        <time>2013-05-19T16:21:07Z</time>
      </trkpt>
      <trkpt lat="43.18646" lon="1.21976">
        <ele>310.64</ele>
        <time>2013-05-19T16:21:12Z</time>
      </trkpt>
      <trkpt lat="43.1874" lon="1.22016">
        <ele>299.59</ele>
        <time>2013-05-19T16:21:16Z</time>
      </trkpt>
      <trkpt lat="43.18833" lon="1.22063">
        <ele>301.51</ele>
        <time>2013-05-19T16:21:21Z</time>
      </trkpt>
      <trkpt lat="43.18919" lon="1.22125">
        <ele>290.94</ele>
        <time>2013-05-19T16:21:26Z</time>
      </trkpt>
      <trkpt lat="43.19" lon="1.22185">
        <ele>280.36</ele>
        <time>2013-05-19T16:21:32Z</time>
      </trkpt>
      <trkpt lat="43.1909" lon="1.22181">
        <ele>273.15</ele>
        <time>2013-05-19T16:21:41Z</time>
      </trkpt>
      <trkpt lat="43.19154" lon="1.22078">
        <ele>268.35</ele>
        <time>2013-05-19T16:21:47Z</time>
      </trkpt>
      <trkpt lat="43.19233" lon="1.22045">
        <ele>260.65</ele>
        <time>2013-05-19T16:21:56Z</time>
      </trkpt>
      <trkpt lat="43.19292" lon="1.22156">
        <ele>253.44</ele>
        <time>2013-05-19T16:22:02Z</time>
      </trkpt>
      <trkpt lat="43.19372" lon="1.22213">
        <ele>250.56</ele>
        <time>2013-05-19T16:22:07Z</time>
      </trkpt>
      <trkpt lat="43.19464" lon="1.22267">
        <ele>245.27</ele>
        <time>2013-05-19T16:22:12Z</time>
      </trkpt>
      <trkpt lat="43.19563" lon="1.22326">
        <ele>245.27</ele>
        <time>2013-05-19T16:22:18Z</time>
      </trkpt>
      <trkpt lat="43.19651" lon="1.22379">
        <ele>241.43</ele>
        <time>2013-05-19T16:22:24Z</time>
      </trkpt>
      <trkpt lat="43.19741" lon="1.22434">
        <ele>239.99</ele>
        <time>2013-05-19T16:22:31Z</time>
      </trkpt>
      <trkpt lat="43.19826" lon="1.22484">
        <ele>235.66</ele>
        <time>2013-05-19T16:22:38Z</time>
      </trkpt>
      <trkpt lat="43.19911" lon="1.22536">
        <ele>237.1</ele>
        <time>2013-05-19T16:22:45Z</time>
      </trkpt>
      <trkpt lat="43.20003" lon="1.22592">
        <ele>233.26</ele>
        <time>2013-05-19T16:22:52Z</time>
      </trkpt>
      <trkpt lat="43.2009" lon="1.22645">
        <ele>232.3</ele>
        <time>2013-05-19T16:23:00Z</time>
      </trkpt>
      <trkpt lat="43.20175" lon="1.22695">
        <ele>230.37</ele>
        <time>2013-05-19T16:23:08Z</time>
      </trkpt>
      <trkpt lat="43.20263" lon="1.22735">
        <ele>230.85</ele>
        <time>2013-05-19T16:23:17Z</time>
      </trkpt>
      <trkpt lat="43.20341" lon="1.22772">
        <ele>230.85</ele>
        <time>2013-05-19T16:23:32Z</time>
      </trkpt>
      <trkpt lat="43.2043" lon="1.22809">
        <ele>229.41</ele>
        <time>2013-05-19T16:23:43Z</time>
      </trkpt>
      <trkpt lat="43.20521" lon="1.22842">
        <ele>227.01</ele>
        <time>2013-05-19T16:23:53Z</time>
      </trkpt>
      <trkpt lat="43.20617" lon="1.22843">
        <ele>227.49</ele>
        <time>2013-05-19T16:24:04Z</time>
      </trkpt>
      <trkpt lat="43.20644" lon="1.22942">
        <ele>227.97</ele>
        <time>2013-05-19T16:24:17Z</time>
      </trkpt>
      <trkpt lat="43.20676" lon="1.2305">
        <ele>229.89</ele>
        <time>2013-05-19T16:24:27Z</time>
      </trkpt>
      <trkpt lat="43.20745" lon="1.23134">
        <ele>229.89</ele>
        <time>2013-05-19T16:24:36Z</time>
      </trkpt>
      <trkpt lat="43.2075" lon="1.23229">
        <ele>230.85</ele>
        <time>2013-05-19T16:25:04Z</time>
      </trkpt>
      <trkpt lat="43.20682" lon="1.23318">
        <ele>230.85</ele>
        <time>2013-05-19T16:25:14Z</time>
      </trkpt>
      <trkpt lat="43.2069" lon="1.23434">
        <ele>232.3</ele>
        <time>2013-05-19T16:25:25Z</time>
      </trkpt>
      <trkpt lat="43.20722" lon="1.2355">
        <ele>237.1</ele>
        <time>2013-05-19T16:25:32Z</time>
      </trkpt>
      <trkpt lat="43.20717" lon="1.23675">
        <ele>246.23</ele>
        <time>2013-05-19T16:25:39Z</time>
      </trkpt>
      <trkpt lat="43.20803" lon="1.23721">
        <ele>254.41</ele>
        <time>2013-05-19T16:25:45Z</time>
      </trkpt>
      <trkpt lat="43.20894" lon="1.23755">
        <ele>263.54</ele>
        <time>2013-05-19T16:25:50Z</time>
      </trkpt>
      <trkpt lat="43.2099" lon="1.23763">
        <ele>267.38</ele>
        <time>2013-05-19T16:25:56Z</time>
      </trkpt>
      <trkpt lat="43.21079" lon="1.23747">
        <ele>277</ele>
        <time>2013-05-19T16:26:01Z</time>
      </trkpt>
      <trkpt lat="43.21171" lon="1.23778">
        <ele>282.77</ele>
        <time>2013-05-19T16:26:09Z</time>
      </trkpt>
      <trkpt lat="43.21129" lon="1.23705">
        <ele>289.49</ele>
        <time>2013-05-19T16:26:17Z</time>
      </trkpt>
      <trkpt lat="43.21073" lon="1.23617">
        <ele>296.22</ele>
        <time>2013-05-19T16:26:25Z</time>
      </trkpt>
      <trkpt lat="43.21125" lon="1.23504">
        <ele>303.91</ele>
        <time>2013-05-19T16:26:31Z</time>
      </trkpt>
      <trkpt lat="43.21202" lon="1.2344">
        <ele>311.12</ele>
        <time>2013-05-19T16:26:37Z</time>
      </trkpt>
      <trkpt lat="43.21294" lon="1.23456">
        <ele>315.93</ele>
        <time>2013-05-19T16:26:45Z</time>
      </trkpt>
      <trkpt lat="43.213" lon="1.2358">
        <ele>324.1</ele>
        <time>2013-05-19T16:26:52Z</time>
      </trkpt>
      <trkpt lat="43.21349" lon="1.23683">
        <ele>330.83</ele>
        <time>2013-05-19T16:26:58Z</time>
      </trkpt>
      <trkpt lat="43.21424" lon="1.23777">
        <ele>336.12</ele>
        <time>2013-05-19T16:27:04Z</time>
      </trkpt>
      <trkpt lat="43.21455" lon="1.23901">
        <ele>339</ele>
        <time>2013-05-19T16:27:09Z</time>
      </trkpt>
      <trkpt lat="43.21466" lon="1.24027">
        <ele>340.44</ele>
        <time>2013-05-19T16:27:14Z</time>
      </trkpt>
      <trkpt lat="43.21497" lon="1.24163">
        <ele>337.56</ele>
        <time>2013-05-19T16:27:20Z</time>
      </trkpt>
      <trkpt lat="43.21548" lon="1.24275">
        <ele>338.52</ele>
        <time>2013-05-19T16:27:25Z</time>
      </trkpt>
      <trkpt lat="43.21585" lon="1.24407">
        <ele>334.68</ele>
        <time>2013-05-19T16:27:30Z</time>
      </trkpt>
      <trkpt lat="43.21634" lon="1.24534">
        <ele>330.83</ele>
        <time>2013-05-19T16:27:35Z</time>
      </trkpt>
      <trkpt lat="43.21706" lon="1.24632">
        <ele>330.35</ele>
        <time>2013-05-19T16:27:40Z</time>
      </trkpt>
      <trkpt lat="43.21761" lon="1.24752">
        <ele>336.12</ele>
        <time>2013-05-19T16:27:46Z</time>
      </trkpt>
      <trkpt lat="43.2175" lon="1.2487">
        <ele>341.41</ele>
        <time>2013-05-19T16:27:52Z</time>
      </trkpt>
      <trkpt lat="43.21726" lon="1.2498">
        <ele>348.13</ele>
        <time>2013-05-19T16:27:59Z</time>
      </trkpt>
      <trkpt lat="43.21746" lon="1.25115">
        <ele>351.5</ele>
        <time>2013-05-19T16:28:06Z</time>
      </trkpt>
      <trkpt lat="43.21708" lon="1.25236">
        <ele>350.06</ele>
        <time>2013-05-19T16:28:12Z</time>
      </trkpt>
      <trkpt lat="43.21711" lon="1.25351">
        <ele>345.25</ele>
        <time>2013-05-19T16:28:18Z</time>
      </trkpt>
      <trkpt lat="43.21767" lon="1.25449">
        <ele>351.02</ele>
        <time>2013-05-19T16:28:22Z</time>
      </trkpt>
      <trkpt lat="43.21828" lon="1.25561">
        <ele>346.69</ele>
        <time>2013-05-19T16:28:27Z</time>
      </trkpt>
      <trkpt lat="43.21891" lon="1.25652">
        <ele>350.06</ele>
        <time>2013-05-19T16:28:32Z</time>
      </trkpt>
      <trkpt lat="43.21989" lon="1.25699">
        <ele>349.58</ele>
        <time>2013-05-19T16:28:38Z</time>
      </trkpt>
      <trkpt lat="43.2209" lon="1.2574">
        <ele>355.83</ele>
        <time>2013-05-19T16:28:44Z</time>
      </trkpt>
      <trkpt lat="43.2216" lon="1.25823">
        <ele>358.71</ele>
        <time>2013-05-19T16:28:50Z</time>
      </trkpt>
      <trkpt lat="43.22208" lon="1.25936">
        <ele>364.96</ele>
        <time>2013-05-19T16:28:56Z</time>
      </trkpt>
      <trkpt lat="43.22216" lon="1.26073">
        <ele>366.88</ele>
        <time>2013-05-19T16:29:03Z</time>
      </trkpt>
      <trkpt lat="43.22158" lon="1.26191">
        <ele>365.44</ele>
        <time>2013-05-19T16:29:09Z</time>
      </trkpt>
      <trkpt lat="43.22111" lon="1.26298">
        <ele>369.28</ele>
        <time>2013-05-19T16:29:14Z</time>
      </trkpt>
      <trkpt lat="43.22068" lon="1.26425">
        <ele>370.73</ele>
        <time>2013-05-19T16:29:20Z</time>
      </trkpt>
      <trkpt lat="43.22035" lon="1.26551">
        <ele>366.88</ele>
        <time>2013-05-19T16:29:27Z</time>
      </trkpt>
      <trkpt lat="43.22028" lon="1.26684">
        <ele>358.23</ele>
        <time>2013-05-19T16:29:34Z</time>
      </trkpt>
      <trkpt lat="43.2206" lon="1.26802">
        <ele>350.54</ele>
        <time>2013-05-19T16:29:39Z</time>
      </trkpt>
      <trkpt lat="43.2211" lon="1.26906">
        <ele>347.17</ele>
        <time>2013-05-19T16:29:44Z</time>
      </trkpt>
      <trkpt lat="43.22174" lon="1.27003">
        <ele>342.37</ele>
        <time>2013-05-19T16:29:49Z</time>
      </trkpt>
      <trkpt lat="43.22243" lon="1.27079">
        <ele>345.25</ele>
        <time>2013-05-19T16:29:55Z</time>
      </trkpt>
      <trkpt lat="43.22324" lon="1.27134">
        <ele>352.46</ele>
        <time>2013-05-19T16:30:01Z</time>
      </trkpt>
      <trkpt lat="43.22361" lon="1.27258">
        <ele>351.5</ele>
        <time>2013-05-19T16:30:07Z</time>
      </trkpt>
      <trkpt lat="43.22418" lon="1.27366">
        <ele>346.21</ele>
        <time>2013-05-19T16:30:14Z</time>
      </trkpt>
      <trkpt lat="43.2249" lon="1.2744">
        <ele>335.64</ele>
        <time>2013-05-19T16:30:19Z</time>
      </trkpt>
      <trkpt lat="43.22571" lon="1.27518">
        <ele>329.39</ele>
        <time>2013-05-19T16:30:26Z</time>
      </trkpt>
      <trkpt lat="43.22642" lon="1.27612">
        <ele>317.85</ele>
        <time>2013-05-19T16:30:34Z</time>
      </trkpt>
      <trkpt lat="43.22717" lon="1.27689">
        <ele>309.68</ele>
        <time>2013-05-19T16:30:40Z</time>
      </trkpt>
      <trkpt lat="43.22772" lon="1.278">
        <ele>301.51</ele>
        <time>2013-05-19T16:30:47Z</time>
      </trkpt>
      <trkpt lat="43.22774" lon="1.2792">
        <ele>289.97</ele>
        <time>2013-05-19T16:30:55Z</time>
      </trkpt>
      <trkpt lat="43.22852" lon="1.27961">
        <ele>279.88</ele>
        <time>2013-05-19T16:31:03Z</time>
      </trkpt>
      <trkpt lat="43.22942" lon="1.27906">
        <ele>268.83</ele>
        <time>2013-05-19T16:31:12Z</time>
      </trkpt>
      <trkpt lat="43.22946" lon="1.28028">
        <ele>259.21</ele>
        <time>2013-05-19T16:31:20Z</time>
      </trkpt>
      <trkpt lat="43.23003" lon="1.28139">
        <ele>258.25</ele>
        <time>2013-05-19T16:31:25Z</time>
      </trkpt>
      <trkpt lat="43.23064" lon="1.28242">
        <ele>254.89</ele>
        <time>2013-05-19T16:31:32Z</time>
      </trkpt>
      <trkpt lat="43.23129" lon="1.28321">
        <ele>254.89</ele>
        <time>2013-05-19T16:31:41Z</time>
      </trkpt>
      <trkpt lat="43.23194" lon="1.2839">
        <ele>259.69</ele>
        <time>2013-05-19T16:32:01Z</time>
      </trkpt>
      <trkpt lat="43.23212" lon="1.28507">
        <ele>260.17</ele>
        <time>2013-05-19T16:32:11Z</time>
      </trkpt>
      <trkpt lat="43.233" lon="1.28513">
        <ele>260.17</ele>
        <time>2013-05-19T16:32:19Z</time>
      </trkpt>
      <trkpt lat="43.23395" lon="1.28492">
        <ele>269.79</ele>
        <time>2013-05-19T16:32:29Z</time>
      </trkpt>
      <trkpt lat="43.23498" lon="1.28518">
        <ele>277.96</ele>
        <time>2013-05-19T16:32:37Z</time>
      </trkpt>
      <trkpt lat="43.23598" lon="1.28532">
        <ele>286.13</ele>
        <time>2013-05-19T16:32:45Z</time>
      </trkpt>
      <trkpt lat="43.23682" lon="1.28482">
        <ele>294.78</ele>
        <time>2013-05-19T16:32:53Z</time>
      </trkpt>
      <trkpt lat="43.23766" lon="1.2842">
        <ele>302.95</ele>
        <time>2013-05-19T16:33:02Z</time>
      </trkpt>
      <trkpt lat="43.23855" lon="1.28391">
        <ele>308.24</ele>
        <time>2013-05-19T16:33:09Z</time>
      </trkpt>
      <trkpt lat="43.2395" lon="1.28356">
        <ele>310.16</ele>
        <time>2013-05-19T16:33:16Z</time>
      </trkpt>
      <trkpt lat="43.24038" lon="1.28404">
        <ele>317.37</ele>
        <time>2013-05-19T16:33:23Z</time>
      </trkpt>
      <trkpt lat="43.24133" lon="1.28455">
        <ele>326.99</ele>
        <time>2013-05-19T16:33:28Z</time>
      </trkpt>
      <trkpt lat="43.24218" lon="1.28502">
        <ele>334.68</ele>
        <time>2013-05-19T16:33:33Z</time>
      </trkpt>
      <trkpt lat="43.2429" lon="1.28599">
        <ele>342.37</ele>
        <time>2013-05-19T16:33:39Z</time>
      </trkpt>
      <trkpt lat="43.24335" lon="1.2871">
        <ele>351.02</ele>
        <time>2013-05-19T16:33:45Z</time>
      </trkpt>
      <trkpt lat="43.24404" lon="1.28792">
        <ele>360.15</ele>
        <time>2013-05-19T16:33:55Z</time>
      </trkpt>
      <trkpt lat="43.24491" lon="1.28819">
        <ele>367.36</ele>
        <time>2013-05-19T16:34:11Z</time>
      </trkpt>
      <trkpt lat="43.24493" lon="1.28943">
        <ele>368.32</ele>
        <time>2013-05-19T16:34:24Z</time>
      </trkpt>
      <trkpt lat="43.24437" lon="1.2905">
        <ele>364.48</ele>
        <time>2013-05-19T16:34:34Z</time>
      </trkpt>
      <trkpt lat="43.24373" lon="1.29148">
        <ele>360.63</ele>
        <time>2013-05-19T16:34:42Z</time>
      </trkpt>
      <trkpt lat="43.24313" lon="1.29241">
        <ele>358.71</ele>
        <time>2013-05-19T16:34:49Z</time>
      </trkpt>
      <trkpt lat="43.24263" lon="1.29345">
        <ele>360.15</ele>
        <time>2013-05-19T16:34:58Z</time>
      </trkpt>
      <trkpt lat="43.24281" lon="1.29477">
        <ele>355.83</ele>
        <time>2013-05-19T16:35:05Z</time>
      </trkpt>
      <trkpt lat="43.24356" lon="1.29571">
        <ele>348.62</ele>
        <time>2013-05-19T16:35:12Z</time>
      </trkpt>
      <trkpt lat="43.24429" lon="1.29657">
        <ele>344.29</ele>
        <time>2013-05-19T16:35:19Z</time>
      </trkpt>
      <trkpt lat="43.24473" lon="1.29774">
        <ele>345.73</ele>
        <time>2013-05-19T16:35:28Z</time>
      </trkpt>
      <trkpt lat="43.24546" lon="1.29813">
        <ele>344.77</ele>
        <time>2013-05-19T16:35:38Z</time>
      </trkpt>
      <trkpt lat="43.24614" lon="1.29848">
        <ele>344.77</ele>
        <time>2013-05-19T16:35:47Z</time>
      </trkpt>
      <trkpt lat="43.24653" lon="1.29958">
        <ele>340.92</ele>
        <time>2013-05-19T16:35:54Z</time>
      </trkpt>
      <trkpt lat="43.24739" lon="1.30014">
        <ele>330.35</ele>
        <time>2013-05-19T16:36:01Z</time>
      </trkpt>
      <trkpt lat="43.24816" lon="1.30099">
        <ele>321.7</ele>
        <time>2013-05-19T16:36:08Z</time>
      </trkpt>
      <trkpt lat="43.24891" lon="1.30168">
        <ele>322.66</ele>
        <time>2013-05-19T16:36:15Z</time>
      </trkpt>
      <trkpt lat="43.24921" lon="1.30295">
        <ele>326.99</ele>
        <time>2013-05-19T16:36:23Z</time>
      </trkpt>
      <trkpt lat="43.24993" lon="1.30366">
        <ele>322.18</ele>
        <time>2013-05-19T16:36:30Z</time>
      </trkpt>
      <trkpt lat="43.25045" lon="1.30473">
        <ele>313.53</ele>
        <time>2013-05-19T16:36:38Z</time>
      </trkpt>
      <trkpt lat="43.25034" lon="1.30607">
        <ele>306.32</ele>
        <time>2013-05-19T16:36:44Z</time>
      </trkpt>
      <trkpt lat="43.25015" lon="1.30738">
        <ele>299.11</ele>
        <time>2013-05-19T16:36:52Z</time>
      </trkpt>
      <trkpt lat="43.24963" lon="1.30854">
        <ele>290.46</ele>
        <time>2013-05-19T16:36:59Z</time>
      </trkpt>
      <trkpt lat="43.24896" lon="1.30957">
        <ele>283.25</ele>
        <time>2013-05-19T16:37:06Z</time>
      </trkpt>
      <trkpt lat="43.24836" lon="1.31054">
        <ele>277.96</ele>
        <time>2013-05-19T16:37:14Z</time>
      </trkpt>
      <trkpt lat="43.24899" lon="1.31159">
        <ele>273.63</ele>
        <time>2013-05-19T16:37:22Z</time>
      </trkpt>
      <trkpt lat="43.24954" lon="1.3127">
        <ele>267.86</ele>
        <time>2013-05-19T16:37:29Z</time>
      </trkpt>
      <trkpt lat="43.25019" lon="1.31366">
        <ele>262.58</ele>
        <time>2013-05-19T16:37:36Z</time>
      </trkpt>
      <trkpt lat="43.25092" lon="1.31439">
        <ele>257.29</ele>
        <time>2013-05-19T16:37:41Z</time>
      </trkpt>
      <trkpt lat="43.25176" lon="1.31525">
        <ele>253.93</ele>
        <time>2013-05-19T16:37:46Z</time>
      </trkpt>
      <trkpt lat="43.25257" lon="1.31609">
        <ele>250.56</ele>
        <time>2013-05-19T16:37:51Z</time>
      </trkpt>
      <trkpt lat="43.25334" lon="1.31662">
        <ele>252.48</ele>
        <time>2013-05-19T16:37:58Z</time>
      </trkpt>
      <trkpt lat="43.25397" lon="1.31566">
        <ele>255.85</ele>
        <time>2013-05-19T16:38:04Z</time>
      </trkpt>
      <trkpt lat="43.25455" lon="1.31472">
        <ele>257.29</ele>
        <time>2013-05-19T16:38:10Z</time>
      </trkpt>
      <trkpt lat="43.25552" lon="1.31437">
        <ele>264.98</ele>
        <time>2013-05-19T16:38:17Z</time>
      </trkpt>
      <trkpt lat="43.25594" lon="1.31528">
        <ele>273.15</ele>
        <time>2013-05-19T16:38:27Z</time>
      </trkpt>
      <trkpt lat="43.25634" lon="1.31624">
        <ele>282.28</ele>
        <time>2013-05-19T16:38:38Z</time>
      </trkpt>
      <trkpt lat="43.25735" lon="1.31622">
        <ele>287.57</ele>
        <time>2013-05-19T16:38:48Z</time>
      </trkpt>
      <trkpt lat="43.25782" lon="1.31729">
        <ele>283.25</ele>
        <time>2013-05-19T16:38:55Z</time>
      </trkpt>
      <trkpt lat="43.25801" lon="1.31849">
        <ele>275.07</ele>
        <time>2013-05-19T16:39:01Z</time>
      </trkpt>
      <trkpt lat="43.25866" lon="1.31927">
        <ele>266.9</ele>
        <time>2013-05-19T16:39:09Z</time>
      </trkpt>
      <trkpt lat="43.25925" lon="1.32006">
        <ele>256.81</ele>
        <time>2013-05-19T16:39:19Z</time>
      </trkpt>
      <trkpt lat="43.25976" lon="1.32111">
        <ele>250.08</ele>
        <time>2013-05-19T16:39:28Z</time>
      </trkpt>
      <trkpt lat="43.26065" lon="1.32145">
        <ele>245.27</ele>
        <time>2013-05-19T16:39:34Z</time>
      </trkpt>
      <trkpt lat="43.26122" lon="1.32232">
        <ele>241.43</ele>
        <time>2013-05-19T16:39:41Z</time>
      </trkpt>
      <trkpt lat="43.26166" lon="1.32354">
        <ele>237.1</ele>
        <time>2013-05-19T16:39:47Z</time>
      </trkpt>
      <trkpt lat="43.26186" lon="1.32479">
        <ele>236.14</ele>
        <time>2013-05-19T16:39:52Z</time>
      </trkpt>
      <trkpt lat="43.26192" lon="1.32612">
        <ele>234.7</ele>
        <time>2013-05-19T16:39:57Z</time>
      </trkpt>
      <trkpt lat="43.26215" lon="1.32732">
        <ele>232.78</ele>
        <time>2013-05-19T16:40:02Z</time>
      </trkpt>
      <trkpt lat="43.26234" lon="1.32858">
        <ele>228.93</ele>
        <time>2013-05-19T16:40:07Z</time>
      </trkpt>
      <trkpt lat="43.26242" lon="1.32994">
        <ele>227.97</ele>
        <time>2013-05-19T16:40:13Z</time>
      </trkpt>
      <trkpt lat="43.26297" lon="1.33081">
        <ele>227.49</ele>
        <time>2013-05-19T16:40:20Z</time>
      </trkpt>
      <trkpt lat="43.26399" lon="1.33105">
        <ele>224.61</ele>
        <time>2013-05-19T16:40:27Z</time>
      </trkpt>
      <trkpt lat="43.26463" lon="1.33205">
        <ele>225.57</ele>
        <time>2013-05-19T16:40:33Z</time>
      </trkpt>
      <trkpt lat="43.26528" lon="1.33308">
        <ele>224.12</ele>
        <time>2013-05-19T16:40:40Z</time>
      </trkpt>
      <trkpt lat="43.26608" lon="1.3337">
        <ele>223.64</ele>
        <time>2013-05-19T16:40:45Z</time>
      </trkpt>
      <trkpt lat="43.26682" lon="1.33442">
        <ele>222.68</ele>
        <time>2013-05-19T16:40:51Z</time>
      </trkpt>
      <trkpt lat="43.26756" lon="1.33526">
        <ele>223.16</ele>
        <time>2013-05-19T16:40:58Z</time>
      </trkpt>
      <trkpt lat="43.26858" lon="1.33544">
        <ele>221.72</ele>
        <time>2013-05-19T16:41:05Z</time>
      </trkpt>
      <trkpt lat="43.26951" lon="1.33605">
        <ele>220.76</ele>
        <time>2013-05-19T16:41:12Z</time>
      </trkpt>
      <trkpt lat="43.27036" lon="1.33695">
        <ele>220.28</ele>
        <time>2013-05-19T16:41:18Z</time>
      </trkpt>
      <trkpt lat="43.27115" lon="1.33779">
        <ele>216.91</ele>
        <time>2013-05-19T16:41:25Z</time>
      </trkpt>
      <trkpt lat="43.2721" lon="1.33827">
        <ele>216.43</ele>
        <time>2013-05-19T16:41:32Z</time>
      </trkpt>
      <trkpt lat="43.27299" lon="1.33867">
        <ele>214.99</ele>
        <time>2013-05-19T16:41:42Z</time>
      </trkpt>
      <trkpt lat="43.27356" lon="1.33966">
        <ele>215.95</ele>
        <time>2013-05-19T16:41:56Z</time>
      </trkpt>
      <trkpt lat="43.27385" lon="1.34086">
        <ele>214.51</ele>
        <time>2013-05-19T16:42:04Z</time>
      </trkpt>
      <trkpt lat="43.27413" lon="1.34209">
        <ele>212.59</ele>
        <time>2013-05-19T16:42:13Z</time>
      </trkpt>
      <trkpt lat="43.2745" lon="1.34325">
        <ele>214.03</ele>
        <time>2013-05-19T16:42:22Z</time>
      </trkpt>
      <trkpt lat="43.27474" lon="1.34446">
        <ele>215.95</ele>
        <time>2013-05-19T16:42:32Z</time>
      </trkpt>
      <trkpt lat="43.27501" lon="1.34571">
        <ele>218.36</ele>
        <time>2013-05-19T16:42:47Z</time>
      </trkpt>
      <trkpt lat="43.27485" lon="1.34697">
        <ele>214.99</ele>
        <time>2013-05-19T16:42:59Z</time>
      </trkpt>
      <trkpt lat="43.27526" lon="1.3477">
        <ele>214.99</ele>
        <time>2013-05-19T16:44:18Z</time>
      </trkpt>
      <trkpt lat="43.27618" lon="1.34783">
        <ele>218.84</ele>
        <time>2013-05-19T17:02:19Z</time>
      </trkpt>
      <trkpt lat="43.27705" lon="1.34729">
        <ele>220.28</ele>
        <time>2013-05-19T17:02:30Z</time>
      </trkpt>
      <trkpt lat="43.27794" lon="1.34712">
        <ele>219.8</ele>
        <time>2013-05-19T17:02:40Z</time>
      </trkpt>
      <trkpt lat="43.27887" lon="1.34728">
        <ele>217.4</ele>
        <time>2013-05-19T17:02:50Z</time>
      </trkpt>
      <trkpt lat="43.27989" lon="1.34743">
        <ele>216.43</ele>
        <time>2013-05-19T17:02:58Z</time>
      </trkpt>
      <trkpt lat="43.28091" lon="1.34755">
        <ele>214.99</ele>
        <time>2013-05-19T17:03:06Z</time>
      </trkpt>
      <trkpt lat="43.28196" lon="1.34752">
        <ele>214.51</ele>
        <time>2013-05-19T17:03:13Z</time>
      </trkpt>
      <trkpt lat="43.28289" lon="1.34703">
        <ele>217.4</ele>
        <time>2013-05-19T17:03:20Z</time>
      </trkpt>
      <trkpt lat="43.28389" lon="1.34658">
        <ele>214.03</ele>
        <time>2013-05-19T17:03:26Z</time>
      </trkpt>
      <trkpt lat="43.28496" lon="1.34608">
        <ele>225.57</ele>
        <time>2013-05-19T17:03:30Z</time>
      </trkpt>
      <trkpt lat="43.28587" lon="1.34564">
        <ele>216.91</ele>
        <time>2013-05-19T17:03:34Z</time>
      </trkpt>
      <trkpt lat="43.28689" lon="1.34514">
        <ele>221.24</ele>
        <time>2013-05-19T17:03:39Z</time>
      </trkpt>
      <trkpt lat="43.28791" lon="1.34465">
        <ele>220.28</ele>
        <time>2013-05-19T17:03:44Z</time>
      </trkpt>
      <trkpt lat="43.28887" lon="1.34412">
        <ele>219.32</ele>
        <time>2013-05-19T17:03:49Z</time>
      </trkpt>
      <trkpt lat="43.28982" lon="1.34351">
        <ele>219.8</ele>
        <time>2013-05-19T17:03:54Z</time>
      </trkpt>
      <trkpt lat="43.29081" lon="1.34288">
        <ele>214.99</ele>
        <time>2013-05-19T17:03:59Z</time>
      </trkpt>
      <trkpt lat="43.29172" lon="1.34231">
        <ele>218.84</ele>
        <time>2013-05-19T17:04:03Z</time>
      </trkpt>
      <trkpt lat="43.29261" lon="1.34174">
        <ele>217.4</ele>
        <time>2013-05-19T17:04:07Z</time>
      </trkpt>
      <trkpt lat="43.29348" lon="1.34119">
        <ele>218.36</ele>
        <time>2013-05-19T17:04:11Z</time>
      </trkpt>
      <trkpt lat="43.2943" lon="1.34065">
        <ele>223.16</ele>
        <time>2013-05-19T17:04:15Z</time>
      </trkpt>
      <trkpt lat="43.29516" lon="1.33993">
        <ele>220.76</ele>
        <time>2013-05-19T17:04:19Z</time>
      </trkpt>
      <trkpt lat="43.29599" lon="1.33922">
        <ele>219.8</ele>
        <time>2013-05-19T17:04:23Z</time>
      </trkpt>
      <trkpt lat="43.29691" lon="1.33842">
        <ele>219.32</ele>
        <time>2013-05-19T17:04:28Z</time>
      </trkpt>
      <trkpt lat="43.29784" lon="1.33762">
        <ele>215.95</ele>
        <time>2013-05-19T17:04:33Z</time>
      </trkpt>
      <trkpt lat="43.29878" lon="1.3368">
        <ele>213.55</ele>
        <time>2013-05-19T17:04:38Z</time>
      </trkpt>
      <trkpt lat="43.2997" lon="1.33601">
        <ele>214.51</ele>
        <time>2013-05-19T17:04:43Z</time>
      </trkpt>
      <trkpt lat="43.3005" lon="1.33532">
        <ele>215.95</ele>
        <time>2013-05-19T17:04:47Z</time>
      </trkpt>
      <trkpt lat="43.30132" lon="1.33461">
        <ele>213.07</ele>
        <time>2013-05-19T17:04:51Z</time>
      </trkpt>
      <trkpt lat="43.30221" lon="1.33386">
        <ele>210.19</ele>
        <time>2013-05-19T17:04:55Z</time>
      </trkpt>
      <trkpt lat="43.3032" lon="1.333">
        <ele>210.67</ele>
        <time>2013-05-19T17:04:59Z</time>
      </trkpt>
      <trkpt lat="43.30404" lon="1.33228">
        <ele>212.11</ele>
        <time>2013-05-19T17:05:03Z</time>
      </trkpt>
      <trkpt lat="43.30484" lon="1.33156">
        <ele>211.15</ele>
        <time>2013-05-19T17:05:07Z</time>
      </trkpt>
      <trkpt lat="43.30565" lon="1.33088">
        <ele>214.99</ele>
        <time>2013-05-19T17:05:11Z</time>
      </trkpt>
      <trkpt lat="43.3066" lon="1.33007">
        <ele>213.55</ele>
        <time>2013-05-19T17:05:16Z</time>
      </trkpt>
      <trkpt lat="43.30741" lon="1.32939">
        <ele>211.63</ele>
        <time>2013-05-19T17:05:20Z</time>
      </trkpt>
      <trkpt lat="43.30821" lon="1.32868">
        <ele>210.19</ele>
        <time>2013-05-19T17:05:24Z</time>
      </trkpt>
      <trkpt lat="43.30904" lon="1.32797">
        <ele>209.7</ele>
        <time>2013-05-19T17:05:28Z</time>
      </trkpt>
      <trkpt lat="43.30989" lon="1.32724">
        <ele>213.07</ele>
        <time>2013-05-19T17:05:32Z</time>
      </trkpt>
      <trkpt lat="43.31071" lon="1.32654">
        <ele>210.19</ele>
        <time>2013-05-19T17:05:36Z</time>
      </trkpt>
      <trkpt lat="43.3115" lon="1.32587">
        <ele>211.63</ele>
        <time>2013-05-19T17:05:40Z</time>
      </trkpt>
      <trkpt lat="43.31245" lon="1.32506">
        <ele>211.63</ele>
        <time>2013-05-19T17:05:45Z</time>
      </trkpt>
      <trkpt lat="43.3134" lon="1.32423">
        <ele>214.03</ele>
        <time>2013-05-19T17:05:50Z</time>
      </trkpt>
      <trkpt lat="43.31435" lon="1.32349">
        <ele>216.43</ele>
        <time>2013-05-19T17:05:55Z</time>
      </trkpt>
      <trkpt lat="43.31537" lon="1.32321">
        <ele>216.91</ele>
        <time>2013-05-19T17:06:00Z</time>
      </trkpt>
      <trkpt lat="43.31633" lon="1.32312">
        <ele>213.55</ele>
        <time>2013-05-19T17:06:04Z</time>
      </trkpt>
      <trkpt lat="43.3173" lon="1.32304">
        <ele>212.59</ele>
        <time>2013-05-19T17:06:08Z</time>
      </trkpt>
      <trkpt lat="43.31823" lon="1.32297">
        <ele>213.07</ele>
        <time>2013-05-19T17:06:12Z</time>
      </trkpt>
      <trkpt lat="43.31916" lon="1.32291">
        <ele>212.59</ele>
        <time>2013-05-19T17:06:16Z</time>
      </trkpt>
      <trkpt lat="43.32007" lon="1.32284">
        <ele>215.95</ele>
        <time>2013-05-19T17:06:20Z</time>
      </trkpt>
      <trkpt lat="43.32098" lon="1.32276">
        <ele>215.95</ele>
        <time>2013-05-19T17:06:24Z</time>
      </trkpt>
      <trkpt lat="43.32189" lon="1.32269">
        <ele>213.55</ele>
        <time>2013-05-19T17:06:28Z</time>
      </trkpt>
      <trkpt lat="43.32283" lon="1.32262">
        <ele>215.47</ele>
        <time>2013-05-19T17:06:33Z</time>
      </trkpt>
      <trkpt lat="43.32376" lon="1.32254">
        <ele>209.7</ele>
        <time>2013-05-19T17:06:41Z</time>
      </trkpt>
      <trkpt lat="43.32465" lon="1.32245">
        <ele>208.74</ele>
        <time>2013-05-19T17:06:52Z</time>
      </trkpt>
      <trkpt lat="43.32557" lon="1.32241">
        <ele>204.42</ele>
        <time>2013-05-19T17:07:04Z</time>
      </trkpt>
      <trkpt lat="43.32656" lon="1.32232">
        <ele>204.9</ele>
        <time>2013-05-19T17:07:14Z</time>
      </trkpt>
      <trkpt lat="43.32753" lon="1.32228">
        <ele>204.42</ele>
        <time>2013-05-19T17:07:25Z</time>
      </trkpt>
      <trkpt lat="43.3285" lon="1.32231">
        <ele>204.42</ele>
        <time>2013-05-19T17:07:41Z</time>
      </trkpt>
      <trkpt lat="43.32949" lon="1.32223">
        <ele>203.94</ele>
        <time>2013-05-19T17:07:50Z</time>
      </trkpt>
      <trkpt lat="43.33046" lon="1.32215">
        <ele>205.38</ele>
        <time>2013-05-19T17:07:58Z</time>
      </trkpt>
      <trkpt lat="43.33142" lon="1.3221">
        <ele>204.9</ele>
        <time>2013-05-19T17:08:05Z</time>
      </trkpt>
      <trkpt lat="43.33231" lon="1.32204">
        <ele>205.86</ele>
        <time>2013-05-19T17:08:11Z</time>
      </trkpt>
      <trkpt lat="43.33324" lon="1.322">
        <ele>206.34</ele>
        <time>2013-05-19T17:08:17Z</time>
      </trkpt>
      <trkpt lat="43.33419" lon="1.32194">
        <ele>204.9</ele>
        <time>2013-05-19T17:08:23Z</time>
      </trkpt>
      <trkpt lat="43.33523" lon="1.32188">
        <ele>203.46</ele>
        <time>2013-05-19T17:08:29Z</time>
      </trkpt>
      <trkpt lat="43.33617" lon="1.32184">
        <ele>208.74</ele>
        <time>2013-05-19T17:08:33Z</time>
      </trkpt>
      <trkpt lat="43.33712" lon="1.32179">
        <ele>205.86</ele>
        <time>2013-05-19T17:08:37Z</time>
      </trkpt>
      <trkpt lat="43.33809" lon="1.32175">
        <ele>203.46</ele>
        <time>2013-05-19T17:08:41Z</time>
      </trkpt>
      <trkpt lat="43.33907" lon="1.32186">
        <ele>202.01</ele>
        <time>2013-05-19T17:08:45Z</time>
      </trkpt>
      <trkpt lat="43.34011" lon="1.32217">
        <ele>209.7</ele>
        <time>2013-05-19T17:08:49Z</time>
      </trkpt>
      <trkpt lat="43.34124" lon="1.32253">
        <ele>196.73</ele>
        <time>2013-05-19T17:08:53Z</time>
      </trkpt>
      <trkpt lat="43.34217" lon="1.32281">
        <ele>195.77</ele>
        <time>2013-05-19T17:08:56Z</time>
      </trkpt>
      <trkpt lat="43.34319" lon="1.32314">
        <ele>197.21</ele>
        <time>2013-05-19T17:08:59Z</time>
      </trkpt>
      <trkpt lat="43.3441" lon="1.32342">
        <ele>198.65</ele>
        <time>2013-05-19T17:09:02Z</time>
      </trkpt>
      <trkpt lat="43.34511" lon="1.32373">
        <ele>203.94</ele>
        <time>2013-05-19T17:09:06Z</time>
      </trkpt>
      <trkpt lat="43.346" lon="1.32401">
        <ele>202.98</ele>
        <time>2013-05-19T17:09:10Z</time>
      </trkpt>
      <trkpt lat="43.34691" lon="1.32429">
        <ele>200.09</ele>
        <time>2013-05-19T17:09:14Z</time>
      </trkpt>
      <trkpt lat="43.34786" lon="1.32458">
        <ele>202.49</ele>
        <time>2013-05-19T17:09:18Z</time>
      </trkpt>
      <trkpt lat="43.34878" lon="1.32485">
        <ele>203.46</ele>
        <time>2013-05-19T17:09:22Z</time>
      </trkpt>
      <trkpt lat="43.34972" lon="1.32516">
        <ele>199.61</ele>
        <time>2013-05-19T17:09:26Z</time>
      </trkpt>
      <trkpt lat="43.3507" lon="1.32547">
        <ele>204.9</ele>
        <time>2013-05-19T17:09:30Z</time>
      </trkpt>
      <trkpt lat="43.35165" lon="1.32574">
        <ele>204.42</ele>
        <time>2013-05-19T17:09:34Z</time>
      </trkpt>
      <trkpt lat="43.35261" lon="1.32604">
        <ele>205.86</ele>
        <time>2013-05-19T17:09:38Z</time>
      </trkpt>
      <trkpt lat="43.35356" lon="1.32633">
        <ele>203.46</ele>
        <time>2013-05-19T17:09:42Z</time>
      </trkpt>
      <trkpt lat="43.35449" lon="1.32661">
        <ele>205.38</ele>
        <time>2013-05-19T17:09:46Z</time>
      </trkpt>
      <trkpt lat="43.35544" lon="1.3269">
        <ele>200.09</ele>
        <time>2013-05-19T17:09:50Z</time>
      </trkpt>
      <trkpt lat="43.35639" lon="1.3272">
        <ele>202.98</ele>
        <time>2013-05-19T17:09:54Z</time>
      </trkpt>
      <trkpt lat="43.35733" lon="1.32749">
        <ele>204.42</ele>
        <time>2013-05-19T17:09:58Z</time>
      </trkpt>
      <trkpt lat="43.35832" lon="1.32779">
        <ele>205.86</ele>
        <time>2013-05-19T17:10:02Z</time>
      </trkpt>
      <trkpt lat="43.35925" lon="1.32808">
        <ele>202.01</ele>
        <time>2013-05-19T17:10:06Z</time>
      </trkpt>
      <trkpt lat="43.36016" lon="1.32835">
        <ele>202.49</ele>
        <time>2013-05-19T17:10:10Z</time>
      </trkpt>
      <trkpt lat="43.36109" lon="1.32863">
        <ele>200.57</ele>
        <time>2013-05-19T17:10:14Z</time>
      </trkpt>
      <trkpt lat="43.36208" lon="1.32893">
        <ele>200.57</ele>
        <time>2013-05-19T17:10:19Z</time>
      </trkpt>
      <trkpt lat="43.36307" lon="1.32923">
        <ele>201.53</ele>
        <time>2013-05-19T17:10:25Z</time>
      </trkpt>
      <trkpt lat="43.36397" lon="1.32949">
        <ele>202.49</ele>
        <time>2013-05-19T17:10:30Z</time>
      </trkpt>
      <trkpt lat="43.36488" lon="1.32978">
        <ele>201.05</ele>
        <time>2013-05-19T17:10:35Z</time>
      </trkpt>
      <trkpt lat="43.36585" lon="1.33032">
        <ele>200.57</ele>
        <time>2013-05-19T17:10:41Z</time>
      </trkpt>
      <trkpt lat="43.36675" lon="1.33103">
        <ele>202.01</ele>
        <time>2013-05-19T17:10:47Z</time>
      </trkpt>
      <trkpt lat="43.36757" lon="1.33166">
        <ele>203.94</ele>
        <time>2013-05-19T17:10:52Z</time>
      </trkpt>
      <trkpt lat="43.3685" lon="1.33239">
        <ele>202.49</ele>
        <time>2013-05-19T17:10:57Z</time>
      </trkpt>
      <trkpt lat="43.36938" lon="1.33306">
        <ele>201.53</ele>
        <time>2013-05-19T17:11:01Z</time>
      </trkpt>
      <trkpt lat="43.3702" lon="1.33368">
        <ele>200.09</ele>
        <time>2013-05-19T17:11:05Z</time>
      </trkpt>
      <trkpt lat="43.37099" lon="1.33429">
        <ele>202.01</ele>
        <time>2013-05-19T17:11:09Z</time>
      </trkpt>
      <trkpt lat="43.37199" lon="1.33493">
        <ele>200.57</ele>
        <time>2013-05-19T17:11:14Z</time>
      </trkpt>
      <trkpt lat="43.37299" lon="1.33551">
        <ele>200.09</ele>
        <time>2013-05-19T17:11:19Z</time>
      </trkpt>
      <trkpt lat="43.37398" lon="1.33609">
        <ele>203.46</ele>
        <time>2013-05-19T17:11:24Z</time>
      </trkpt>
      <trkpt lat="43.37484" lon="1.33658">
        <ele>202.01</ele>
        <time>2013-05-19T17:11:28Z</time>
      </trkpt>
      <trkpt lat="43.3757" lon="1.33706">
        <ele>198.17</ele>
        <time>2013-05-19T17:11:32Z</time>
      </trkpt>
      <trkpt lat="43.37654" lon="1.33774">
        <ele>195.28</ele>
        <time>2013-05-19T17:11:36Z</time>
      </trkpt>
      <trkpt lat="43.37735" lon="1.33876">
        <ele>197.69</ele>
        <time>2013-05-19T17:11:40Z</time>
      </trkpt>
      <trkpt lat="43.37806" lon="1.33969">
        <ele>196.25</ele>
        <time>2013-05-19T17:11:44Z</time>
      </trkpt>
      <trkpt lat="43.37874" lon="1.34058">
        <ele>198.17</ele>
        <time>2013-05-19T17:11:48Z</time>
      </trkpt>
      <trkpt lat="43.37942" lon="1.34145">
        <ele>199.13</ele>
        <time>2013-05-19T17:11:52Z</time>
      </trkpt>
      <trkpt lat="43.3801" lon="1.34234">
        <ele>196.73</ele>
        <time>2013-05-19T17:11:56Z</time>
      </trkpt>
      <trkpt lat="43.38087" lon="1.34333">
        <ele>197.21</ele>
        <time>2013-05-19T17:12:01Z</time>
      </trkpt>
      <trkpt lat="43.38155" lon="1.34419">
        <ele>197.69</ele>
        <time>2013-05-19T17:12:06Z</time>
      </trkpt>
      <trkpt lat="43.3822" lon="1.3453">
        <ele>197.21</ele>
        <time>2013-05-19T17:12:12Z</time>
      </trkpt>
      <trkpt lat="43.38274" lon="1.34636">
        <ele>195.77</ele>
        <time>2013-05-19T17:12:18Z</time>
      </trkpt>
      <trkpt lat="43.38355" lon="1.34724">
        <ele>195.77</ele>
        <time>2013-05-19T17:12:25Z</time>
      </trkpt>
      <trkpt lat="43.38441" lon="1.34761">
        <ele>194.32</ele>
        <time>2013-05-19T17:12:31Z</time>
      </trkpt>
      <trkpt lat="43.38532" lon="1.34784">
        <ele>194.8</ele>
        <time>2013-05-19T17:12:38Z</time>
      </trkpt>
      <trkpt lat="43.38633" lon="1.34806">
        <ele>195.28</ele>
        <time>2013-05-19T17:12:46Z</time>
      </trkpt>
      <trkpt lat="43.38709" lon="1.34877">
        <ele>193.84</ele>
        <time>2013-05-19T17:12:52Z</time>
      </trkpt>
      <trkpt lat="43.38794" lon="1.34948">
        <ele>196.73</ele>
        <time>2013-05-19T17:12:58Z</time>
      </trkpt>
      <trkpt lat="43.38884" lon="1.35018">
        <ele>198.65</ele>
        <time>2013-05-19T17:13:04Z</time>
      </trkpt>
      <trkpt lat="43.38975" lon="1.35106">
        <ele>199.61</ele>
        <time>2013-05-19T17:13:10Z</time>
      </trkpt>
      <trkpt lat="43.39057" lon="1.35224">
        <ele>200.09</ele>
        <time>2013-05-19T17:13:14Z</time>
      </trkpt>
      <trkpt lat="43.39135" lon="1.35333">
        <ele>193.36</ele>
        <time>2013-05-19T17:13:18Z</time>
      </trkpt>
      <trkpt lat="43.39211" lon="1.3544">
        <ele>193.36</ele>
        <time>2013-05-19T17:13:23Z</time>
      </trkpt>
      <trkpt lat="43.39288" lon="1.35549">
        <ele>191.92</ele>
        <time>2013-05-19T17:13:28Z</time>
      </trkpt>
      <trkpt lat="43.39351" lon="1.35638">
        <ele>193.36</ele>
        <time>2013-05-19T17:13:32Z</time>
      </trkpt>
      <trkpt lat="43.39426" lon="1.35749">
        <ele>193.84</ele>
        <time>2013-05-19T17:13:37Z</time>
      </trkpt>
      <trkpt lat="43.39506" lon="1.35844">
        <ele>189.52</ele>
        <time>2013-05-19T17:13:42Z</time>
      </trkpt>
      <trkpt lat="43.39582" lon="1.35911">
        <ele>191.44</ele>
        <time>2013-05-19T17:13:46Z</time>
      </trkpt>
      <trkpt lat="43.39669" lon="1.35992">
        <ele>190.96</ele>
        <time>2013-05-19T17:13:50Z</time>
      </trkpt>
      <trkpt lat="43.3975" lon="1.36067">
        <ele>192.88</ele>
        <time>2013-05-19T17:13:54Z</time>
      </trkpt>
      <trkpt lat="43.3982" lon="1.36154">
        <ele>192.4</ele>
        <time>2013-05-19T17:13:58Z</time>
      </trkpt>
      <trkpt lat="43.39874" lon="1.36258">
        <ele>192.4</ele>
        <time>2013-05-19T17:14:02Z</time>
      </trkpt>
      <trkpt lat="43.39948" lon="1.36374">
        <ele>194.32</ele>
        <time>2013-05-19T17:14:07Z</time>
      </trkpt>
      <trkpt lat="43.40031" lon="1.36455">
        <ele>194.8</ele>
        <time>2013-05-19T17:14:11Z</time>
      </trkpt>
      <trkpt lat="43.40108" lon="1.36529">
        <ele>195.77</ele>
        <time>2013-05-19T17:14:15Z</time>
      </trkpt>
      <trkpt lat="43.40193" lon="1.36622">
        <ele>197.69</ele>
        <time>2013-05-19T17:14:20Z</time>
      </trkpt>
      <trkpt lat="43.40266" lon="1.36709">
        <ele>196.73</ele>
        <time>2013-05-19T17:14:24Z</time>
      </trkpt>
      <trkpt lat="43.40335" lon="1.36793">
        <ele>196.73</ele>
        <time>2013-05-19T17:14:28Z</time>
      </trkpt>
      <trkpt lat="43.40403" lon="1.36875">
        <ele>192.88</ele>
        <time>2013-05-19T17:14:32Z</time>
      </trkpt>
      <trkpt lat="43.40471" lon="1.36956">
        <ele>192.88</ele>
        <time>2013-05-19T17:14:36Z</time>
      </trkpt>
      <trkpt lat="43.40553" lon="1.37042">
        <ele>194.8</ele>
        <time>2013-05-19T17:14:41Z</time>
      </trkpt>
      <trkpt lat="43.40659" lon="1.37081">
        <ele>197.69</ele>
        <time>2013-05-19T17:14:46Z</time>
      </trkpt>
      <trkpt lat="43.40763" lon="1.3711">
        <ele>192.4</ele>
        <time>2013-05-19T17:14:51Z</time>
      </trkpt>
      <trkpt lat="43.40866" lon="1.37139">
        <ele>193.36</ele>
        <time>2013-05-19T17:14:56Z</time>
      </trkpt>
      <trkpt lat="43.40958" lon="1.37164">
        <ele>192.88</ele>
        <time>2013-05-19T17:15:00Z</time>
      </trkpt>
      <trkpt lat="43.41061" lon="1.37194">
        <ele>195.77</ele>
        <time>2013-05-19T17:15:04Z</time>
      </trkpt>
      <trkpt lat="43.41159" lon="1.37221">
        <ele>195.28</ele>
        <time>2013-05-19T17:15:08Z</time>
      </trkpt>
      <trkpt lat="43.41253" lon="1.37247">
        <ele>191.92</ele>
        <time>2013-05-19T17:15:12Z</time>
      </trkpt>
      <trkpt lat="43.41342" lon="1.37273">
        <ele>193.36</ele>
        <time>2013-05-19T17:15:16Z</time>
      </trkpt>
      <trkpt lat="43.41449" lon="1.37303">
        <ele>192.88</ele>
        <time>2013-05-19T17:15:21Z</time>
      </trkpt>
      <trkpt lat="43.41538" lon="1.37327">
        <ele>193.36</ele>
        <time>2013-05-19T17:15:25Z</time>
      </trkpt>
      <trkpt lat="43.41646" lon="1.37358">
        <ele>190.48</ele>
        <time>2013-05-19T17:15:30Z</time>
      </trkpt>
      <trkpt lat="43.41742" lon="1.37384">
        <ele>190.48</ele>
        <time>2013-05-19T17:15:35Z</time>
      </trkpt>
      <trkpt lat="43.4183" lon="1.37409">
        <ele>190</ele>
        <time>2013-05-19T17:15:40Z</time>
      </trkpt>
      <trkpt lat="43.41924" lon="1.37436">
        <ele>189.04</ele>
        <time>2013-05-19T17:15:46Z</time>
      </trkpt>
      <trkpt lat="43.42011" lon="1.37473">
        <ele>188.56</ele>
        <time>2013-05-19T17:15:54Z</time>
      </trkpt>
      <trkpt lat="43.421" lon="1.37498">
        <ele>191.44</ele>
        <time>2013-05-19T17:16:03Z</time>
      </trkpt>
      <trkpt lat="43.42188" lon="1.37532">
        <ele>191.92</ele>
        <time>2013-05-19T17:16:09Z</time>
      </trkpt>
      <trkpt lat="43.42286" lon="1.37567">
        <ele>190.48</ele>
        <time>2013-05-19T17:16:14Z</time>
      </trkpt>
      <trkpt lat="43.42384" lon="1.37602">
        <ele>192.88</ele>
        <time>2013-05-19T17:16:19Z</time>
      </trkpt>
      <trkpt lat="43.42482" lon="1.37638">
        <ele>190.48</ele>
        <time>2013-05-19T17:16:24Z</time>
      </trkpt>
      <trkpt lat="43.42571" lon="1.3767">
        <ele>191.92</ele>
        <time>2013-05-19T17:16:28Z</time>
      </trkpt>
      <trkpt lat="43.42678" lon="1.37708">
        <ele>191.92</ele>
        <time>2013-05-19T17:16:33Z</time>
      </trkpt>
      <trkpt lat="43.42784" lon="1.37745">
        <ele>192.4</ele>
        <time>2013-05-19T17:16:38Z</time>
      </trkpt>
      <trkpt lat="43.42887" lon="1.37782">
        <ele>191.44</ele>
        <time>2013-05-19T17:16:42Z</time>
      </trkpt>
      <trkpt lat="43.42998" lon="1.37825">
        <ele>188.08</ele>
        <time>2013-05-19T17:16:46Z</time>
      </trkpt>
      <trkpt lat="43.43089" lon="1.37854">
        <ele>190.48</ele>
        <time>2013-05-19T17:16:50Z</time>
      </trkpt>
      <trkpt lat="43.43198" lon="1.37872">
        <ele>187.59</ele>
        <time>2013-05-19T17:16:55Z</time>
      </trkpt>
      <trkpt lat="43.43306" lon="1.37886">
        <ele>193.84</ele>
        <time>2013-05-19T17:17:00Z</time>
      </trkpt>
      <trkpt lat="43.43399" lon="1.37879">
        <ele>190.96</ele>
        <time>2013-05-19T17:17:04Z</time>
      </trkpt>
      <trkpt lat="43.43493" lon="1.37871">
        <ele>193.36</ele>
        <time>2013-05-19T17:17:08Z</time>
      </trkpt>
      <trkpt lat="43.43586" lon="1.37863">
        <ele>194.8</ele>
        <time>2013-05-19T17:17:12Z</time>
      </trkpt>
      <trkpt lat="43.43693" lon="1.37856">
        <ele>183.75</ele>
        <time>2013-05-19T17:17:17Z</time>
      </trkpt>
      <trkpt lat="43.43793" lon="1.379">
        <ele>183.75</ele>
        <time>2013-05-19T17:17:22Z</time>
      </trkpt>
      <trkpt lat="43.43892" lon="1.3797">
        <ele>183.75</ele>
        <time>2013-05-19T17:17:27Z</time>
      </trkpt>
      <trkpt lat="43.43992" lon="1.38042">
        <ele>179.42</ele>
        <time>2013-05-19T17:17:32Z</time>
      </trkpt>
      <trkpt lat="43.44069" lon="1.38107">
        <ele>178.46</ele>
        <time>2013-05-19T17:17:36Z</time>
      </trkpt>
      <trkpt lat="43.44161" lon="1.38192">
        <ele>184.71</ele>
        <time>2013-05-19T17:17:41Z</time>
      </trkpt>
      <trkpt lat="43.44236" lon="1.38262">
        <ele>181.83</ele>
        <time>2013-05-19T17:17:45Z</time>
      </trkpt>
      <trkpt lat="43.44312" lon="1.38331">
        <ele>180.38</ele>
        <time>2013-05-19T17:17:49Z</time>
      </trkpt>
      <trkpt lat="43.44393" lon="1.38395">
        <ele>176.54</ele>
        <time>2013-05-19T17:17:53Z</time>
      </trkpt>
      <trkpt lat="43.44479" lon="1.38456">
        <ele>178.46</ele>
        <time>2013-05-19T17:17:57Z</time>
      </trkpt>
      <trkpt lat="43.44566" lon="1.38517">
        <ele>175.58</ele>
        <time>2013-05-19T17:18:01Z</time>
      </trkpt>
      <trkpt lat="43.44658" lon="1.38582">
        <ele>173.17</ele>
        <time>2013-05-19T17:18:05Z</time>
      </trkpt>
      <trkpt lat="43.44753" lon="1.38651">
        <ele>177.02</ele>
        <time>2013-05-19T17:18:10Z</time>
      </trkpt>
      <trkpt lat="43.44838" lon="1.38711">
        <ele>175.1</ele>
        <time>2013-05-19T17:18:15Z</time>
      </trkpt>
      <trkpt lat="43.44921" lon="1.38799">
        <ele>177.5</ele>
        <time>2013-05-19T17:18:21Z</time>
      </trkpt>
      <trkpt lat="43.44977" lon="1.38916">
        <ele>176.06</ele>
        <time>2013-05-19T17:18:27Z</time>
      </trkpt>
      <trkpt lat="43.45033" lon="1.39029">
        <ele>175.1</ele>
        <time>2013-05-19T17:18:34Z</time>
      </trkpt>
      <trkpt lat="43.45093" lon="1.39125">
        <ele>175.1</ele>
        <time>2013-05-19T17:18:40Z</time>
      </trkpt>
      <trkpt lat="43.4516" lon="1.39211">
        <ele>175.1</ele>
        <time>2013-05-19T17:18:46Z</time>
      </trkpt>
      <trkpt lat="43.45234" lon="1.39289">
        <ele>174.14</ele>
        <time>2013-05-19T17:18:53Z</time>
      </trkpt>
      <trkpt lat="43.45315" lon="1.39357">
        <ele>172.69</ele>
        <time>2013-05-19T17:19:02Z</time>
      </trkpt>
      <trkpt lat="43.45384" lon="1.39421">
        <ele>172.69</ele>
        <time>2013-05-19T17:19:13Z</time>
      </trkpt>
      <trkpt lat="43.45474" lon="1.3949">
        <ele>175.1</ele>
        <time>2013-05-19T17:19:21Z</time>
      </trkpt>
      <trkpt lat="43.45559" lon="1.39539">
        <ele>174.14</ele>
        <time>2013-05-19T17:19:28Z</time>
      </trkpt>
      <trkpt lat="43.45654" lon="1.39569">
        <ele>173.17</ele>
        <time>2013-05-19T17:19:35Z</time>
      </trkpt>
      <trkpt lat="43.45752" lon="1.39598">
        <ele>173.17</ele>
        <time>2013-05-19T17:19:43Z</time>
      </trkpt>
      <trkpt lat="43.45849" lon="1.39628">
        <ele>172.69</ele>
        <time>2013-05-19T17:19:51Z</time>
      </trkpt>
      <trkpt lat="43.45945" lon="1.39658">
        <ele>172.69</ele>
        <time>2013-05-19T17:19:59Z</time>
      </trkpt>
      <trkpt lat="43.46037" lon="1.39688">
        <ele>173.66</ele>
        <time>2013-05-19T17:20:07Z</time>
      </trkpt>
      <trkpt lat="43.46136" lon="1.39717">
        <ele>172.69</ele>
        <time>2013-05-19T17:20:15Z</time>
      </trkpt>
      <trkpt lat="43.46236" lon="1.39737">
        <ele>173.17</ele>
        <time>2013-05-19T17:20:22Z</time>
      </trkpt>
      <trkpt lat="43.46334" lon="1.39745">
        <ele>171.73</ele>
        <time>2013-05-19T17:20:30Z</time>
      </trkpt>
      <trkpt lat="43.46424" lon="1.39762">
        <ele>170.29</ele>
        <time>2013-05-19T17:20:41Z</time>
      </trkpt>
      <trkpt lat="43.46521" lon="1.39762">
        <ele>172.69</ele>
        <time>2013-05-19T17:20:51Z</time>
      </trkpt>
      <trkpt lat="43.46628" lon="1.3977">
        <ele>170.77</ele>
        <time>2013-05-19T17:20:58Z</time>
      </trkpt>
      <trkpt lat="43.4673" lon="1.39779">
        <ele>170.29</ele>
        <time>2013-05-19T17:21:04Z</time>
      </trkpt>
      <trkpt lat="43.46834" lon="1.39789">
        <ele>170.29</ele>
        <time>2013-05-19T17:21:10Z</time>
      </trkpt>
      <trkpt lat="43.46936" lon="1.39795">
        <ele>170.29</ele>
        <time>2013-05-19T17:21:16Z</time>
      </trkpt>
      <trkpt lat="43.47033" lon="1.39792">
        <ele>170.77</ele>
        <time>2013-05-19T17:21:21Z</time>
      </trkpt>
      <trkpt lat="43.47143" lon="1.39789">
        <ele>167.89</ele>
        <time>2013-05-19T17:21:26Z</time>
      </trkpt>
      <trkpt lat="43.47245" lon="1.39786">
        <ele>172.69</ele>
        <time>2013-05-19T17:21:31Z</time>
      </trkpt>
      <trkpt lat="43.47341" lon="1.39782">
        <ele>167.89</ele>
        <time>2013-05-19T17:21:36Z</time>
      </trkpt>
      <trkpt lat="43.47441" lon="1.39779">
        <ele>167.89</ele>
        <time>2013-05-19T17:21:42Z</time>
      </trkpt>
      <trkpt lat="43.47534" lon="1.39779">
        <ele>165.96</ele>
        <time>2013-05-19T17:21:48Z</time>
      </trkpt>
      <trkpt lat="43.47631" lon="1.39804">
        <ele>165.48</ele>
        <time>2013-05-19T17:21:55Z</time>
      </trkpt>
      <trkpt lat="43.47726" lon="1.39834">
        <ele>165.48</ele>
        <time>2013-05-19T17:22:02Z</time>
      </trkpt>
      <trkpt lat="43.47821" lon="1.39868">
        <ele>165.48</ele>
        <time>2013-05-19T17:22:09Z</time>
      </trkpt>
      <trkpt lat="43.47917" lon="1.39888">
        <ele>165.96</ele>
        <time>2013-05-19T17:22:16Z</time>
      </trkpt>
      <trkpt lat="43.48005" lon="1.39877">
        <ele>167.41</ele>
        <time>2013-05-19T17:22:23Z</time>
      </trkpt>
      <trkpt lat="43.48092" lon="1.39952">
        <ele>167.89</ele>
        <time>2013-05-19T17:22:31Z</time>
      </trkpt>
      <trkpt lat="43.48177" lon="1.39998">
        <ele>165</ele>
        <time>2013-05-19T17:22:38Z</time>
      </trkpt>
      <trkpt lat="43.48275" lon="1.40031">
        <ele>163.56</ele>
        <time>2013-05-19T17:22:46Z</time>
      </trkpt>
      <trkpt lat="43.48363" lon="1.40075">
        <ele>161.64</ele>
        <time>2013-05-19T17:22:56Z</time>
      </trkpt>
      <trkpt lat="43.48407" lon="1.40131">
        <ele>161.64</ele>
        <time>2013-05-19T17:23:07Z</time>
      </trkpt>
      <trkpt lat="43.48489" lon="1.40052">
        <ele>163.56</ele>
        <time>2013-05-19T17:23:14Z</time>
      </trkpt>
      <trkpt lat="43.48588" lon="1.40002">
        <ele>164.04</ele>
        <time>2013-05-19T17:23:20Z</time>
      </trkpt>
      <trkpt lat="43.4868" lon="1.39956">
        <ele>164.04</ele>
        <time>2013-05-19T17:23:26Z</time>
      </trkpt>
      <trkpt lat="43.48778" lon="1.39916">
        <ele>162.12</ele>
        <time>2013-05-19T17:23:33Z</time>
      </trkpt>
      <trkpt lat="43.4886" lon="1.39976">
        <ele>164.04</ele>
        <time>2013-05-19T17:23:39Z</time>
      </trkpt>
      <trkpt lat="43.48946" lon="1.40051">
        <ele>162.6</ele>
        <time>2013-05-19T17:23:45Z</time>
      </trkpt>
      <trkpt lat="43.49023" lon="1.4014">
        <ele>163.08</ele>
        <time>2013-05-19T17:23:50Z</time>
      </trkpt>
      <trkpt lat="43.49091" lon="1.40231">
        <ele>162.12</ele>
        <time>2013-05-19T17:23:55Z</time>
      </trkpt>
      <trkpt lat="43.49158" lon="1.40322">
        <ele>161.16</ele>
        <time>2013-05-19T17:24:01Z</time>
      </trkpt>
      <trkpt lat="43.49216" lon="1.40416">
        <ele>162.12</ele>
        <time>2013-05-19T17:24:11Z</time>
      </trkpt>
      <trkpt lat="43.4927" lon="1.40515">
        <ele>160.68</ele>
        <time>2013-05-19T17:24:17Z</time>
      </trkpt>
      <trkpt lat="43.4933" lon="1.40616">
        <ele>163.56</ele>
        <time>2013-05-19T17:24:23Z</time>
      </trkpt>
      <trkpt lat="43.49417" lon="1.4067">
        <ele>161.16</ele>
        <time>2013-05-19T17:24:28Z</time>
      </trkpt>
      <trkpt lat="43.49515" lon="1.40673">
        <ele>163.08</ele>
        <time>2013-05-19T17:24:33Z</time>
      </trkpt>
      <trkpt lat="43.49607" lon="1.40629">
        <ele>161.16</ele>
        <time>2013-05-19T17:24:38Z</time>
      </trkpt>
      <trkpt lat="43.49692" lon="1.40585">
        <ele>161.16</ele>
        <time>2013-05-19T17:24:43Z</time>
      </trkpt>
      <trkpt lat="43.49791" lon="1.40599">
        <ele>161.16</ele>
        <time>2013-05-19T17:24:49Z</time>
      </trkpt>
      <trkpt lat="43.49865" lon="1.40676">
        <ele>164.52</ele>
        <time>2013-05-19T17:24:54Z</time>
      </trkpt>
      <trkpt lat="43.49933" lon="1.40784">
        <ele>165.96</ele>
        <time>2013-05-19T17:25:01Z</time>
      </trkpt>
      <trkpt lat="43.49998" lon="1.40887">
        <ele>162.6</ele>
        <time>2013-05-19T17:25:08Z</time>
      </trkpt>
      <trkpt lat="43.50028" lon="1.40997">
        <ele>160.2</ele>
        <time>2013-05-19T17:25:19Z</time>
      </trkpt>
      <trkpt lat="43.50113" lon="1.41048">
        <ele>157.79</ele>
        <time>2013-05-19T17:25:31Z</time>
      </trkpt>
      <trkpt lat="43.502" lon="1.41103">
        <ele>158.75</ele>
        <time>2013-05-19T17:25:42Z</time>
      </trkpt>
      <trkpt lat="43.50285" lon="1.41145">
        <ele>158.75</ele>
        <time>2013-05-19T17:25:52Z</time>
      </trkpt>
      <trkpt lat="43.50373" lon="1.41185">
        <ele>158.75</ele>
        <time>2013-05-19T17:26:00Z</time>
      </trkpt>
      <trkpt lat="43.50463" lon="1.41227">
        <ele>156.83</ele>
        <time>2013-05-19T17:26:08Z</time>
      </trkpt>
      <trkpt lat="43.50553" lon="1.4127">
        <ele>159.72</ele>
        <time>2013-05-19T17:26:16Z</time>
      </trkpt>
      <trkpt lat="43.50646" lon="1.41313">
        <ele>158.75</ele>
        <time>2013-05-19T17:26:23Z</time>
      </trkpt>
      <trkpt lat="43.5072" lon="1.41413">
        <ele>158.75</ele>
        <time>2013-05-19T17:26:29Z</time>
      </trkpt>
      <trkpt lat="43.50799" lon="1.41478">
        <ele>158.75</ele>
        <time>2013-05-19T17:26:34Z</time>
      </trkpt>
      <trkpt lat="43.50901" lon="1.41509">
        <ele>158.75</ele>
        <time>2013-05-19T17:26:39Z</time>
      </trkpt>
      <trkpt lat="43.51005" lon="1.4154">
        <ele>158.27</ele>
        <time>2013-05-19T17:26:44Z</time>
      </trkpt>
      <trkpt lat="43.51097" lon="1.41568">
        <ele>157.31</ele>
        <time>2013-05-19T17:26:48Z</time>
      </trkpt>
      <trkpt lat="43.51187" lon="1.41595">
        <ele>160.68</ele>
        <time>2013-05-19T17:26:52Z</time>
      </trkpt>
      <trkpt lat="43.5128" lon="1.41622">
        <ele>154.91</ele>
        <time>2013-05-19T17:26:56Z</time>
      </trkpt>
      <trkpt lat="43.51373" lon="1.41651">
        <ele>158.27</ele>
        <time>2013-05-19T17:27:00Z</time>
      </trkpt>
      <trkpt lat="43.51467" lon="1.41679">
        <ele>155.87</ele>
        <time>2013-05-19T17:27:04Z</time>
      </trkpt>
      <trkpt lat="43.51559" lon="1.41707">
        <ele>153.95</ele>
        <time>2013-05-19T17:27:08Z</time>
      </trkpt>
      <trkpt lat="43.51646" lon="1.41741">
        <ele>155.87</ele>
        <time>2013-05-19T17:27:12Z</time>
      </trkpt>
      <trkpt lat="43.51732" lon="1.41785">
        <ele>154.91</ele>
        <time>2013-05-19T17:27:16Z</time>
      </trkpt>
      <trkpt lat="43.51822" lon="1.41832">
        <ele>153.95</ele>
        <time>2013-05-19T17:27:20Z</time>
      </trkpt>
      <trkpt lat="43.51905" lon="1.41891">
        <ele>154.91</ele>
        <time>2013-05-19T17:27:24Z</time>
      </trkpt>
      <trkpt lat="43.51982" lon="1.41975">
        <ele>160.2</ele>
        <time>2013-05-19T17:27:28Z</time>
      </trkpt>
      <trkpt lat="43.52063" lon="1.42062">
        <ele>154.43</ele>
        <time>2013-05-19T17:27:32Z</time>
      </trkpt>
      <trkpt lat="43.52136" lon="1.42143">
        <ele>155.87</ele>
        <time>2013-05-19T17:27:36Z</time>
      </trkpt>
      <trkpt lat="43.52203" lon="1.42235">
        <ele>153.47</ele>
        <time>2013-05-19T17:27:40Z</time>
      </trkpt>
      <trkpt lat="43.52269" lon="1.42327">
        <ele>151.06</ele>
        <time>2013-05-19T17:27:44Z</time>
      </trkpt>
      <trkpt lat="43.52338" lon="1.4242">
        <ele>151.06</ele>
        <time>2013-05-19T17:27:48Z</time>
      </trkpt>
      <trkpt lat="43.52406" lon="1.42513">
        <ele>150.1</ele>
        <time>2013-05-19T17:27:52Z</time>
      </trkpt>
      <trkpt lat="43.52473" lon="1.42605">
        <ele>151.54</ele>
        <time>2013-05-19T17:27:56Z</time>
      </trkpt>
      <trkpt lat="43.52538" lon="1.42693">
        <ele>153.47</ele>
        <time>2013-05-19T17:28:00Z</time>
      </trkpt>
      <trkpt lat="43.5261" lon="1.42794">
        <ele>156.35</ele>
        <time>2013-05-19T17:28:06Z</time>
      </trkpt>
      <trkpt lat="43.52692" lon="1.42848">
        <ele>156.83</ele>
        <time>2013-05-19T17:28:12Z</time>
      </trkpt>
      <trkpt lat="43.52795" lon="1.42876">
        <ele>156.35</ele>
        <time>2013-05-19T17:28:17Z</time>
      </trkpt>
      <trkpt lat="43.52891" lon="1.42901">
        <ele>152.99</ele>
        <time>2013-05-19T17:28:22Z</time>
      </trkpt>
      <trkpt lat="43.52988" lon="1.4292">
        <ele>152.51</ele>
        <time>2013-05-19T17:28:27Z</time>
      </trkpt>
      <trkpt lat="43.53075" lon="1.42972">
        <ele>155.39</ele>
        <time>2013-05-19T17:28:32Z</time>
      </trkpt>
      <trkpt lat="43.53175" lon="1.43025">
        <ele>161.64</ele>
        <time>2013-05-19T17:28:38Z</time>
      </trkpt>
      <trkpt lat="43.53272" lon="1.43068">
        <ele>165.48</ele>
        <time>2013-05-19T17:28:44Z</time>
      </trkpt>
      <trkpt lat="43.5336" lon="1.43126">
        <ele>165.96</ele>
        <time>2013-05-19T17:28:49Z</time>
      </trkpt>
      <trkpt lat="43.53444" lon="1.4319">
        <ele>167.41</ele>
        <time>2013-05-19T17:28:54Z</time>
      </trkpt>
      <trkpt lat="43.53544" lon="1.43225">
        <ele>165</ele>
        <time>2013-05-19T17:29:00Z</time>
      </trkpt>
      <trkpt lat="43.53644" lon="1.43283">
        <ele>161.16</ele>
        <time>2013-05-19T17:29:06Z</time>
      </trkpt>
      <trkpt lat="43.53735" lon="1.43296">
        <ele>161.64</ele>
        <time>2013-05-19T17:29:11Z</time>
      </trkpt>
      <trkpt lat="43.53835" lon="1.43338">
        <ele>158.75</ele>
        <time>2013-05-19T17:29:17Z</time>
      </trkpt>
      <trkpt lat="43.5393" lon="1.43397">
        <ele>156.35</ele>
        <time>2013-05-19T17:29:22Z</time>
      </trkpt>
      <trkpt lat="43.54015" lon="1.4346">
        <ele>153.47</ele>
        <time>2013-05-19T17:29:27Z</time>
      </trkpt>
      <trkpt lat="43.54083" lon="1.43533">
        <ele>150.1</ele>
        <time>2013-05-19T17:29:32Z</time>
      </trkpt>
      <trkpt lat="43.54187" lon="1.43592">
        <ele>149.14</ele>
        <time>2013-05-19T17:29:37Z</time>
      </trkpt>
      <trkpt lat="43.54275" lon="1.43676">
        <ele>150.58</ele>
        <time>2013-05-19T17:29:42Z</time>
      </trkpt>
      <trkpt lat="43.54335" lon="1.43775">
        <ele>153.47</ele>
        <time>2013-05-19T17:29:47Z</time>
      </trkpt>
      <trkpt lat="43.54391" lon="1.43886">
        <ele>152.99</ele>
        <time>2013-05-19T17:29:55Z</time>
      </trkpt>
      <trkpt lat="43.54503" lon="1.43918">
        <ele>152.99</ele>
        <time>2013-05-19T17:30:01Z</time>
      </trkpt>
      <trkpt lat="43.5459" lon="1.43908">
        <ele>152.51</ele>
        <time>2013-05-19T17:30:07Z</time>
      </trkpt>
      <trkpt lat="43.54683" lon="1.43926">
        <ele>153.47</ele>
        <time>2013-05-19T17:30:14Z</time>
      </trkpt>
      <trkpt lat="43.54783" lon="1.43921">
        <ele>152.99</ele>
        <time>2013-05-19T17:30:22Z</time>
      </trkpt>
      <trkpt lat="43.54882" lon="1.43929">
        <ele>152.51</ele>
        <time>2013-05-19T17:30:29Z</time>
      </trkpt>
      <trkpt lat="43.54982" lon="1.43975">
        <ele>153.95</ele>
        <time>2013-05-19T17:30:36Z</time>
      </trkpt>
      <trkpt lat="43.55069" lon="1.44017">
        <ele>156.83</ele>
        <time>2013-05-19T17:30:42Z</time>
      </trkpt>
      <trkpt lat="43.55162" lon="1.4406">
        <ele>160.2</ele>
        <time>2013-05-19T17:30:49Z</time>
      </trkpt>
      <trkpt lat="43.55253" lon="1.4408">
        <ele>161.16</ele>
        <time>2013-05-19T17:30:55Z</time>
      </trkpt>
      <trkpt lat="43.55345" lon="1.44097">
        <ele>165</ele>
        <time>2013-05-19T17:31:01Z</time>
      </trkpt>
      <trkpt lat="43.5545" lon="1.44101">
        <ele>161.16</ele>
        <time>2013-05-19T17:31:07Z</time>
      </trkpt>
      <trkpt lat="43.55547" lon="1.44101">
        <ele>156.83</ele>
        <time>2013-05-19T17:31:12Z</time>
      </trkpt>
      <trkpt lat="43.55643" lon="1.44114">
        <ele>158.75</ele>
        <time>2013-05-19T17:31:17Z</time>
      </trkpt>
      <trkpt lat="43.55743" lon="1.44124">
        <ele>161.64</ele>
        <time>2013-05-19T17:31:24Z</time>
      </trkpt>
      <trkpt lat="43.55821" lon="1.44072">
        <ele>160.68</ele>
        <time>2013-05-19T17:31:30Z</time>
      </trkpt>
      <trkpt lat="43.55906" lon="1.44006">
        <ele>156.83</ele>
        <time>2013-05-19T17:31:36Z</time>
      </trkpt>
      <trkpt lat="43.56" lon="1.43997">
        <ele>155.39</ele>
        <time>2013-05-19T17:31:42Z</time>
      </trkpt>
      <trkpt lat="43.56102" lon="1.43984">
        <ele>151.06</ele>
        <time>2013-05-19T17:31:48Z</time>
      </trkpt>
      <trkpt lat="43.56202" lon="1.43957">
        <ele>152.03</ele>
        <time>2013-05-19T17:31:54Z</time>
      </trkpt>
      <trkpt lat="43.56303" lon="1.43937">
        <ele>152.99</ele>
        <time>2013-05-19T17:32:00Z</time>
      </trkpt>
      <trkpt lat="43.56394" lon="1.43945">
        <ele>153.95</ele>
        <time>2013-05-19T17:32:06Z</time>
      </trkpt>
      <trkpt lat="43.56498" lon="1.43982">
        <ele>152.99</ele>
        <time>2013-05-19T17:32:13Z</time>
      </trkpt>
      <trkpt lat="43.56599" lon="1.43985">
        <ele>152.03</ele>
        <time>2013-05-19T17:32:19Z</time>
      </trkpt>
      <trkpt lat="43.56696" lon="1.43985">
        <ele>151.54</ele>
        <time>2013-05-19T17:32:26Z</time>
      </trkpt>
      <trkpt lat="43.56791" lon="1.43966">
        <ele>151.54</ele>
        <time>2013-05-19T17:32:33Z</time>
      </trkpt>
      <trkpt lat="43.56888" lon="1.43948">
        <ele>150.58</ele>
        <time>2013-05-19T17:32:40Z</time>
      </trkpt>
      <trkpt lat="43.56981" lon="1.43934">
        <ele>149.62</ele>
        <time>2013-05-19T17:32:47Z</time>
      </trkpt>
      <trkpt lat="43.57078" lon="1.43914">
        <ele>148.18</ele>
        <time>2013-05-19T17:32:55Z</time>
      </trkpt>
      <trkpt lat="43.57178" lon="1.43884">
        <ele>149.14</ele>
        <time>2013-05-19T17:33:04Z</time>
      </trkpt>
    </trkseg>
  </trk>
</gpx>